Time,TemperatureF,DewpointF,PressureIn,WindDirection,WindDirectionDegrees,WindSpeedMPH,WindSpeedGustMPH,Humidity,HourlyPrecipIn,Conditions,Clouds,dailyrainin,SoftwareType,DateUTC
2013-06-15 00:00:00,57.0,41.5,29.88,NW,311,2.0,2.0,56,0.00,,SKC,0.00,VWS V14.01,2013-06-15 06:00:00,
2013-06-15 00:01:00,57.1,41.6,29.88,NW,311,3.0,3.0,56,0.00,,SKC,0.00,VWS V14.01,2013-06-15 06:01:00,
2013-06-15 00:02:00,57.1,41.6,29.88,NW,316,1.0,3.0,56,0.00,,SKC,0.00,VWS V14.01,2013-06-15 06:02:00,
2013-06-15 00:03:00,57.2,41.7,29.88,NW,317,3.0,3.0,56,0.00,,SKC,0.00,VWS V14.01,2013-06-15 06:03:00,
2013-06-15 00:04:00,57.2,41.7,29.88,NW,312,2.0,3.0,56,0.00,,SKC,0.00,VWS V14.01,2013-06-15 06:04:00,
2013-06-15 00:05:00,57.2,41.7,29.88,NW,310,0.0,3.0,56,0.00,,SKC,0.00,VWS V14.01,2013-06-15 06:05:00,
2013-06-15 00:06:00,57.2,41.2,29.88,North,360,1.0,3.0,55,0.00,,SKC,0.00,VWS V14.01,2013-06-15 06:06:00,
2013-06-15 00:07:00,57.3,41.3,29.88,NW,312,2.0,2.0,55,0.00,,SKC,0.00,VWS V14.01,2013-06-15 06:07:00,
2013-06-15 00:08:00,57.3,41.3,29.88,NW,313,0.0,3.0,55,0.00,,SKC,0.00,VWS V14.01,2013-06-15 06:08:00,
2013-06-15 00:09:00,57.3,41.3,29.88,NW,313,0.0,2.0,55,0.00,,SKC,0.00,VWS V14.01,2013-06-15 06:09:00,
2013-06-15 00:10:00,57.3,41.3,29.88,NW,311,0.0,2.0,55,0.00,,SKC,0.00,VWS V14.01,2013-06-15 06:10:00,
2013-06-15 00:11:00,57.2,41.2,29.88,NW,307,0.0,1.0,55,0.00,,SKC,0.00,VWS V14.01,2013-06-15 06:11:00,
2013-06-15 00:12:00,57.2,41.2,29.88,NW,310,0.0,0.0,55,0.00,,SKC,0.00,VWS V14.01,2013-06-15 06:12:00,
2013-06-15 00:13:00,57.2,41.2,29.88,NW,315,0.0,0.0,55,0.00,,SKC,0.00,VWS V14.01,2013-06-15 06:13:00,
2013-06-15 00:14:00,57.2,41.2,29.88,NW,309,0.0,0.0,55,0.00,,SKC,0.00,VWS V14.01,2013-06-15 06:14:00,
2013-06-15 00:15:00,57.2,41.2,29.88,NW,315,0.0,1.0,55,0.00,,SKC,0.00,VWS V14.01,2013-06-15 06:15:00,
2013-06-15 00:16:00,57.2,41.2,29.88,NW,313,2.0,4.0,55,0.00,,SKC,0.00,VWS V14.01,2013-06-15 06:16:00,
2013-06-15 00:17:00,57.2,41.2,29.89,North,360,1.0,3.0,55,0.00,,SKC,0.00,VWS V14.01,2013-06-15 06:17:00,
2013-06-15 00:18:00,57.2,41.2,29.89,NW,316,0.0,2.0,55,0.00,,SKC,0.00,VWS V14.01,2013-06-15 06:18:00,
2013-06-15 00:19:00,57.2,41.2,29.89,NW,313,0.0,1.0,55,0.00,,SKC,0.00,VWS V14.01,2013-06-15 06:19:00,
2013-06-15 00:20:00,57.2,41.2,29.89,NW,313,0.0,0.0,55,0.00,,SKC,0.00,VWS V14.01,2013-06-15 06:20:00,
2013-06-15 00:21:00,57.1,41.1,29.89,NW,309,0.0,1.0,55,0.00,,SKC,0.00,VWS V14.01,2013-06-15 06:21:00,
2013-06-15 00:22:00,57.1,41.1,29.89,NW,311,0.0,0.0,55,0.00,,SKC,0.00,VWS V14.01,2013-06-15 06:22:00,
2013-06-15 00:23:00,57.0,41.0,29.88,NW,313,0.0,0.0,55,0.00,,SKC,0.00,VWS V14.01,2013-06-15 06:23:00,
2013-06-15 00:24:00,56.9,40.9,29.88,NW,315,0.0,1.0,55,0.00,,SKC,0.00,VWS V14.01,2013-06-15 06:24:00,
2013-06-15 00:25:00,56.9,41.4,29.89,NW,312,3.0,4.0,56,0.00,,SKC,0.00,VWS V14.01,2013-06-15 06:25:00,
2013-06-15 00:26:00,56.8,41.3,29.88,NW,311,4.0,4.0,56,0.00,,SKC,0.00,VWS V14.01,2013-06-15 06:26:00,
2013-06-15 00:27:00,56.7,41.2,29.88,NW,311,2.0,4.0,56,0.00,,SKC,0.00,VWS V14.01,2013-06-15 06:27:00,
2013-06-15 00:28:00,56.7,41.2,29.88,NW,314,2.0,4.0,56,0.00,,SKC,0.00,VWS V14.01,2013-06-15 06:28:00,
2013-06-15 00:29:00,56.6,41.1,29.88,North,360,2.0,4.0,56,0.00,,SKC,0.00,VWS V14.01,2013-06-15 06:29:00,
2013-06-15 00:30:00,56.5,41.0,29.88,NW,313,1.0,3.0,56,0.00,,SKC,0.00,VWS V14.01,2013-06-15 06:30:00,
2013-06-15 00:31:00,56.5,41.0,29.88,NW,310,2.0,3.0,56,0.00,,SKC,0.00,VWS V14.01,2013-06-15 06:31:00,
2013-06-15 00:32:00,56.4,40.9,29.88,NW,316,2.0,3.0,56,0.00,,SKC,0.00,VWS V14.01,2013-06-15 06:32:00,
2013-06-15 00:33:00,56.4,40.9,29.88,NW,311,3.0,5.0,56,0.00,,SKC,0.00,VWS V14.01,2013-06-15 06:33:00,
2013-06-15 00:34:00,56.4,40.9,29.88,NW,313,4.0,5.0,56,0.00,,SKC,0.00,VWS V14.01,2013-06-15 06:34:00,
2013-06-15 00:35:00,56.3,40.8,29.88,NW,313,3.0,4.0,56,0.00,,SKC,0.00,VWS V14.01,2013-06-15 06:35:00,
2013-06-15 00:36:00,56.4,40.9,29.88,NW,312,1.0,4.0,56,0.00,,SKC,0.00,VWS V14.01,2013-06-15 06:36:00,
2013-06-15 00:37:00,56.4,40.9,29.88,NW,311,1.0,2.0,56,0.00,,SKC,0.00,VWS V14.01,2013-06-15 06:37:00,
2013-06-15 00:38:00,56.4,40.9,29.88,North,360,0.0,4.0,56,0.00,,SKC,0.00,VWS V14.01,2013-06-15 06:38:00,
2013-06-15 00:39:00,56.4,40.9,29.88,NW,314,1.0,2.0,56,0.00,,SKC,0.00,VWS V14.01,2013-06-15 06:39:00,
2013-06-15 00:40:00,56.4,40.9,29.88,NW,308,1.0,1.0,56,0.00,,SKC,0.00,VWS V14.01,2013-06-15 06:40:00,
2013-06-15 00:41:00,56.5,41.0,29.88,North,360,3.0,3.0,56,0.00,,SKC,0.00,VWS V14.01,2013-06-15 06:41:00,
2013-06-15 00:42:00,56.5,41.0,29.88,NW,313,1.0,4.0,56,0.00,,SKC,0.00,VWS V14.01,2013-06-15 06:42:00,
2013-06-15 00:43:00,56.5,41.0,29.88,NW,307,0.0,2.0,56,0.00,,SKC,0.00,VWS V14.01,2013-06-15 06:43:00,
2013-06-15 00:44:00,56.5,41.0,29.88,NW,315,1.0,3.0,56,0.00,,SKC,0.00,VWS V14.01,2013-06-15 06:44:00,
2013-06-15 00:45:00,56.5,41.0,29.88,NW,313,1.0,3.0,56,0.00,,SKC,0.00,VWS V14.01,2013-06-15 06:45:00,
2013-06-15 00:46:00,56.5,40.5,29.88,NW,309,0.0,1.0,55,0.00,,SKC,0.00,VWS V14.01,2013-06-15 06:46:00,
2013-06-15 00:47:00,56.5,40.5,29.88,NW,316,0.0,1.0,55,0.00,,SKC,0.00,VWS V14.01,2013-06-15 06:47:00,
2013-06-15 00:48:00,56.5,41.0,29.88,NW,312,1.0,2.0,56,0.00,,SKC,0.00,VWS V14.01,2013-06-15 06:48:00,
2013-06-15 00:49:00,56.4,40.5,29.88,NW,313,1.0,1.0,55,0.00,,SKC,0.00,VWS V14.01,2013-06-15 06:49:00,
2013-06-15 00:50:00,56.4,40.5,29.88,North,360,2.0,4.0,55,0.00,,SKC,0.00,VWS V14.01,2013-06-15 06:50:00,
2013-06-15 00:51:00,56.4,40.5,29.88,NW,315,2.0,3.0,55,0.00,,SKC,0.00,VWS V14.01,2013-06-15 06:51:00,
2013-06-15 00:52:00,56.4,40.5,29.88,NW,317,2.0,2.0,55,0.00,,SKC,0.00,VWS V14.01,2013-06-15 06:52:00,
2013-06-15 00:53:00,56.5,40.5,29.88,NW,317,0.0,3.0,55,0.00,,SKC,0.00,VWS V14.01,2013-06-15 06:53:00,
2013-06-15 00:54:00,56.5,40.5,29.88,NW,318,2.0,2.0,55,0.00,,SKC,0.00,VWS V14.01,2013-06-15 06:54:00,
2013-06-15 00:55:00,56.6,40.6,29.88,NW,313,0.0,2.0,55,0.00,,SKC,0.00,VWS V14.01,2013-06-15 06:55:00,
2013-06-15 00:56:00,56.6,40.6,29.88,NW,318,0.0,0.0,55,0.00,,SKC,0.00,VWS V14.01,2013-06-15 06:56:00,
2013-06-15 00:57:00,56.6,40.6,29.88,NW,315,0.0,0.0,55,0.00,,SKC,0.00,VWS V14.01,2013-06-15 06:57:00,
2013-06-15 00:58:00,56.7,40.7,29.88,NW,316,0.0,0.0,55,0.00,,SKC,0.00,VWS V14.01,2013-06-15 06:58:00,
2013-06-15 00:59:00,56.7,40.7,29.88,NW,314,0.0,0.0,55,0.00,,SKC,0.00,VWS V14.01,2013-06-15 06:59:00,
2013-06-15 01:00:00,56.7,40.7,29.88,NW,315,0.0,1.0,55,0.00,,SKC,0.00,VWS V14.01,2013-06-15 07:00:00,
2013-06-15 01:01:00,56.7,40.7,29.88,North,360,0.0,0.0,55,0.00,,SKC,0.00,VWS V14.01,2013-06-15 07:01:00,
2013-06-15 01:02:00,56.7,40.7,29.88,NW,312,1.0,1.0,55,0.00,,SKC,0.00,VWS V14.01,2013-06-15 07:02:00,
2013-06-15 01:03:00,56.7,40.7,29.88,NW,315,0.0,1.0,55,0.00,,SKC,0.00,VWS V14.01,2013-06-15 07:03:00,
2013-06-15 01:04:00,56.6,40.6,29.88,North,360,0.0,0.0,55,0.00,,SKC,0.00,VWS V14.01,2013-06-15 07:04:00,
2013-06-15 01:05:00,56.6,40.6,29.89,NW,315,0.0,0.0,55,0.00,,SKC,0.00,VWS V14.01,2013-06-15 07:05:00,
2013-06-15 01:06:00,56.5,41.0,29.89,North,360,0.0,0.0,56,0.00,,SKC,0.00,VWS V14.01,2013-06-15 07:06:00,
2013-06-15 01:07:00,56.5,41.0,29.89,NW,315,0.0,0.0,56,0.00,,SKC,0.00,VWS V14.01,2013-06-15 07:07:00,
2013-06-15 01:08:00,56.4,40.9,29.88,NW,314,0.0,1.0,56,0.00,,SKC,0.00,VWS V14.01,2013-06-15 07:08:00,
2013-06-15 01:09:00,56.3,40.8,29.89,NW,312,2.0,2.0,56,0.00,,SKC,0.00,VWS V14.01,2013-06-15 07:09:00,
2013-06-15 01:10:00,56.3,40.8,29.89,NW,317,0.0,2.0,56,0.00,,SKC,0.00,VWS V14.01,2013-06-15 07:10:00,
2013-06-15 01:11:00,56.2,40.7,29.89,NW,321,0.0,1.0,56,0.00,,SKC,0.00,VWS V14.01,2013-06-15 07:11:00,
2013-06-15 01:12:00,56.2,40.7,29.89,NW,315,4.0,4.0,56,0.00,,SKC,0.00,VWS V14.01,2013-06-15 07:12:00,
2013-06-15 01:13:00,56.1,40.6,29.89,NW,315,2.0,4.0,56,0.00,,SKC,0.00,VWS V14.01,2013-06-15 07:13:00,
2013-06-15 01:14:00,56.1,40.6,29.89,NW,312,2.0,3.0,56,0.00,,SKC,0.00,VWS V14.01,2013-06-15 07:14:00,
2013-06-15 01:15:00,56.0,40.1,29.89,NW,315,1.0,4.0,55,0.00,,SKC,0.00,VWS V14.01,2013-06-15 07:15:00,
2013-06-15 01:16:00,55.9,40.0,29.89,NW,319,4.0,4.0,55,0.00,,SKC,0.00,VWS V14.01,2013-06-15 07:16:00,
2013-06-15 01:17:00,55.9,40.0,29.89,NW,315,3.0,4.0,55,0.00,,SKC,0.00,VWS V14.01,2013-06-15 07:17:00,
2013-06-15 01:18:00,55.8,39.9,29.89,NW,312,1.0,4.0,55,0.00,,SKC,0.00,VWS V14.01,2013-06-15 07:18:00,
2013-06-15 01:19:00,55.7,39.8,29.89,North,360,1.0,1.0,55,0.00,,SKC,0.00,VWS V14.01,2013-06-15 07:19:00,
2013-06-15 01:20:00,55.7,39.8,29.90,NW,316,3.0,4.0,55,0.00,,SKC,0.00,VWS V14.01,2013-06-15 07:20:00,
2013-06-15 01:21:00,55.7,40.3,29.89,NW,324,2.0,3.0,56,0.00,,SKC,0.00,VWS V14.01,2013-06-15 07:21:00,
2013-06-15 01:22:00,55.7,40.3,29.90,NW,320,4.0,4.0,56,0.00,,SKC,0.00,VWS V14.01,2013-06-15 07:22:00,
2013-06-15 01:23:00,55.7,40.7,29.90,NW,322,3.0,5.0,57,0.00,,SKC,0.00,VWS V14.01,2013-06-15 07:23:00,
2013-06-15 01:24:00,55.7,40.3,29.90,North,360,1.0,6.0,56,0.00,,SKC,0.00,VWS V14.01,2013-06-15 07:24:00,
2013-06-15 01:25:00,55.7,40.7,29.90,NNE,28,3.0,3.0,57,0.00,,SKC,0.00,VWS V14.01,2013-06-15 07:25:00,
2013-06-15 01:26:00,55.7,40.7,29.91,NNE,33,0.0,4.0,57,0.00,,SKC,0.00,VWS V14.01,2013-06-15 07:26:00,
2013-06-15 01:27:00,55.8,40.8,29.91,East,90,5.0,7.0,57,0.00,,SKC,0.00,VWS V14.01,2013-06-15 07:27:00,
2013-06-15 01:28:00,55.8,41.3,29.91,NNE,31,3.0,5.0,58,0.00,,SKC,0.00,VWS V14.01,2013-06-15 07:28:00,
2013-06-15 01:29:00,55.8,41.7,29.91,NE,52,0.0,4.0,59,0.00,,SKC,0.00,VWS V14.01,2013-06-15 07:29:00,
2013-06-15 01:30:00,55.8,41.7,29.91,NNE,28,5.0,5.0,59,0.00,,SKC,0.00,VWS V14.01,2013-06-15 07:30:00,
2013-06-15 01:31:00,55.9,41.8,29.91,NNE,18,3.0,12.0,59,0.00,,SKC,0.00,VWS V14.01,2013-06-15 07:31:00,
2013-06-15 01:32:00,55.9,42.2,29.91,NNE,13,2.0,5.0,60,0.00,,SKC,0.00,VWS V14.01,2013-06-15 07:32:00,
2013-06-15 01:33:00,55.9,42.2,29.91,ENE,74,5.0,8.0,60,0.00,,SKC,0.00,VWS V14.01,2013-06-15 07:33:00,
2013-06-15 01:34:00,56.0,42.3,29.91,ENE,68,1.0,5.0,60,0.00,,SKC,0.00,VWS V14.01,2013-06-15 07:34:00,
2013-06-15 01:35:00,55.9,42.2,29.91,ENE,71,1.0,3.0,60,0.00,,SKC,0.00,VWS V14.01,2013-06-15 07:35:00,
2013-06-15 01:36:00,56.0,42.3,29.91,NNE,33,3.0,4.0,60,0.00,,SKC,0.00,VWS V14.01,2013-06-15 07:36:00,
2013-06-15 01:37:00,56.1,42.4,29.91,NE,34,3.0,3.0,60,0.00,,SKC,0.00,VWS V14.01,2013-06-15 07:37:00,
2013-06-15 01:38:00,56.2,42.5,29.91,South,172,3.0,5.0,60,0.00,,SKC,0.00,VWS V14.01,2013-06-15 07:38:00,
2013-06-15 01:39:00,56.2,42.5,29.92,South,176,0.0,3.0,60,0.00,,SKC,0.00,VWS V14.01,2013-06-15 07:39:00,
2013-06-15 01:40:00,56.2,42.5,29.92,SSW,194,1.0,1.0,60,0.00,,SKC,0.00,VWS V14.01,2013-06-15 07:40:00,
2013-06-15 01:41:00,56.2,42.5,29.92,South,189,0.0,1.0,60,0.00,,SKC,0.00,VWS V14.01,2013-06-15 07:41:00,
2013-06-15 01:42:00,56.2,42.5,29.91,North,360,5.0,7.0,60,0.00,,SKC,0.00,VWS V14.01,2013-06-15 07:42:00,
2013-06-15 01:43:00,56.2,42.5,29.92,NNE,18,6.0,7.0,60,0.00,,SKC,0.00,VWS V14.01,2013-06-15 07:43:00,
2013-06-15 01:44:00,56.2,42.5,29.92,NNE,29,5.0,6.0,60,0.00,,SKC,0.00,VWS V14.01,2013-06-15 07:44:00,
2013-06-15 01:45:00,56.1,42.4,29.92,ENE,59,6.0,6.0,60,0.00,,SKC,0.00,VWS V14.01,2013-06-15 07:45:00,
2013-06-15 01:46:00,56.1,42.4,29.92,ENE,60,4.0,7.0,60,0.00,,SKC,0.00,VWS V14.01,2013-06-15 07:46:00,
2013-06-15 01:47:00,56.1,42.8,29.92,East,92,9.0,9.0,61,0.00,,SKC,0.00,VWS V14.01,2013-06-15 07:47:00,
2013-06-15 01:48:00,56.0,42.3,29.92,East,91,5.0,9.0,60,0.00,,SKC,0.00,VWS V14.01,2013-06-15 07:48:00,
2013-06-15 01:49:00,56.0,42.3,29.92,ESE,102,3.0,6.0,60,0.00,,SKC,0.00,VWS V14.01,2013-06-15 07:49:00,
2013-06-15 01:50:00,56.0,42.8,29.92,East,96,5.0,5.0,61,0.00,,SKC,0.00,VWS V14.01,2013-06-15 07:50:00,
2013-06-15 01:51:00,55.9,42.7,29.92,East,98,0.0,5.0,61,0.00,,SKC,0.00,VWS V14.01,2013-06-15 07:51:00,
2013-06-15 01:52:00,55.8,42.1,29.92,East,98,2.0,5.0,60,0.00,,SKC,0.00,VWS V14.01,2013-06-15 07:52:00,
2013-06-15 01:53:00,55.8,42.1,29.92,East,96,0.0,2.0,60,0.00,,SKC,0.00,VWS V14.01,2013-06-15 07:53:00,
2013-06-15 01:54:00,55.7,42.0,29.92,East,98,2.0,2.0,60,0.00,,SKC,0.00,VWS V14.01,2013-06-15 07:54:00,
2013-06-15 01:55:00,55.7,42.0,29.92,East,101,1.0,2.0,60,0.00,,SKC,0.00,VWS V14.01,2013-06-15 07:55:00,
2013-06-15 01:56:00,55.5,41.9,29.92,East,97,0.0,1.0,60,0.00,,SKC,0.00,VWS V14.01,2013-06-15 07:56:00,
2013-06-15 01:57:00,55.4,42.2,29.93,East,99,0.0,0.0,61,0.00,,SKC,0.00,VWS V14.01,2013-06-15 07:57:00,
2013-06-15 01:58:00,55.3,42.1,29.93,ESE,102,0.0,0.0,61,0.00,,SKC,0.00,VWS V14.01,2013-06-15 07:58:00,
2013-06-15 01:59:00,55.2,42.0,29.93,East,96,0.0,0.0,61,0.00,,SKC,0.00,VWS V14.01,2013-06-15 07:59:00,
2013-06-15 02:00:00,55.1,41.9,29.93,ESE,104,0.0,1.0,61,0.00,,SKC,0.00,VWS V14.01,2013-06-15 08:00:00,
2013-06-15 02:01:00,55.1,41.9,29.93,East,99,0.0,2.0,61,0.00,,SKC,0.00,VWS V14.01,2013-06-15 08:01:00,
2013-06-15 02:02:00,55.0,41.8,29.93,East,100,3.0,3.0,61,0.00,,SKC,0.00,VWS V14.01,2013-06-15 08:02:00,
2013-06-15 02:03:00,54.9,41.7,29.93,East,101,2.0,3.0,61,0.00,,SKC,0.00,VWS V14.01,2013-06-15 08:03:00,
2013-06-15 02:04:00,54.9,42.1,29.93,East,98,3.0,4.0,62,0.00,,SKC,0.00,VWS V14.01,2013-06-15 08:04:00,
2013-06-15 02:05:00,54.8,42.0,29.93,ESE,107,1.0,3.0,62,0.00,,SKC,0.00,VWS V14.01,2013-06-15 08:05:00,
2013-06-15 02:06:00,54.7,42.0,29.93,East,98,0.0,1.0,62,0.00,,SKC,0.00,VWS V14.01,2013-06-15 08:06:00,
2013-06-15 02:07:00,54.6,41.9,29.93,ESE,103,0.0,0.0,62,0.00,,SKC,0.00,VWS V14.01,2013-06-15 08:07:00,
2013-06-15 02:08:00,54.6,42.3,29.93,ESE,105,0.0,0.0,63,0.00,,SKC,0.00,VWS V14.01,2013-06-15 08:08:00,
2013-06-15 02:09:00,54.5,42.2,29.93,East,100,0.0,0.0,63,0.00,,SKC,0.00,VWS V14.01,2013-06-15 08:09:00,
2013-06-15 02:10:00,54.5,42.2,29.93,East,97,0.0,0.0,63,0.00,,SKC,0.00,VWS V14.01,2013-06-15 08:10:00,
2013-06-15 02:11:00,54.4,42.1,29.93,East,101,0.0,0.0,63,0.00,,SKC,0.00,VWS V14.01,2013-06-15 08:11:00,
2013-06-15 02:12:00,54.4,42.5,29.93,East,98,0.0,0.0,64,0.00,,SKC,0.00,VWS V14.01,2013-06-15 08:12:00,
2013-06-15 02:13:00,54.4,42.5,29.93,ESE,102,0.0,0.0,64,0.00,,SKC,0.00,VWS V14.01,2013-06-15 08:13:00,
2013-06-15 02:14:00,54.4,42.5,29.93,ESE,102,0.0,1.0,64,0.00,,SKC,0.00,VWS V14.01,2013-06-15 08:14:00,
2013-06-15 02:15:00,54.4,42.5,29.93,ESE,102,3.0,3.0,64,0.00,,SKC,0.00,VWS V14.01,2013-06-15 08:15:00,
2013-06-15 02:16:00,54.4,42.1,29.93,East,99,1.0,3.0,63,0.00,,SKC,0.00,VWS V14.01,2013-06-15 08:16:00,
2013-06-15 02:17:00,54.4,42.5,29.93,East,98,0.0,1.0,64,0.00,,SKC,0.00,VWS V14.01,2013-06-15 08:17:00,
2013-06-15 02:18:00,54.4,42.5,29.93,ESE,102,0.0,0.0,64,0.00,,SKC,0.00,VWS V14.01,2013-06-15 08:18:00,
2013-06-15 02:19:00,54.4,42.1,29.93,East,95,0.0,1.0,63,0.00,,SKC,0.00,VWS V14.01,2013-06-15 08:19:00,
2013-06-15 02:20:00,54.4,42.1,29.93,East,98,2.0,3.0,63,0.00,,SKC,0.00,VWS V14.01,2013-06-15 08:20:00,
2013-06-15 02:21:00,54.3,42.0,29.93,South,189,1.0,4.0,63,0.00,,SKC,0.00,VWS V14.01,2013-06-15 08:21:00,
2013-06-15 02:22:00,54.3,42.0,29.93,WSW,254,4.0,4.0,63,0.00,,SKC,0.00,VWS V14.01,2013-06-15 08:22:00,
2013-06-15 02:23:00,54.2,41.9,29.93,West,274,1.0,4.0,63,0.00,,SKC,0.00,VWS V14.01,2013-06-15 08:23:00,
2013-06-15 02:24:00,54.2,41.9,29.94,West,273,3.0,3.0,63,0.00,,SKC,0.00,VWS V14.01,2013-06-15 08:24:00,
2013-06-15 02:25:00,54.2,42.3,29.93,West,271,4.0,4.0,64,0.00,,SKC,0.00,VWS V14.01,2013-06-15 08:25:00,
2013-06-15 02:26:00,54.1,42.2,29.94,West,267,3.0,4.0,64,0.00,,SKC,0.00,VWS V14.01,2013-06-15 08:26:00,
2013-06-15 02:27:00,54.1,42.2,29.94,West,272,3.0,3.0,64,0.00,,SKC,0.00,VWS V14.01,2013-06-15 08:27:00,
2013-06-15 02:28:00,54.1,42.2,29.93,West,273,2.0,3.0,64,0.00,,SKC,0.00,VWS V14.01,2013-06-15 08:28:00,
2013-06-15 02:29:00,54.0,41.7,29.94,West,273,3.0,4.0,63,0.00,,SKC,0.00,VWS V14.01,2013-06-15 08:29:00,
2013-06-15 02:30:00,53.9,41.6,29.94,West,269,4.0,5.0,63,0.00,,SKC,0.00,VWS V14.01,2013-06-15 08:30:00,
2013-06-15 02:31:00,53.8,41.5,29.94,West,266,4.0,5.0,63,0.00,,SKC,0.00,VWS V14.01,2013-06-15 08:31:00,
2013-06-15 02:32:00,53.7,41.8,29.93,West,271,1.0,4.0,64,0.00,,SKC,0.00,VWS V14.01,2013-06-15 08:32:00,
2013-06-15 02:33:00,53.6,41.7,29.93,West,281,1.0,3.0,64,0.00,,SKC,0.00,VWS V14.01,2013-06-15 08:33:00,
2013-06-15 02:34:00,53.5,41.6,29.93,West,281,0.0,3.0,64,0.00,,SKC,0.00,VWS V14.01,2013-06-15 08:34:00,
2013-06-15 02:35:00,53.4,41.9,29.93,WNW,283,1.0,2.0,65,0.00,,SKC,0.00,VWS V14.01,2013-06-15 08:35:00,
2013-06-15 02:36:00,53.3,41.8,29.94,WNW,284,3.0,3.0,65,0.00,,SKC,0.00,VWS V14.01,2013-06-15 08:36:00,
2013-06-15 02:37:00,53.3,41.8,29.94,North,360,2.0,3.0,65,0.00,,SKC,0.00,VWS V14.01,2013-06-15 08:37:00,
2013-06-15 02:38:00,53.3,41.8,29.94,WNW,284,2.0,3.0,65,0.00,,SKC,0.00,VWS V14.01,2013-06-15 08:38:00,
2013-06-15 02:39:00,53.3,41.8,29.94,West,281,2.0,4.0,65,0.00,,SKC,0.00,VWS V14.01,2013-06-15 08:39:00,
2013-06-15 02:40:00,53.2,41.8,29.94,West,281,2.0,3.0,65,0.00,,SKC,0.00,VWS V14.01,2013-06-15 08:40:00,
2013-06-15 02:41:00,53.2,41.8,29.94,West,278,3.0,4.0,65,0.00,,SKC,0.00,VWS V14.01,2013-06-15 08:41:00,
2013-06-15 02:42:00,53.2,41.8,29.94,West,281,2.0,3.0,65,0.00,,SKC,0.00,VWS V14.01,2013-06-15 08:42:00,
2013-06-15 02:43:00,53.1,41.7,29.94,North,360,1.0,2.0,65,0.00,,SKC,0.00,VWS V14.01,2013-06-15 08:43:00,
2013-06-15 02:44:00,53.1,41.7,29.94,West,277,1.0,1.0,65,0.00,,SKC,0.00,VWS V14.01,2013-06-15 08:44:00,
2013-06-15 02:45:00,53.1,41.7,29.94,West,277,2.0,3.0,65,0.00,,SKC,0.00,VWS V14.01,2013-06-15 08:45:00,
2013-06-15 02:46:00,53.0,42.0,29.93,North,360,3.0,3.0,66,0.00,,SKC,0.00,VWS V14.01,2013-06-15 08:46:00,
2013-06-15 02:47:00,52.9,41.5,29.93,WNW,282,3.0,3.0,65,0.00,,SKC,0.00,VWS V14.01,2013-06-15 08:47:00,
2013-06-15 02:48:00,52.9,41.5,29.93,West,278,2.0,4.0,65,0.00,,SKC,0.00,VWS V14.01,2013-06-15 08:48:00,
2013-06-15 02:49:00,52.8,41.8,29.94,WNW,284,3.0,3.0,66,0.00,,SKC,0.00,VWS V14.01,2013-06-15 08:49:00,
2013-06-15 02:50:00,52.7,41.7,29.93,West,281,2.0,3.0,66,0.00,,SKC,0.00,VWS V14.01,2013-06-15 08:50:00,
2013-06-15 02:51:00,52.6,41.6,29.94,WNW,284,1.0,2.0,66,0.00,,SKC,0.00,VWS V14.01,2013-06-15 08:51:00,
2013-06-15 02:52:00,52.6,42.0,29.93,WNW,284,0.0,1.0,67,0.00,,SKC,0.00,VWS V14.01,2013-06-15 08:52:00,
2013-06-15 02:53:00,52.7,42.1,29.94,North,360,0.0,1.0,67,0.00,,SKC,0.00,VWS V14.01,2013-06-15 08:53:00,
2013-06-15 02:54:00,52.7,42.1,29.94,WNW,282,0.0,0.0,67,0.00,,SKC,0.00,VWS V14.01,2013-06-15 08:54:00,
2013-06-15 02:55:00,52.7,42.1,29.94,West,281,1.0,1.0,67,0.00,,SKC,0.00,VWS V14.01,2013-06-15 08:55:00,
2013-06-15 02:56:00,52.8,42.2,29.94,WNW,282,0.0,2.0,67,0.00,,SKC,0.00,VWS V14.01,2013-06-15 08:56:00,
2013-06-15 02:57:00,52.8,42.2,29.94,WNW,286,0.0,1.0,67,0.00,,SKC,0.00,VWS V14.01,2013-06-15 08:57:00,
2013-06-15 02:58:00,52.8,41.8,29.94,WNW,286,0.0,0.0,66,0.00,,SKC,0.00,VWS V14.01,2013-06-15 08:58:00,
2013-06-15 02:59:00,52.7,41.7,29.94,WNW,282,0.0,0.0,66,0.00,,SKC,0.00,VWS V14.01,2013-06-15 08:59:00,
2013-06-15 03:00:00,52.7,41.7,29.94,WNW,288,0.0,0.0,66,0.00,,SKC,0.00,VWS V14.01,2013-06-15 09:00:00,
2013-06-15 03:01:00,52.7,41.7,29.94,WNW,282,1.0,1.0,66,0.00,,SKC,0.00,VWS V14.01,2013-06-15 09:01:00,
2013-06-15 03:02:00,52.6,41.6,29.93,WNW,284,1.0,1.0,66,0.00,,SKC,0.00,VWS V14.01,2013-06-15 09:02:00,
2013-06-15 03:03:00,52.5,41.5,29.93,West,281,0.0,2.0,66,0.00,,SKC,0.00,VWS V14.01,2013-06-15 09:03:00,
2013-06-15 03:04:00,52.5,41.5,29.93,West,280,2.0,2.0,66,0.00,,SKC,0.00,VWS V14.01,2013-06-15 09:04:00,
2013-06-15 03:05:00,52.4,41.4,29.93,North,360,0.0,2.0,66,0.00,,SKC,0.00,VWS V14.01,2013-06-15 09:05:00,
2013-06-15 03:06:00,52.3,41.3,29.93,WNW,286,0.0,0.0,66,0.00,,SKC,0.00,VWS V14.01,2013-06-15 09:06:00,
2013-06-15 03:07:00,52.2,41.2,29.93,WNW,286,0.0,0.0,66,0.00,,SKC,0.00,VWS V14.01,2013-06-15 09:07:00,
2013-06-15 03:08:00,52.1,41.5,29.93,North,360,0.0,1.0,67,0.00,,SKC,0.00,VWS V14.01,2013-06-15 09:08:00,
2013-06-15 03:09:00,52.0,41.4,29.93,North,360,0.0,0.0,67,0.00,,SKC,0.00,VWS V14.01,2013-06-15 09:09:00,
2013-06-15 03:10:00,51.9,41.3,29.93,West,279,0.0,0.0,67,0.00,,SKC,0.00,VWS V14.01,2013-06-15 09:10:00,
2013-06-15 03:11:00,51.8,41.2,29.93,WNW,285,0.0,1.0,67,0.00,,SKC,0.00,VWS V14.01,2013-06-15 09:11:00,
2013-06-15 03:12:00,51.7,41.5,29.93,West,281,0.0,0.0,68,0.00,,SKC,0.00,VWS V14.01,2013-06-15 09:12:00,
2013-06-15 03:13:00,51.6,41.4,29.93,North,360,0.0,1.0,68,0.00,,SKC,0.00,VWS V14.01,2013-06-15 09:13:00,
2013-06-15 03:14:00,51.5,41.3,29.93,West,278,0.0,0.0,68,0.00,,SKC,0.00,VWS V14.01,2013-06-15 09:14:00,
2013-06-15 03:15:00,51.5,41.3,29.93,WNW,286,0.0,0.0,68,0.00,,SKC,0.00,VWS V14.01,2013-06-15 09:15:00,
2013-06-15 03:16:00,51.4,41.6,29.93,WNW,286,0.0,0.0,69,0.00,,SKC,0.00,VWS V14.01,2013-06-15 09:16:00,
2013-06-15 03:17:00,51.4,41.6,29.93,WNW,282,0.0,1.0,69,0.00,,SKC,0.00,VWS V14.01,2013-06-15 09:17:00,
2013-06-15 03:18:00,51.4,41.6,29.93,West,281,0.0,1.0,69,0.00,,SKC,0.00,VWS V14.01,2013-06-15 09:18:00,
2013-06-15 03:19:00,51.4,41.6,29.93,West,281,0.0,1.0,69,0.00,,SKC,0.00,VWS V14.01,2013-06-15 09:19:00,
2013-06-15 03:20:00,51.4,41.6,29.93,WNW,286,0.0,0.0,69,0.00,,SKC,0.00,VWS V14.01,2013-06-15 09:20:00,
2013-06-15 03:21:00,51.3,41.5,29.93,WNW,283,1.0,1.0,69,0.00,,SKC,0.00,VWS V14.01,2013-06-15 09:21:00,
2013-06-15 03:22:00,51.3,41.5,29.94,WNW,286,0.0,1.0,69,0.00,,SKC,0.00,VWS V14.01,2013-06-15 09:22:00,
2013-06-15 03:23:00,51.3,41.9,29.93,WNW,285,0.0,1.0,70,0.00,,SKC,0.00,VWS V14.01,2013-06-15 09:23:00,
2013-06-15 03:24:00,51.3,41.5,29.93,WNW,285,0.0,0.0,69,0.00,,SKC,0.00,VWS V14.01,2013-06-15 09:24:00,
2013-06-15 03:25:00,51.3,41.5,29.93,WNW,286,0.0,0.0,69,0.00,,SKC,0.00,VWS V14.01,2013-06-15 09:25:00,
2013-06-15 03:26:00,51.3,41.5,29.93,WNW,284,0.0,1.0,69,0.00,,SKC,0.00,VWS V14.01,2013-06-15 09:26:00,
2013-06-15 03:27:00,51.2,41.4,29.93,North,360,0.0,0.0,69,0.00,,SKC,0.00,VWS V14.01,2013-06-15 09:27:00,
2013-06-15 03:28:00,51.2,41.0,29.93,WNW,287,0.0,0.0,68,0.00,,SKC,0.00,VWS V14.01,2013-06-15 09:28:00,
2013-06-15 03:29:00,51.2,41.0,29.93,WNW,284,0.0,0.0,68,0.00,,SKC,0.00,VWS V14.01,2013-06-15 09:29:00,
2013-06-15 03:30:00,51.1,41.3,29.93,WNW,286,0.0,0.0,69,0.00,,SKC,0.00,VWS V14.01,2013-06-15 09:30:00,
2013-06-15 03:31:00,51.0,41.2,29.93,WNW,285,1.0,1.0,69,0.00,,SKC,0.00,VWS V14.01,2013-06-15 09:31:00,
2013-06-15 03:32:00,51.0,41.2,29.93,West,281,0.0,1.0,69,0.00,,SKC,0.00,VWS V14.01,2013-06-15 09:32:00,
2013-06-15 03:33:00,50.9,41.1,29.93,WNW,284,0.0,0.0,69,0.00,,SKC,0.00,VWS V14.01,2013-06-15 09:33:00,
2013-06-15 03:34:00,50.9,41.1,29.93,WNW,282,0.0,0.0,69,0.00,,SKC,0.00,VWS V14.01,2013-06-15 09:34:00,
2013-06-15 03:35:00,50.8,41.4,29.93,WNW,290,0.0,0.0,70,0.00,,SKC,0.00,VWS V14.01,2013-06-15 09:35:00,
2013-06-15 03:36:00,50.8,41.4,29.93,WNW,284,0.0,0.0,70,0.00,,SKC,0.00,VWS V14.01,2013-06-15 09:36:00,
2013-06-15 03:37:00,50.7,41.3,29.93,North,360,0.0,0.0,70,0.00,,SKC,0.00,VWS V14.01,2013-06-15 09:37:00,
2013-06-15 03:38:00,50.6,41.2,29.93,WNW,284,0.0,0.0,70,0.00,,SKC,0.00,VWS V14.01,2013-06-15 09:38:00,
2013-06-15 03:39:00,50.6,41.2,29.94,West,281,0.0,0.0,70,0.00,,SKC,0.00,VWS V14.01,2013-06-15 09:39:00,
2013-06-15 03:40:00,50.5,41.1,29.93,WNW,284,0.0,0.0,70,0.00,,SKC,0.00,VWS V14.01,2013-06-15 09:40:00,
2013-06-15 03:41:00,50.4,41.0,29.94,North,360,0.0,0.0,70,0.00,,SKC,0.00,VWS V14.01,2013-06-15 09:41:00,
2013-06-15 03:42:00,50.3,40.9,29.93,WNW,283,0.0,0.0,70,0.00,,SKC,0.00,VWS V14.01,2013-06-15 09:42:00,
2013-06-15 03:43:00,50.3,40.9,29.94,West,281,0.0,0.0,70,0.00,,SKC,0.00,VWS V14.01,2013-06-15 09:43:00,
2013-06-15 03:44:00,50.2,40.8,29.93,WNW,287,0.0,0.0,70,0.00,,SKC,0.00,VWS V14.01,2013-06-15 09:44:00,
2013-06-15 03:45:00,50.1,40.7,29.94,North,360,0.0,0.0,70,0.00,,SKC,0.00,VWS V14.01,2013-06-15 09:45:00,
2013-06-15 03:46:00,50.0,40.6,29.93,West,276,0.0,0.0,70,0.00,,SKC,0.00,VWS V14.01,2013-06-15 09:46:00,
2013-06-15 03:47:00,49.9,40.9,29.93,WNW,286,0.0,1.0,71,0.00,,SKC,0.00,VWS V14.01,2013-06-15 09:47:00,
2013-06-15 03:48:00,49.8,40.8,29.93,WNW,284,0.0,0.0,71,0.00,,SKC,0.00,VWS V14.01,2013-06-15 09:48:00,
2013-06-15 03:49:00,49.7,40.7,29.93,WNW,284,0.0,0.0,71,0.00,,SKC,0.00,VWS V14.01,2013-06-15 09:49:00,
2013-06-15 03:50:00,49.6,40.6,29.93,WNW,284,0.0,0.0,71,0.00,,SKC,0.00,VWS V14.01,2013-06-15 09:50:00,
2013-06-15 03:51:00,49.6,40.6,29.93,WNW,284,0.0,0.0,71,0.00,,SKC,0.00,VWS V14.01,2013-06-15 09:51:00,
2013-06-15 03:52:00,49.5,40.9,29.93,WNW,286,0.0,0.0,72,0.00,,SKC,0.00,VWS V14.01,2013-06-15 09:52:00,
2013-06-15 03:53:00,49.4,40.8,29.93,WNW,283,0.0,0.0,72,0.00,,SKC,0.00,VWS V14.01,2013-06-15 09:53:00,
2013-06-15 03:54:00,49.3,40.7,29.93,WNW,283,0.0,0.0,72,0.00,,SKC,0.00,VWS V14.01,2013-06-15 09:54:00,
2013-06-15 03:55:00,49.2,40.6,29.93,North,360,0.0,0.0,72,0.00,,SKC,0.00,VWS V14.01,2013-06-15 09:55:00,
2013-06-15 03:56:00,49.2,40.6,29.93,North,360,2.0,2.0,72,0.00,,SKC,0.00,VWS V14.01,2013-06-15 09:56:00,
2013-06-15 03:57:00,49.2,40.6,29.93,West,280,0.0,2.0,72,0.00,,SKC,0.00,VWS V14.01,2013-06-15 09:57:00,
2013-06-15 03:58:00,49.1,40.5,29.93,WNW,286,0.0,0.0,72,0.00,,SKC,0.00,VWS V14.01,2013-06-15 09:58:00,
2013-06-15 03:59:00,49.0,40.4,29.93,WNW,283,0.0,0.0,72,0.00,,SKC,0.00,VWS V14.01,2013-06-15 09:59:00,
2013-06-15 04:00:00,48.9,40.3,29.93,WNW,284,0.0,0.0,72,0.00,,SKC,0.00,VWS V14.01,2013-06-15 10:00:00,
2013-06-15 04:01:00,48.8,40.2,29.93,WNW,285,0.0,0.0,72,0.00,,SKC,0.00,VWS V14.01,2013-06-15 10:01:00,
2013-06-15 04:02:00,48.8,40.2,29.93,WNW,284,0.0,0.0,72,0.00,,SKC,0.00,VWS V14.01,2013-06-15 10:02:00,
2013-06-15 04:03:00,48.7,40.1,29.93,West,277,0.0,0.0,72,0.00,,SKC,0.00,VWS V14.01,2013-06-15 10:03:00,
2013-06-15 04:04:00,48.7,40.5,29.93,West,281,0.0,1.0,73,0.00,,SKC,0.00,VWS V14.01,2013-06-15 10:04:00,
2013-06-15 04:05:00,48.6,40.3,29.93,WNW,284,0.0,0.0,73,0.00,,SKC,0.00,VWS V14.01,2013-06-15 10:05:00,
2013-06-15 04:06:00,48.5,40.2,29.94,West,280,0.0,0.0,73,0.00,,SKC,0.00,VWS V14.01,2013-06-15 10:06:00,
2013-06-15 04:07:00,48.5,40.2,29.93,WNW,284,0.0,0.0,73,0.00,,SKC,0.00,VWS V14.01,2013-06-15 10:07:00,
2013-06-15 04:08:00,48.4,40.2,29.93,West,281,0.0,0.0,73,0.00,,SKC,0.00,VWS V14.01,2013-06-15 10:08:00,
2013-06-15 04:09:00,48.4,40.5,29.93,WNW,286,0.0,0.0,74,0.00,,SKC,0.00,VWS V14.01,2013-06-15 10:09:00,
2013-06-15 04:10:00,48.3,40.4,29.94,WNW,286,0.0,0.0,74,0.00,,SKC,0.00,VWS V14.01,2013-06-15 10:10:00,
2013-06-15 04:11:00,48.3,40.4,29.94,WNW,282,0.0,0.0,74,0.00,,SKC,0.00,VWS V14.01,2013-06-15 10:11:00,
2013-06-15 04:12:00,48.3,40.8,29.94,WNW,288,0.0,0.0,75,0.00,,SKC,0.00,VWS V14.01,2013-06-15 10:12:00,
2013-06-15 04:13:00,48.3,40.8,29.94,WNW,283,0.0,0.0,75,0.00,,SKC,0.00,VWS V14.01,2013-06-15 10:13:00,
2013-06-15 04:14:00,48.3,40.8,29.94,West,281,0.0,0.0,75,0.00,,SKC,0.00,VWS V14.01,2013-06-15 10:14:00,
2013-06-15 04:15:00,48.3,40.8,29.94,WNW,284,1.0,1.0,75,0.00,,SKC,0.00,VWS V14.01,2013-06-15 10:15:00,
2013-06-15 04:16:00,48.3,40.8,29.94,WNW,285,0.0,1.0,75,0.00,,SKC,0.00,VWS V14.01,2013-06-15 10:16:00,
2013-06-15 04:17:00,48.3,40.4,29.94,North,360,1.0,2.0,74,0.00,,SKC,0.00,VWS V14.01,2013-06-15 10:17:00,
2013-06-15 04:18:00,48.3,40.4,29.94,WNW,284,3.0,3.0,74,0.00,,SKC,0.00,VWS V14.01,2013-06-15 10:18:00,
2013-06-15 04:19:00,48.2,40.3,29.94,North,360,1.0,3.0,74,0.00,,SKC,0.00,VWS V14.01,2013-06-15 10:19:00,
2013-06-15 04:20:00,48.2,40.3,29.94,West,281,1.0,2.0,74,0.00,,SKC,0.00,VWS V14.01,2013-06-15 10:20:00,
2013-06-15 04:21:00,48.2,40.3,29.94,West,281,2.0,2.0,74,0.00,,SKC,0.00,VWS V14.01,2013-06-15 10:21:00,
2013-06-15 04:22:00,48.1,40.2,29.95,WNW,286,0.0,2.0,74,0.00,,SKC,0.00,VWS V14.01,2013-06-15 10:22:00,
2013-06-15 04:23:00,48.1,40.2,29.95,West,281,0.0,1.0,74,0.00,,SKC,0.00,VWS V14.01,2013-06-15 10:23:00,
2013-06-15 04:24:00,48.1,40.2,29.95,North,360,0.0,0.0,74,0.00,,SKC,0.00,VWS V14.01,2013-06-15 10:24:00,
2013-06-15 04:25:00,48.1,40.2,29.95,North,360,0.0,0.0,74,0.00,,SKC,0.00,VWS V14.01,2013-06-15 10:25:00,
2013-06-15 04:26:00,48.1,40.2,29.95,WNW,287,0.0,0.0,74,0.00,,SKC,0.00,VWS V14.01,2013-06-15 10:26:00,
2013-06-15 04:27:00,48.1,40.2,29.95,West,281,0.0,0.0,74,0.00,,SKC,0.00,VWS V14.01,2013-06-15 10:27:00,
2013-06-15 04:28:00,48.1,40.2,29.95,WNW,284,0.0,0.0,74,0.00,,SKC,0.00,VWS V14.01,2013-06-15 10:28:00,
2013-06-15 04:29:00,48.1,40.2,29.95,West,281,0.0,1.0,74,0.00,,SKC,0.00,VWS V14.01,2013-06-15 10:29:00,
2013-06-15 04:30:00,48.0,40.5,29.95,North,360,0.0,0.0,75,0.00,,SKC,0.00,VWS V14.01,2013-06-15 10:30:00,
2013-06-15 04:31:00,48.0,40.1,29.95,WNW,285,0.0,1.0,74,0.00,,SKC,0.00,VWS V14.01,2013-06-15 10:31:00,
2013-06-15 04:32:00,47.9,40.0,29.95,WNW,284,0.0,0.0,74,0.00,,SKC,0.00,VWS V14.01,2013-06-15 10:32:00,
2013-06-15 04:33:00,47.9,40.0,29.95,North,360,0.0,0.0,74,0.00,,SKC,0.00,VWS V14.01,2013-06-15 10:33:00,
2013-06-15 04:34:00,47.8,39.9,29.95,WNW,286,0.0,0.0,74,0.00,,SKC,0.00,VWS V14.01,2013-06-15 10:34:00,
2013-06-15 04:35:00,47.8,39.9,29.95,North,360,0.0,0.0,74,0.00,,SKC,0.00,VWS V14.01,2013-06-15 10:35:00,
2013-06-15 04:36:00,47.7,40.2,29.95,WNW,287,0.0,0.0,75,0.00,,SKC,0.00,VWS V14.01,2013-06-15 10:36:00,
2013-06-15 04:37:00,47.7,40.2,29.96,West,281,0.0,0.0,75,0.00,,SKC,0.00,VWS V14.01,2013-06-15 10:37:00,
2013-06-15 04:38:00,47.7,40.2,29.96,WNW,282,0.0,0.0,75,0.00,,SKC,0.00,VWS V14.01,2013-06-15 10:38:00,
2013-06-15 04:39:00,47.7,40.5,29.95,WNW,282,0.0,0.0,76,0.00,,SKC,0.00,VWS V14.01,2013-06-15 10:39:00,
2013-06-15 04:40:00,47.7,40.5,29.96,WNW,286,0.0,0.0,76,0.00,,SKC,0.00,VWS V14.01,2013-06-15 10:40:00,
2013-06-15 04:41:00,47.7,40.5,29.96,WNW,282,0.0,0.0,76,0.00,,SKC,0.00,VWS V14.01,2013-06-15 10:41:00,
2013-06-15 04:42:00,47.8,40.6,29.96,WNW,284,0.0,0.0,76,0.00,,SKC,0.00,VWS V14.01,2013-06-15 10:42:00,
2013-06-15 04:43:00,47.8,40.6,29.96,WNW,284,3.0,3.0,76,0.00,,SKC,0.00,VWS V14.01,2013-06-15 10:43:00,
2013-06-15 04:44:00,47.8,40.6,29.96,WNW,284,2.0,3.0,76,0.00,,SKC,0.00,VWS V14.01,2013-06-15 10:44:00,
2013-06-15 04:45:00,47.8,40.6,29.96,WNW,285,3.0,3.0,76,0.00,,SKC,0.00,VWS V14.01,2013-06-15 10:45:00,
2013-06-15 04:46:00,47.9,40.7,29.96,WNW,285,1.0,3.0,76,0.00,,SKC,0.00,VWS V14.01,2013-06-15 10:46:00,
2013-06-15 04:47:00,47.9,40.7,29.96,West,281,0.0,2.0,76,0.00,,SKC,0.00,VWS V14.01,2013-06-15 10:47:00,
2013-06-15 04:48:00,47.9,40.7,29.96,WNW,284,0.0,0.0,76,0.00,,SKC,0.00,VWS V14.01,2013-06-15 10:48:00,
2013-06-15 04:49:00,48.0,40.8,29.96,West,279,0.0,1.0,76,0.00,,SKC,0.00,VWS V14.01,2013-06-15 10:49:00,
2013-06-15 04:50:00,48.0,40.5,29.96,WNW,288,1.0,3.0,75,0.00,,SKC,0.00,VWS V14.01,2013-06-15 10:50:00,
2013-06-15 04:51:00,47.9,40.4,29.96,WNW,283,0.0,3.0,75,0.00,,SKC,0.00,VWS V14.01,2013-06-15 10:51:00,
2013-06-15 04:52:00,47.9,40.4,29.96,West,281,0.0,1.0,75,0.00,,SKC,0.00,VWS V14.01,2013-06-15 10:52:00,
2013-06-15 04:53:00,47.9,40.4,29.96,WNW,283,1.0,1.0,75,0.00,,SKC,0.00,VWS V14.01,2013-06-15 10:53:00,
2013-06-15 04:54:00,47.9,40.4,29.97,WNW,287,0.0,1.0,75,0.00,,SKC,0.00,VWS V14.01,2013-06-15 10:54:00,
2013-06-15 04:55:00,47.9,40.4,29.96,West,280,0.0,1.0,75,0.00,,SKC,0.00,VWS V14.01,2013-06-15 10:55:00,
2013-06-15 04:56:00,47.8,40.3,29.96,North,360,0.0,0.0,75,0.00,,SKC,0.00,VWS V14.01,2013-06-15 10:56:00,
2013-06-15 04:57:00,47.8,40.3,29.96,WNW,284,0.0,0.0,75,0.00,,SKC,0.00,VWS V14.01,2013-06-15 10:57:00,
2013-06-15 04:58:00,47.8,40.3,29.96,WNW,286,0.0,0.0,75,0.00,,SKC,0.00,VWS V14.01,2013-06-15 10:58:00,
2013-06-15 04:59:00,47.8,40.3,29.96,West,281,0.0,0.0,75,0.00,,SKC,0.00,VWS V14.01,2013-06-15 10:59:00,
2013-06-15 05:00:00,47.7,40.5,29.96,WNW,286,0.0,0.0,76,0.00,,SKC,0.00,VWS V14.01,2013-06-15 11:00:00,
2013-06-15 05:01:00,47.7,40.5,29.96,WNW,284,0.0,0.0,76,0.00,,SKC,0.00,VWS V14.01,2013-06-15 11:01:00,
2013-06-15 05:02:00,47.6,40.4,29.97,WNW,287,0.0,0.0,76,0.00,,SKC,0.00,VWS V14.01,2013-06-15 11:02:00,
2013-06-15 05:03:00,47.6,40.4,29.97,West,280,0.0,1.0,76,0.00,,SKC,0.00,VWS V14.01,2013-06-15 11:03:00,
2013-06-15 05:04:00,47.6,40.1,29.97,WNW,282,0.0,1.0,75,0.00,,SKC,0.00,VWS V14.01,2013-06-15 11:04:00,
2013-06-15 05:05:00,47.6,40.1,29.97,WNW,284,0.0,1.0,75,0.00,,SKC,0.00,VWS V14.01,2013-06-15 11:05:00,
2013-06-15 05:06:00,47.5,40.0,29.97,WNW,284,0.0,1.0,75,0.00,,SKC,0.00,VWS V14.01,2013-06-15 11:06:00,
2013-06-15 05:07:00,47.4,39.9,29.97,WNW,282,0.0,0.0,75,0.00,,SKC,0.00,VWS V14.01,2013-06-15 11:07:00,
2013-06-15 05:08:00,47.4,39.9,29.97,WNW,283,0.0,0.0,75,0.00,,SKC,0.00,VWS V14.01,2013-06-15 11:08:00,
2013-06-15 05:09:00,47.3,39.8,29.97,WNW,286,0.0,0.0,75,0.00,,SKC,0.00,VWS V14.01,2013-06-15 11:09:00,
2013-06-15 05:10:00,47.3,40.1,29.97,WNW,282,0.0,0.0,76,0.00,,SKC,0.00,VWS V14.01,2013-06-15 11:10:00,
2013-06-15 05:11:00,47.2,40.0,29.97,WNW,286,0.0,0.0,76,0.00,,SKC,0.00,VWS V14.01,2013-06-15 11:11:00,
2013-06-15 05:12:00,47.2,40.0,29.98,WNW,282,0.0,0.0,76,0.00,,SKC,0.00,VWS V14.01,2013-06-15 11:12:00,
2013-06-15 05:13:00,47.1,39.9,29.97,WNW,286,0.0,0.0,76,0.00,,SKC,0.00,VWS V14.01,2013-06-15 11:13:00,
2013-06-15 05:14:00,47.1,39.9,29.98,North,360,0.0,0.0,76,0.00,,SKC,0.00,VWS V14.01,2013-06-15 11:14:00,
2013-06-15 05:15:00,47.0,40.2,29.98,WNW,285,0.0,0.0,77,0.00,,SKC,0.00,VWS V14.01,2013-06-15 11:15:00,
2013-06-15 05:16:00,47.0,40.2,29.98,WNW,286,0.0,0.0,77,0.00,,SKC,0.00,VWS V14.01,2013-06-15 11:16:00,
2013-06-15 05:17:00,47.0,40.2,29.98,WNW,282,0.0,0.0,77,0.00,,SKC,0.00,VWS V14.01,2013-06-15 11:17:00,
2013-06-15 05:18:00,47.0,40.2,29.98,WNW,283,0.0,0.0,77,0.00,,SKC,0.00,VWS V14.01,2013-06-15 11:18:00,
2013-06-15 05:19:00,47.0,40.5,29.98,North,360,0.0,0.0,78,0.00,,SKC,0.00,VWS V14.01,2013-06-15 11:19:00,
2013-06-15 05:20:00,47.0,40.5,29.98,West,281,0.0,0.0,78,0.00,,SKC,0.00,VWS V14.01,2013-06-15 11:20:00,
2013-06-15 05:21:00,47.1,40.6,29.98,WNW,282,0.0,0.0,78,0.00,,SKC,0.00,VWS V14.01,2013-06-15 11:21:00,
2013-06-15 05:22:00,47.1,40.6,29.98,WNW,284,0.0,0.0,78,0.00,,SKC,0.00,VWS V14.01,2013-06-15 11:22:00,
2013-06-15 05:23:00,47.1,40.6,29.98,WNW,283,0.0,0.0,78,0.00,,SKC,0.00,VWS V14.01,2013-06-15 11:23:00,
2013-06-15 05:24:00,47.1,40.3,29.98,WNW,284,0.0,0.0,77,0.00,,SKC,0.00,VWS V14.01,2013-06-15 11:24:00,
2013-06-15 05:25:00,47.1,40.3,29.98,WNW,285,0.0,1.0,77,0.00,,SKC,0.00,VWS V14.01,2013-06-15 11:25:00,
2013-06-15 05:26:00,47.1,40.3,29.98,WNW,284,0.0,1.0,77,0.00,,SKC,0.00,VWS V14.01,2013-06-15 11:26:00,
2013-06-15 05:27:00,47.1,40.3,29.98,WNW,287,1.0,1.0,77,0.00,,SKC,0.00,VWS V14.01,2013-06-15 11:27:00,
2013-06-15 05:28:00,47.0,40.2,29.98,WNW,285,3.0,3.0,77,0.00,,SKC,0.00,VWS V14.01,2013-06-15 11:28:00,
2013-06-15 05:29:00,47.0,40.2,29.98,North,360,1.0,3.0,77,0.00,,SKC,0.00,VWS V14.01,2013-06-15 11:29:00,
2013-06-15 05:30:00,47.1,40.3,29.99,WNW,287,1.0,1.0,77,0.00,,SKC,0.00,VWS V14.01,2013-06-15 11:30:00,
2013-06-15 05:31:00,47.1,40.6,29.98,WNW,287,1.0,1.0,78,0.00,,SKC,0.00,VWS V14.01,2013-06-15 11:31:00,
2013-06-15 05:32:00,47.1,40.6,29.98,West,281,1.0,1.0,78,0.00,,SKC,0.00,VWS V14.01,2013-06-15 11:32:00,
2013-06-15 05:33:00,47.1,40.3,29.98,WNW,282,1.0,2.0,77,0.00,,SKC,0.00,VWS V14.01,2013-06-15 11:33:00,
2013-06-15 05:34:00,47.1,40.3,29.98,WNW,284,0.0,2.0,77,0.00,,SKC,0.00,VWS V14.01,2013-06-15 11:34:00,
2013-06-15 05:35:00,47.0,40.2,29.98,WNW,284,0.0,0.0,77,0.00,,SKC,0.00,VWS V14.01,2013-06-15 11:35:00,
2013-06-15 05:36:00,47.0,40.2,29.98,WNW,286,0.0,0.0,77,0.00,,SKC,0.00,VWS V14.01,2013-06-15 11:36:00,
2013-06-15 05:37:00,47.0,40.5,29.98,WNW,286,0.0,0.0,78,0.00,,SKC,0.00,VWS V14.01,2013-06-15 11:37:00,
2013-06-15 05:38:00,47.0,40.5,29.98,West,280,0.0,0.0,78,0.00,,SKC,0.00,VWS V14.01,2013-06-15 11:38:00,
2013-06-15 05:39:00,47.0,40.2,29.98,WNW,285,0.0,0.0,77,0.00,,SKC,0.00,VWS V14.01,2013-06-15 11:39:00,
2013-06-15 05:40:00,46.9,40.1,29.99,WNW,286,0.0,0.0,77,0.00,,SKC,0.00,VWS V14.01,2013-06-15 11:40:00,
2013-06-15 05:41:00,46.9,40.1,29.99,West,280,0.0,0.0,77,0.00,,SKC,0.00,VWS V14.01,2013-06-15 11:41:00,
2013-06-15 05:42:00,46.9,40.1,29.99,WNW,286,0.0,0.0,77,0.00,,SKC,0.00,VWS V14.01,2013-06-15 11:42:00,
2013-06-15 05:43:00,46.8,40.0,29.99,West,281,0.0,0.0,77,0.00,,SKC,0.00,VWS V14.01,2013-06-15 11:43:00,
2013-06-15 05:44:00,46.8,40.3,29.99,WNW,283,0.0,0.0,78,0.00,,SKC,0.00,VWS V14.01,2013-06-15 11:44:00,
2013-06-15 05:45:00,46.7,40.2,29.99,West,281,0.0,0.0,78,0.00,,SKC,0.00,VWS V14.01,2013-06-15 11:45:00,
2013-06-15 05:46:00,46.7,40.2,29.99,WNW,283,0.0,0.0,78,0.00,,SKC,0.00,VWS V14.01,2013-06-15 11:46:00,
2013-06-15 05:47:00,46.7,40.2,29.99,WNW,286,0.0,0.0,78,0.00,,SKC,0.00,VWS V14.01,2013-06-15 11:47:00,
2013-06-15 05:48:00,46.7,40.2,29.99,WNW,284,0.0,0.0,78,0.00,,SKC,0.00,VWS V14.01,2013-06-15 11:48:00,
2013-06-15 05:49:00,46.7,39.9,29.99,North,360,0.0,0.0,77,0.00,,SKC,0.00,VWS V14.01,2013-06-15 11:49:00,
2013-06-15 05:50:00,46.6,40.1,29.99,West,280,0.0,0.0,78,0.00,,SKC,0.00,VWS V14.01,2013-06-15 11:50:00,
2013-06-15 05:51:00,46.6,40.1,29.99,WNW,282,0.0,0.0,78,0.00,,SKC,0.00,VWS V14.01,2013-06-15 11:51:00,
2013-06-15 05:52:00,46.5,40.0,29.99,West,281,0.0,0.0,78,0.00,,SKC,0.00,VWS V14.01,2013-06-15 11:52:00,
2013-06-15 05:53:00,46.5,40.0,29.99,North,360,0.0,3.0,78,0.00,,SKC,0.00,VWS V14.01,2013-06-15 11:53:00,
2013-06-15 05:54:00,46.5,40.0,29.99,West,281,0.0,1.0,78,0.00,,SKC,0.00,VWS V14.01,2013-06-15 11:54:00,
2013-06-15 05:55:00,46.5,40.0,29.99,WNW,285,0.0,1.0,78,0.00,,SKC,0.00,VWS V14.01,2013-06-15 11:55:00,
2013-06-15 05:56:00,46.5,40.0,29.99,WNW,282,0.0,0.0,78,0.00,,SKC,0.00,VWS V14.01,2013-06-15 11:56:00,
2013-06-15 05:57:00,46.5,40.0,29.99,West,281,0.0,0.0,78,0.00,,SKC,0.00,VWS V14.01,2013-06-15 11:57:00,
2013-06-15 05:58:00,46.5,40.0,29.99,WNW,283,0.0,0.0,78,0.00,,SKC,0.00,VWS V14.01,2013-06-15 11:58:00,
2013-06-15 05:59:00,46.5,40.0,29.99,WNW,284,0.0,0.0,78,0.00,,SKC,0.00,VWS V14.01,2013-06-15 11:59:00,
2013-06-15 06:00:00,46.4,39.9,29.99,WNW,285,0.0,0.0,78,0.00,,SKC,0.00,VWS V14.01,2013-06-15 12:00:00,
2013-06-15 06:01:00,46.4,39.9,29.99,WNW,284,0.0,0.0,78,0.00,,SKC,0.00,VWS V14.01,2013-06-15 12:01:00,
2013-06-15 06:02:00,46.4,39.9,29.99,North,360,0.0,0.0,78,0.00,,SKC,0.00,VWS V14.01,2013-06-15 12:02:00,
2013-06-15 06:03:00,46.4,39.9,29.99,WNW,282,0.0,0.0,78,0.00,,SKC,0.00,VWS V14.01,2013-06-15 12:03:00,
2013-06-15 06:04:00,46.3,39.8,29.99,North,360,0.0,0.0,78,0.00,,SKC,0.00,VWS V14.01,2013-06-15 12:04:00,
2013-06-15 06:05:00,46.3,39.8,29.99,North,360,0.0,0.0,78,0.00,,SKC,0.00,VWS V14.01,2013-06-15 12:05:00,
2013-06-15 06:06:00,46.3,39.8,29.99,WNW,285,0.0,0.0,78,0.00,,SKC,0.00,VWS V14.01,2013-06-15 12:06:00,
2013-06-15 06:07:00,46.3,39.8,29.99,WNW,284,0.0,0.0,78,0.00,,SKC,0.00,VWS V14.01,2013-06-15 12:07:00,
2013-06-15 06:08:00,46.2,39.7,29.99,North,360,0.0,0.0,78,0.00,,SKC,0.00,VWS V14.01,2013-06-15 12:08:00,
2013-06-15 06:09:00,46.2,40.1,30.00,WNW,286,0.0,0.0,79,0.00,,SKC,0.00,VWS V14.01,2013-06-15 12:09:00,
2013-06-15 06:10:00,46.2,40.1,30.00,WNW,283,0.0,0.0,79,0.00,,SKC,0.00,VWS V14.01,2013-06-15 12:10:00,
2013-06-15 06:11:00,46.3,40.2,30.00,WNW,285,0.0,0.0,79,0.00,,SKC,0.00,VWS V14.01,2013-06-15 12:11:00,
2013-06-15 06:12:00,46.3,40.5,29.99,North,360,0.0,0.0,80,0.00,,SKC,0.00,VWS V14.01,2013-06-15 12:12:00,
2013-06-15 06:13:00,46.3,40.5,30.00,West,279,0.0,0.0,80,0.00,,SKC,0.00,VWS V14.01,2013-06-15 12:13:00,
2013-06-15 06:14:00,46.4,40.6,30.00,North,360,0.0,1.0,80,0.00,,SKC,0.00,VWS V14.01,2013-06-15 12:14:00,
2013-06-15 06:15:00,46.5,40.7,30.00,North,360,0.0,1.0,80,0.00,,SKC,0.00,VWS V14.01,2013-06-15 12:15:00,
2013-06-15 06:16:00,46.5,40.3,30.00,WNW,287,0.0,0.0,79,0.00,,SKC,0.00,VWS V14.01,2013-06-15 12:16:00,
2013-06-15 06:17:00,46.5,40.3,30.00,North,360,0.0,0.0,79,0.00,,SKC,0.00,VWS V14.01,2013-06-15 12:17:00,
2013-06-15 06:18:00,46.6,40.5,29.99,WNW,286,0.0,0.0,79,0.00,,SKC,0.00,VWS V14.01,2013-06-15 12:18:00,
2013-06-15 06:19:00,46.6,40.5,30.00,WNW,284,0.0,0.0,79,0.00,,SKC,0.00,VWS V14.01,2013-06-15 12:19:00,
2013-06-15 06:20:00,46.6,40.5,29.99,North,360,0.0,0.0,79,0.00,,SKC,0.00,VWS V14.01,2013-06-15 12:20:00,
2013-06-15 06:21:00,46.6,40.5,29.99,WNW,285,0.0,0.0,79,0.00,,SKC,0.00,VWS V14.01,2013-06-15 12:21:00,
2013-06-15 06:22:00,46.6,40.5,30.00,WNW,284,0.0,0.0,79,0.00,,SKC,0.00,VWS V14.01,2013-06-15 12:22:00,
2013-06-15 06:23:00,46.6,40.5,30.00,WNW,283,0.0,0.0,79,0.00,,SKC,0.00,VWS V14.01,2013-06-15 12:23:00,
2013-06-15 06:24:00,46.6,40.5,30.00,North,360,0.0,0.0,79,0.00,,SKC,0.00,VWS V14.01,2013-06-15 12:24:00,
2013-06-15 06:25:00,46.6,40.5,30.00,WNW,284,0.0,0.0,79,0.00,,SKC,0.00,VWS V14.01,2013-06-15 12:25:00,
2013-06-15 06:26:00,46.6,40.5,30.00,WNW,284,0.0,0.0,79,0.00,,SKC,0.00,VWS V14.01,2013-06-15 12:26:00,
2013-06-15 06:27:00,46.7,40.5,30.00,WNW,284,0.0,1.0,79,0.00,,SKC,0.00,VWS V14.01,2013-06-15 12:27:00,
2013-06-15 06:28:00,46.7,40.5,30.00,WNW,287,0.0,0.0,79,0.00,,SKC,0.00,VWS V14.01,2013-06-15 12:28:00,
2013-06-15 06:29:00,46.7,40.5,30.00,WNW,285,0.0,0.0,79,0.00,,SKC,0.00,VWS V14.01,2013-06-15 12:29:00,
2013-06-15 06:30:00,46.7,40.5,30.00,West,279,0.0,0.0,79,0.00,,SKC,0.00,VWS V14.01,2013-06-15 12:30:00,
2013-06-15 06:31:00,46.7,40.5,30.00,North,360,0.0,0.0,79,0.00,,SKC,0.00,VWS V14.01,2013-06-15 12:31:00,
2013-06-15 06:32:00,46.7,40.5,30.00,WNW,287,0.0,0.0,79,0.00,,SKC,0.00,VWS V14.01,2013-06-15 12:32:00,
2013-06-15 06:33:00,46.7,40.5,30.00,WNW,284,0.0,0.0,79,0.00,,SKC,0.00,VWS V14.01,2013-06-15 12:33:00,
2013-06-15 06:34:00,46.7,40.5,30.00,WNW,284,0.0,0.0,79,0.00,,SKC,0.00,VWS V14.01,2013-06-15 12:34:00,
2013-06-15 06:35:00,46.7,40.5,30.00,WNW,286,0.0,0.0,79,0.00,,SKC,0.00,VWS V14.01,2013-06-15 12:35:00,
2013-06-15 06:36:00,46.7,40.5,30.00,West,281,0.0,0.0,79,0.00,,SKC,0.00,VWS V14.01,2013-06-15 12:36:00,
2013-06-15 06:37:00,46.8,40.6,30.00,WNW,286,0.0,0.0,79,0.00,,SKC,0.00,VWS V14.01,2013-06-15 12:37:00,
2013-06-15 06:38:00,46.8,41.0,30.00,WNW,284,0.0,0.0,80,0.00,,SKC,0.00,VWS V14.01,2013-06-15 12:38:00,
2013-06-15 06:39:00,46.9,41.1,30.00,WNW,284,0.0,1.0,80,0.00,,SKC,0.00,VWS V14.01,2013-06-15 12:39:00,
2013-06-15 06:40:00,47.0,41.2,30.00,WNW,284,1.0,1.0,80,0.00,,SKC,0.00,VWS V14.01,2013-06-15 12:40:00,
2013-06-15 06:41:00,47.0,41.2,30.00,WNW,285,2.0,4.0,80,0.00,,SKC,0.00,VWS V14.01,2013-06-15 12:41:00,
2013-06-15 06:42:00,47.2,41.3,30.00,WNW,284,2.0,3.0,80,0.00,,SKC,0.00,VWS V14.01,2013-06-15 12:42:00,
2013-06-15 06:43:00,47.2,41.3,30.00,WNW,285,2.0,3.0,80,0.00,,SKC,0.00,VWS V14.01,2013-06-15 12:43:00,
2013-06-15 06:44:00,47.3,41.1,30.00,WNW,288,0.0,4.0,79,0.00,,SKC,0.00,VWS V14.01,2013-06-15 12:44:00,
2013-06-15 06:45:00,47.4,41.2,30.00,WNW,289,2.0,3.0,79,0.00,,SKC,0.00,VWS V14.01,2013-06-15 12:45:00,
2013-06-15 06:46:00,47.5,41.3,30.00,WNW,290,0.0,2.0,79,0.00,,SKC,0.00,VWS V14.01,2013-06-15 12:46:00,
2013-06-15 06:47:00,47.6,41.4,30.00,WNW,290,1.0,2.0,79,0.00,,SKC,0.00,VWS V14.01,2013-06-15 12:47:00,
2013-06-15 06:48:00,47.7,41.5,30.00,WNW,289,0.0,1.0,79,0.00,,SKC,0.00,VWS V14.01,2013-06-15 12:48:00,
2013-06-15 06:49:00,47.8,41.6,30.00,WNW,292,0.0,1.0,79,0.00,,SKC,0.00,VWS V14.01,2013-06-15 12:49:00,
2013-06-15 06:50:00,47.9,41.7,30.00,WNW,289,0.0,1.0,79,0.00,,SKC,0.00,VWS V14.01,2013-06-15 12:50:00,
2013-06-15 06:51:00,48.1,41.9,30.00,WNW,287,0.0,1.0,79,0.00,,SKC,0.00,VWS V14.01,2013-06-15 12:51:00,
2013-06-15 06:52:00,48.2,42.0,30.00,WNW,290,0.0,0.0,79,0.00,,SKC,0.00,VWS V14.01,2013-06-15 12:52:00,
2013-06-15 06:53:00,48.3,42.4,30.00,WNW,291,0.0,0.0,80,0.00,,SKC,0.00,VWS V14.01,2013-06-15 12:53:00,
2013-06-15 06:54:00,48.5,42.3,30.01,WNW,288,0.0,0.0,79,0.00,,SKC,0.00,VWS V14.01,2013-06-15 12:54:00,
2013-06-15 06:55:00,48.7,42.2,30.00,WNW,288,0.0,1.0,78,0.00,,SKC,0.00,VWS V14.01,2013-06-15 12:55:00,
2013-06-15 06:56:00,48.8,42.3,30.00,WNW,285,1.0,1.0,78,0.00,,SKC,0.00,VWS V14.01,2013-06-15 12:56:00,
2013-06-15 06:57:00,49.0,42.1,30.00,WNW,292,3.0,3.0,77,0.00,,SKC,0.00,VWS V14.01,2013-06-15 12:57:00,
2013-06-15 06:58:00,49.2,42.3,30.01,WNW,288,2.0,3.0,77,0.00,,SKC,0.00,VWS V14.01,2013-06-15 12:58:00,
2013-06-15 06:59:00,49.3,42.4,30.01,North,360,2.0,3.0,77,0.00,,SKC,0.00,VWS V14.01,2013-06-15 12:59:00,
2013-06-15 07:00:00,49.5,42.3,30.00,WNW,290,0.0,2.0,76,0.00,,SKC,0.00,VWS V14.01,2013-06-15 13:00:00,
2013-06-15 07:01:00,49.6,42.4,30.00,WNW,290,0.0,0.0,76,0.00,,SKC,0.00,VWS V14.01,2013-06-15 13:01:00,
2013-06-15 07:02:00,49.7,42.1,30.00,WNW,290,0.0,1.0,75,0.00,,SKC,0.00,VWS V14.01,2013-06-15 13:02:00,
2013-06-15 07:03:00,49.9,42.3,30.00,WNW,294,0.0,0.0,75,0.00,,SKC,0.00,VWS V14.01,2013-06-15 13:03:00,
2013-06-15 07:04:00,50.0,42.4,30.00,WNW,289,0.0,0.0,75,0.00,,SKC,0.00,VWS V14.01,2013-06-15 13:04:00,
2013-06-15 07:05:00,50.2,42.6,30.00,WNW,290,0.0,1.0,75,0.00,,SKC,0.00,VWS V14.01,2013-06-15 13:05:00,
2013-06-15 07:06:00,50.3,42.7,30.00,North,360,0.0,0.0,75,0.00,,SKC,0.00,VWS V14.01,2013-06-15 13:06:00,
2013-06-15 07:07:00,50.5,42.5,30.00,WNW,286,0.0,0.0,74,0.00,,SKC,0.00,VWS V14.01,2013-06-15 13:07:00,
2013-06-15 07:08:00,50.6,42.3,30.00,WNW,288,0.0,0.0,73,0.00,,SKC,0.00,VWS V14.01,2013-06-15 13:08:00,
2013-06-15 07:09:00,50.8,42.8,30.00,WNW,286,0.0,0.0,74,0.00,,SKC,0.00,VWS V14.01,2013-06-15 13:09:00,
2013-06-15 07:10:00,50.9,42.9,30.00,WNW,290,0.0,0.0,74,0.00,,SKC,0.00,VWS V14.01,2013-06-15 13:10:00,
2013-06-15 07:11:00,51.1,43.1,30.00,WNW,292,0.0,0.0,74,0.00,,SKC,0.00,VWS V14.01,2013-06-15 13:11:00,
2013-06-15 07:12:00,51.2,43.2,30.00,WNW,290,0.0,0.0,74,0.00,,SKC,0.00,VWS V14.01,2013-06-15 13:12:00,
2013-06-15 07:13:00,51.3,43.3,30.00,WNW,287,0.0,0.0,74,0.00,,SKC,0.00,VWS V14.01,2013-06-15 13:13:00,
2013-06-15 07:14:00,51.5,43.5,30.00,WNW,288,0.0,0.0,74,0.00,,SKC,0.00,VWS V14.01,2013-06-15 13:14:00,
2013-06-15 07:15:00,51.5,43.1,30.01,WNW,292,0.0,0.0,73,0.00,,SKC,0.00,VWS V14.01,2013-06-15 13:15:00,
2013-06-15 07:16:00,51.6,43.2,30.00,WNW,295,0.0,0.0,73,0.00,,SKC,0.00,VWS V14.01,2013-06-15 13:16:00,
2013-06-15 07:17:00,51.7,43.7,30.00,WNW,290,0.0,0.0,74,0.00,,SKC,0.00,VWS V14.01,2013-06-15 13:17:00,
2013-06-15 07:18:00,51.8,44.5,30.00,WNW,292,0.0,0.0,76,0.00,,SKC,0.00,VWS V14.01,2013-06-15 13:18:00,
2013-06-15 07:19:00,51.9,43.9,30.00,WNW,292,0.0,0.0,74,0.00,,SKC,0.00,VWS V14.01,2013-06-15 13:19:00,
2013-06-15 07:20:00,52.0,44.0,30.00,WNW,291,0.0,0.0,74,0.00,,SKC,0.00,VWS V14.01,2013-06-15 13:20:00,
2013-06-15 07:21:00,52.1,44.1,30.00,WNW,291,0.0,0.0,74,0.00,,SKC,0.00,VWS V14.01,2013-06-15 13:21:00,
2013-06-15 07:22:00,52.2,43.5,30.01,WNW,290,0.0,0.0,72,0.00,,SKC,0.00,VWS V14.01,2013-06-15 13:22:00,
2013-06-15 07:23:00,52.3,43.5,30.01,WNW,289,0.0,0.0,72,0.00,,SKC,0.00,VWS V14.01,2013-06-15 13:23:00,
2013-06-15 07:24:00,52.4,43.7,30.01,North,360,0.0,0.0,72,0.00,,SKC,0.00,VWS V14.01,2013-06-15 13:24:00,
2013-06-15 07:25:00,52.5,43.8,30.01,WNW,294,0.0,1.0,72,0.00,,SKC,0.00,VWS V14.01,2013-06-15 13:25:00,
2013-06-15 07:26:00,52.6,43.8,30.01,WNW,289,0.0,0.0,72,0.00,,SKC,0.00,VWS V14.01,2013-06-15 13:26:00,
2013-06-15 07:27:00,52.7,43.9,30.01,WNW,284,0.0,0.0,72,0.00,,SKC,0.00,VWS V14.01,2013-06-15 13:27:00,
2013-06-15 07:28:00,52.8,43.7,30.01,WNW,290,0.0,0.0,71,0.00,,SKC,0.00,VWS V14.01,2013-06-15 13:28:00,
2013-06-15 07:29:00,52.9,43.8,30.01,WNW,288,0.0,0.0,71,0.00,,SKC,0.00,VWS V14.01,2013-06-15 13:29:00,
2013-06-15 07:30:00,53.0,44.2,30.01,WNW,291,0.0,0.0,72,0.00,,SKC,0.00,VWS V14.01,2013-06-15 13:30:00,
2013-06-15 07:31:00,53.1,44.0,30.01,WNW,290,0.0,0.0,71,0.00,,SKC,0.00,VWS V14.01,2013-06-15 13:31:00,
2013-06-15 07:32:00,53.2,44.0,30.01,WNW,296,0.0,1.0,71,0.00,,SKC,0.00,VWS V14.01,2013-06-15 13:32:00,
2013-06-15 07:33:00,53.3,44.2,30.01,WNW,288,0.0,1.0,71,0.00,,SKC,0.00,VWS V14.01,2013-06-15 13:33:00,
2013-06-15 07:34:00,53.4,44.2,30.01,WNW,292,0.0,1.0,71,0.00,,SKC,0.00,VWS V14.01,2013-06-15 13:34:00,
2013-06-15 07:35:00,53.4,44.2,30.01,WNW,289,0.0,0.0,71,0.00,,SKC,0.00,VWS V14.01,2013-06-15 13:35:00,
2013-06-15 07:36:00,53.5,44.0,30.01,WNW,290,0.0,1.0,70,0.00,,SKC,0.00,VWS V14.01,2013-06-15 13:36:00,
2013-06-15 07:37:00,53.6,44.1,30.01,WNW,294,1.0,1.0,70,0.00,,SKC,0.00,VWS V14.01,2013-06-15 13:37:00,
2013-06-15 07:38:00,53.7,44.2,30.01,WNW,295,0.0,1.0,70,0.00,,SKC,0.00,VWS V14.01,2013-06-15 13:38:00,
2013-06-15 07:39:00,53.8,44.3,30.01,WNW,292,0.0,0.0,70,0.00,,SKC,0.00,VWS V14.01,2013-06-15 13:39:00,
2013-06-15 07:40:00,53.9,44.3,30.01,WNW,296,1.0,1.0,70,0.00,,SKC,0.00,VWS V14.01,2013-06-15 13:40:00,
2013-06-15 07:41:00,54.0,44.5,30.02,WNW,294,0.0,1.0,70,0.00,,SKC,0.00,VWS V14.01,2013-06-15 13:41:00,
2013-06-15 07:42:00,54.1,44.2,30.01,WNW,296,2.0,2.0,69,0.00,,SKC,0.00,VWS V14.01,2013-06-15 13:42:00,
2013-06-15 07:43:00,54.2,44.3,30.01,North,360,3.0,3.0,69,0.00,,SKC,0.00,VWS V14.01,2013-06-15 13:43:00,
2013-06-15 07:44:00,54.3,44.4,30.01,North,5,2.0,3.0,69,0.00,,SKC,0.00,VWS V14.01,2013-06-15 13:44:00,
2013-06-15 07:45:00,54.5,44.5,30.01,North,5,2.0,3.0,69,0.00,,SKC,0.00,VWS V14.01,2013-06-15 13:45:00,
2013-06-15 07:46:00,54.6,44.7,30.01,North,5,0.0,2.0,69,0.00,,SKC,0.00,VWS V14.01,2013-06-15 13:46:00,
2013-06-15 07:47:00,54.8,44.8,30.01,North,9,2.0,3.0,69,0.00,,SKC,0.00,VWS V14.01,2013-06-15 13:47:00,
2013-06-15 07:48:00,54.9,45.3,30.01,North,11,2.0,3.0,70,0.00,,SKC,0.00,VWS V14.01,2013-06-15 13:48:00,
2013-06-15 07:49:00,55.1,45.5,30.01,North,9,2.0,3.0,70,0.00,,SKC,0.00,VWS V14.01,2013-06-15 13:49:00,
2013-06-15 07:50:00,55.3,45.3,30.01,NNE,28,3.0,4.0,69,0.00,,SKC,0.00,VWS V14.01,2013-06-15 13:50:00,
2013-06-15 07:51:00,55.4,45.0,30.01,NNE,27,3.0,3.0,68,0.00,,SKC,0.00,VWS V14.01,2013-06-15 13:51:00,
2013-06-15 07:52:00,55.6,44.4,30.01,NNE,32,3.0,3.0,66,0.00,,SKC,0.00,VWS V14.01,2013-06-15 13:52:00,
2013-06-15 07:53:00,55.7,44.5,30.01,NE,43,3.0,4.0,66,0.00,,SKC,0.00,VWS V14.01,2013-06-15 13:53:00,
2013-06-15 07:55:00,56.0,45.2,30.01,East,97,4.0,5.0,67,0.00,,SKC,0.00,VWS V14.01,2013-06-15 13:55:00,
2013-06-15 07:56:00,56.1,45.3,30.01,East,96,3.0,4.0,67,0.00,,SKC,0.00,VWS V14.01,2013-06-15 13:56:00,
2013-06-15 07:57:00,56.2,45.0,30.01,East,96,2.0,3.0,66,0.00,,SKC,0.00,VWS V14.01,2013-06-15 13:57:00,
2013-06-15 07:58:00,56.4,45.2,30.01,ESE,107,3.0,5.0,66,0.00,,SKC,0.00,VWS V14.01,2013-06-15 13:58:00,
2013-06-15 07:59:00,56.6,45.4,30.02,ESE,107,4.0,4.0,66,0.00,,SKC,0.00,VWS V14.01,2013-06-15 13:59:00,
2013-06-15 08:00:00,56.8,45.2,30.01,ESE,109,3.0,5.0,65,0.00,,SKC,0.00,VWS V14.01,2013-06-15 14:00:00,
2013-06-15 08:01:00,56.9,44.9,30.02,ESE,110,5.0,5.0,64,0.00,,SKC,0.00,VWS V14.01,2013-06-15 14:01:00,
2013-06-15 08:02:00,57.0,45.0,30.02,ESE,118,4.0,6.0,64,0.00,,SKC,0.00,VWS V14.01,2013-06-15 14:02:00,
2013-06-15 08:03:00,57.1,44.2,30.01,ESE,119,3.0,7.0,62,0.00,,SKC,0.00,VWS V14.01,2013-06-15 14:03:00,
2013-06-15 08:04:00,57.2,44.3,30.01,SE,125,1.0,4.0,62,0.00,,SKC,0.00,VWS V14.01,2013-06-15 14:04:00,
2013-06-15 08:05:00,57.2,43.9,30.02,SE,126,1.0,4.0,61,0.00,,SKC,0.00,VWS V14.01,2013-06-15 14:05:00,
2013-06-15 08:06:00,57.3,44.4,30.01,ESE,123,3.0,4.0,62,0.00,,SKC,0.00,VWS V14.01,2013-06-15 14:06:00,
2013-06-15 08:07:00,57.4,44.1,30.02,ESE,123,2.0,4.0,61,0.00,,SKC,0.00,VWS V14.01,2013-06-15 14:07:00,
2013-06-15 08:08:00,57.5,44.6,30.01,ESE,123,2.0,2.0,62,0.00,,SKC,0.00,VWS V14.01,2013-06-15 14:08:00,
2013-06-15 08:09:00,57.6,44.7,30.02,ESE,121,3.0,4.0,62,0.00,,SKC,0.00,VWS V14.01,2013-06-15 14:09:00,
2013-06-15 08:10:00,57.7,43.9,30.01,ESE,122,4.0,4.0,60,0.00,,SKC,0.00,VWS V14.01,2013-06-15 14:10:00,
2013-06-15 08:11:00,57.8,44.9,30.01,ESE,118,4.0,7.0,62,0.00,,SKC,0.00,VWS V14.01,2013-06-15 14:11:00,
2013-06-15 08:12:00,57.9,44.5,30.01,ESE,116,5.0,7.0,61,0.00,,SKC,0.00,VWS V14.01,2013-06-15 14:12:00,
2013-06-15 08:13:00,58.0,45.1,30.01,ESE,116,2.0,5.0,62,0.00,,SKC,0.00,VWS V14.01,2013-06-15 14:13:00,
2013-06-15 08:14:00,58.1,44.7,30.01,ESE,113,4.0,5.0,61,0.00,,SKC,0.00,VWS V14.01,2013-06-15 14:14:00,
2013-06-15 08:15:00,58.2,44.8,30.01,ESE,117,4.0,6.0,61,0.00,,SKC,0.00,VWS V14.01,2013-06-15 14:15:00,
2013-06-15 08:16:00,58.3,44.5,30.01,ESE,112,4.0,4.0,60,0.00,,SKC,0.00,VWS V14.01,2013-06-15 14:16:00,
2013-06-15 08:17:00,58.5,45.1,30.01,ESE,111,4.0,6.0,61,0.00,,SKC,0.00,VWS V14.01,2013-06-15 14:17:00,
2013-06-15 08:18:00,58.6,45.2,30.01,ESE,115,4.0,5.0,61,0.00,,SKC,0.00,VWS V14.01,2013-06-15 14:18:00,
2013-06-15 08:19:00,58.7,44.9,30.01,ESE,112,5.0,5.0,60,0.00,,SKC,0.00,VWS V14.01,2013-06-15 14:19:00,
2013-06-15 08:20:00,58.9,45.1,30.01,ESE,112,3.0,5.0,60,0.00,,SKC,0.00,VWS V14.01,2013-06-15 14:20:00,
2013-06-15 08:21:00,59.0,45.2,30.01,ESE,108,4.0,6.0,60,0.00,,SKC,0.00,VWS V14.01,2013-06-15 14:21:00,
2013-06-15 08:22:00,59.0,44.7,30.01,East,89,5.0,7.0,59,0.00,,SKC,0.00,VWS V14.01,2013-06-15 14:22:00,
2013-06-15 08:23:00,59.0,44.7,30.01,East,95,5.0,5.0,59,0.00,,SKC,0.00,VWS V14.01,2013-06-15 14:23:00,
2013-06-15 08:24:00,59.0,44.3,30.01,East,88,3.0,5.0,58,0.00,,SKC,0.00,VWS V14.01,2013-06-15 14:24:00,
2013-06-15 08:25:00,59.1,44.3,30.01,ESE,103,3.0,5.0,58,0.00,,SKC,0.00,VWS V14.01,2013-06-15 14:25:00,
2013-06-15 08:26:00,59.3,45.0,30.01,ESE,115,6.0,6.0,59,0.00,,SKC,0.00,VWS V14.01,2013-06-15 14:26:00,
2013-06-15 08:27:00,59.4,45.1,30.01,ESE,110,3.0,6.0,59,0.00,,SKC,0.00,VWS V14.01,2013-06-15 14:27:00,
2013-06-15 08:28:00,59.5,44.7,30.01,ESE,117,3.0,6.0,58,0.00,,SKC,0.00,VWS V14.01,2013-06-15 14:28:00,
2013-06-15 08:29:00,59.6,44.8,30.01,ESE,117,1.0,3.0,58,0.00,,SKC,0.00,VWS V14.01,2013-06-15 14:29:00,
2013-06-15 08:30:00,59.6,45.3,30.01,ESE,113,4.0,5.0,59,0.00,,SKC,0.00,VWS V14.01,2013-06-15 14:30:00,
2013-06-15 08:31:00,59.7,44.9,30.01,ESE,109,3.0,6.0,58,0.00,,SKC,0.00,VWS V14.01,2013-06-15 14:31:00,
2013-06-15 08:32:00,59.8,45.0,30.01,ESE,115,4.0,4.0,58,0.00,,SKC,0.00,VWS V14.01,2013-06-15 14:32:00,
2013-06-15 08:33:00,59.9,44.7,30.01,ESE,116,4.0,4.0,57,0.00,,SKC,0.00,VWS V14.01,2013-06-15 14:33:00,
2013-06-15 08:34:00,59.9,44.7,30.01,ESE,118,4.0,6.0,57,0.00,,SKC,0.00,VWS V14.01,2013-06-15 14:34:00,
2013-06-15 08:35:00,60.0,45.2,30.01,ESE,111,5.0,6.0,58,0.00,,SKC,0.00,VWS V14.01,2013-06-15 14:35:00,
2013-06-15 08:36:00,60.0,44.3,30.01,ESE,117,2.0,5.0,56,0.00,,SKC,0.00,VWS V14.01,2013-06-15 14:36:00,
2013-06-15 08:37:00,60.1,44.4,30.01,SE,128,6.0,9.0,56,0.00,,SKC,0.00,VWS V14.01,2013-06-15 14:37:00,
2013-06-15 08:38:00,60.0,44.3,30.01,SE,128,3.0,6.0,56,0.00,,SKC,0.00,VWS V14.01,2013-06-15 14:38:00,
2013-06-15 08:39:00,60.1,44.8,30.01,SE,124,1.0,3.0,57,0.00,,SKC,0.00,VWS V14.01,2013-06-15 14:39:00,
2013-06-15 08:40:00,60.1,45.3,30.01,SE,126,2.0,3.0,58,0.00,,SKC,0.00,VWS V14.01,2013-06-15 14:40:00,
2013-06-15 08:41:00,60.1,45.3,30.01,SE,130,5.0,5.0,58,0.00,,SKC,0.00,VWS V14.01,2013-06-15 14:41:00,
2013-06-15 08:42:00,60.2,44.9,30.01,SE,127,1.0,5.0,57,0.00,,SKC,0.00,VWS V14.01,2013-06-15 14:42:00,
2013-06-15 08:43:00,60.2,44.9,30.01,ESE,117,0.0,3.0,57,0.00,,SKC,0.00,VWS V14.01,2013-06-15 14:43:00,
2013-06-15 08:44:00,60.3,45.0,30.01,ESE,119,0.0,2.0,57,0.00,,SKC,0.00,VWS V14.01,2013-06-15 14:44:00,
2013-06-15 08:45:00,60.3,44.6,30.01,ESE,115,0.0,1.0,56,0.00,,SKC,0.00,VWS V14.01,2013-06-15 14:45:00,
2013-06-15 08:46:00,60.3,44.6,30.01,ESE,113,1.0,2.0,56,0.00,,SKC,0.00,VWS V14.01,2013-06-15 14:46:00,
2013-06-15 08:47:00,60.4,45.6,30.01,ESE,103,5.0,6.0,58,0.00,,SKC,0.00,VWS V14.01,2013-06-15 14:47:00,
2013-06-15 08:48:00,60.5,45.2,30.01,ESE,113,8.0,8.0,57,0.00,,SKC,0.00,VWS V14.01,2013-06-15 14:48:00,
2013-06-15 08:49:00,60.6,45.8,30.01,ESE,117,6.0,9.0,58,0.00,,SKC,0.00,VWS V14.01,2013-06-15 14:49:00,
2013-06-15 08:50:00,60.7,45.8,30.01,ESE,117,1.0,7.0,58,0.00,,SKC,0.00,VWS V14.01,2013-06-15 14:50:00,
2013-06-15 08:51:00,60.9,46.0,30.01,ESE,119,5.0,5.0,58,0.00,,SKC,0.00,VWS V14.01,2013-06-15 14:51:00,
2013-06-15 08:52:00,60.9,45.6,30.01,ESE,115,1.0,7.0,57,0.00,,SKC,0.00,VWS V14.01,2013-06-15 14:52:00,
2013-06-15 08:53:00,61.0,45.2,30.01,ESE,122,2.0,4.0,56,0.00,,SKC,0.00,VWS V14.01,2013-06-15 14:53:00,
2013-06-15 08:54:00,61.1,45.8,30.01,ESE,106,2.0,7.0,57,0.00,,SKC,0.00,VWS V14.01,2013-06-15 14:54:00,
2013-06-15 08:55:00,61.2,45.9,30.01,East,97,4.0,7.0,57,0.00,,SKC,0.00,VWS V14.01,2013-06-15 14:55:00,
2013-06-15 08:56:00,61.3,46.0,30.01,ESE,106,5.0,6.0,57,0.00,,SKC,0.00,VWS V14.01,2013-06-15 14:56:00,
2013-06-15 08:57:00,61.3,45.5,30.01,East,97,6.0,6.0,56,0.00,,SKC,0.00,VWS V14.01,2013-06-15 14:57:00,
2013-06-15 08:58:00,61.4,45.6,30.01,East,87,3.0,7.0,56,0.00,,SKC,0.00,VWS V14.01,2013-06-15 14:58:00,
2013-06-15 08:59:00,61.4,45.6,30.01,East,85,5.0,5.0,56,0.00,,SKC,0.00,VWS V14.01,2013-06-15 14:59:00,
2013-06-15 09:00:00,61.5,45.2,30.01,East,91,3.0,5.0,55,0.00,,SKC,0.00,VWS V14.01,2013-06-15 15:00:00,
2013-06-15 09:01:00,61.5,45.2,30.01,East,92,0.0,3.0,55,0.00,,SKC,0.00,VWS V14.01,2013-06-15 15:01:00,
2013-06-15 09:02:00,61.6,45.8,30.01,ESE,105,4.0,6.0,56,0.00,,SKC,0.00,VWS V14.01,2013-06-15 15:02:00,
2013-06-15 09:03:00,61.6,45.8,30.01,SE,133,4.0,6.0,56,0.00,,SKC,0.00,VWS V14.01,2013-06-15 15:03:00,
2013-06-15 09:04:00,61.7,46.3,30.01,ESE,120,7.0,7.0,57,0.00,,SKC,0.00,VWS V14.01,2013-06-15 15:04:00,
2013-06-15 09:05:00,61.7,45.4,30.01,ESE,111,7.0,7.0,55,0.00,,SKC,0.00,VWS V14.01,2013-06-15 15:05:00,
2013-06-15 09:06:00,61.8,46.0,30.01,ESE,110,6.0,7.0,56,0.00,,SKC,0.00,VWS V14.01,2013-06-15 15:06:00,
2013-06-15 09:07:00,61.8,46.0,30.00,East,98,4.0,8.0,56,0.00,,SKC,0.00,VWS V14.01,2013-06-15 15:07:00,
2013-06-15 09:08:00,61.9,45.6,30.01,East,93,4.0,4.0,55,0.00,,SKC,0.00,VWS V14.01,2013-06-15 15:08:00,
2013-06-15 09:09:00,62.0,45.7,30.01,East,93,2.0,4.0,55,0.00,,SKC,0.00,VWS V14.01,2013-06-15 15:09:00,
2013-06-15 09:10:00,62.1,46.2,30.01,SE,136,4.0,6.0,56,0.00,,SKC,0.00,VWS V14.01,2013-06-15 15:10:00,
2013-06-15 09:11:00,62.1,46.2,30.01,ESE,109,4.0,8.0,56,0.00,,SKC,0.00,VWS V14.01,2013-06-15 15:11:00,
2013-06-15 09:12:00,62.2,46.3,30.01,ESE,119,9.0,11.0,56,0.00,,SKC,0.00,VWS V14.01,2013-06-15 15:12:00,
2013-06-15 09:13:00,62.3,46.0,30.01,ESE,111,4.0,11.0,55,0.00,,SKC,0.00,VWS V14.01,2013-06-15 15:13:00,
2013-06-15 09:14:00,62.3,46.4,30.01,ESE,114,8.0,9.0,56,0.00,,SKC,0.00,VWS V14.01,2013-06-15 15:14:00,
2013-06-15 09:15:00,62.4,46.0,30.01,ESE,121,7.0,9.0,55,0.00,,SKC,0.00,VWS V14.01,2013-06-15 15:15:00,
2013-06-15 09:16:00,62.5,46.6,30.01,ESE,121,10.0,10.0,56,0.00,,SKC,0.00,VWS V14.01,2013-06-15 15:16:00,
2013-06-15 09:17:00,62.6,46.2,30.01,East,98,5.0,11.0,55,0.00,,SKC,0.00,VWS V14.01,2013-06-15 15:17:00,
2013-06-15 09:18:00,62.6,46.2,30.01,ENE,75,9.0,10.0,55,0.00,,SKC,0.00,VWS V14.01,2013-06-15 15:18:00,
2013-06-15 09:19:00,62.7,45.8,30.01,East,88,7.0,9.0,54,0.00,,SKC,0.00,VWS V14.01,2013-06-15 15:19:00,
2013-06-15 09:20:00,62.7,45.8,30.01,East,96,5.0,7.0,54,0.00,,SKC,0.00,VWS V14.01,2013-06-15 15:20:00,
2013-06-15 09:21:00,62.8,46.4,30.01,ESE,105,5.0,5.0,55,0.00,,SKC,0.00,VWS V14.01,2013-06-15 15:21:00,
2013-06-15 09:22:00,62.8,45.9,30.01,ESE,120,5.0,5.0,54,0.00,,SKC,0.00,VWS V14.01,2013-06-15 15:22:00,
2013-06-15 09:23:00,62.9,46.5,30.01,East,96,8.0,8.0,55,0.00,,SKC,0.00,VWS V14.01,2013-06-15 15:23:00,
2013-06-15 09:24:00,62.9,46.0,30.01,ESE,102,5.0,8.0,54,0.00,,SKC,0.00,VWS V14.01,2013-06-15 15:24:00,
2013-06-15 09:25:00,62.9,46.0,30.01,ESE,117,5.0,6.0,54,0.00,,SKC,0.00,VWS V14.01,2013-06-15 15:25:00,
2013-06-15 09:26:00,62.9,46.0,30.01,ESE,111,4.0,9.0,54,0.00,,SKC,0.00,VWS V14.01,2013-06-15 15:26:00,
2013-06-15 09:27:00,63.0,46.1,30.01,ESE,105,8.0,10.0,54,0.00,,SKC,0.00,VWS V14.01,2013-06-15 15:27:00,
2013-06-15 09:28:00,63.0,46.1,30.01,ESE,106,5.0,9.0,54,0.00,,SKC,0.00,VWS V14.01,2013-06-15 15:28:00,
2013-06-15 09:29:00,63.0,46.1,30.01,East,96,3.0,8.0,54,0.00,,SKC,0.00,VWS V14.01,2013-06-15 15:29:00,
2013-06-15 09:30:00,63.1,46.2,30.01,East,85,5.0,7.0,54,0.00,,SKC,0.00,VWS V14.01,2013-06-15 15:30:00,
2013-06-15 09:31:00,63.1,46.2,30.01,ENE,70,4.0,5.0,54,0.00,,SKC,0.00,VWS V14.01,2013-06-15 15:31:00,
2013-06-15 09:32:00,63.1,46.2,30.01,ESE,111,4.0,10.0,54,0.00,,SKC,0.00,VWS V14.01,2013-06-15 15:32:00,
2013-06-15 09:33:00,63.2,46.3,30.01,ESE,106,2.0,5.0,54,0.00,,SKC,0.00,VWS V14.01,2013-06-15 15:33:00,
2013-06-15 09:34:00,63.2,45.8,30.01,ESE,109,2.0,4.0,53,0.00,,SKC,0.00,VWS V14.01,2013-06-15 15:34:00,
2013-06-15 09:35:00,63.3,46.9,30.01,ESE,115,2.0,4.0,55,0.00,,SKC,0.00,VWS V14.01,2013-06-15 15:35:00,
2013-06-15 09:36:00,63.4,47.0,30.01,ESE,107,4.0,7.0,55,0.00,,SKC,0.00,VWS V14.01,2013-06-15 15:36:00,
2013-06-15 09:37:00,63.5,46.1,30.01,East,93,5.0,10.0,53,0.00,,SKC,0.00,VWS V14.01,2013-06-15 15:37:00,
2013-06-15 09:38:00,63.6,45.7,30.01,ESE,103,4.0,6.0,52,0.00,,SKC,0.00,VWS V14.01,2013-06-15 15:38:00,
2013-06-15 09:39:00,63.6,46.2,30.01,ESE,123,2.0,7.0,53,0.00,,SKC,0.00,VWS V14.01,2013-06-15 15:39:00,
2013-06-15 09:40:00,63.7,46.3,30.01,SE,131,4.0,7.0,53,0.00,,SKC,0.00,VWS V14.01,2013-06-15 15:40:00,
2013-06-15 09:41:00,63.7,46.3,30.01,SE,126,8.0,10.0,53,0.00,,SKC,0.00,VWS V14.01,2013-06-15 15:41:00,
2013-06-15 09:42:00,63.8,46.4,30.01,SE,134,5.0,11.0,53,0.00,,SKC,0.00,VWS V14.01,2013-06-15 15:42:00,
2013-06-15 09:43:00,63.8,46.4,30.01,ESE,113,6.0,11.0,53,0.00,,SKC,0.00,VWS V14.01,2013-06-15 15:43:00,
2013-06-15 09:44:00,63.9,47.0,30.01,SE,131,7.0,7.0,54,0.00,,SKC,0.00,VWS V14.01,2013-06-15 15:44:00,
2013-06-15 09:45:00,63.9,46.5,30.01,ESE,102,5.0,11.0,53,0.00,,SKC,0.00,VWS V14.01,2013-06-15 15:45:00,
2013-06-15 09:46:00,64.0,46.5,30.01,SE,137,9.0,10.0,53,0.00,,SKC,0.00,VWS V14.01,2013-06-15 15:46:00,
2013-06-15 09:47:00,64.1,47.6,30.01,SE,125,6.0,9.0,55,0.00,,SKC,0.00,VWS V14.01,2013-06-15 15:47:00,
2013-06-15 09:48:00,64.2,46.7,30.00,SE,140,8.0,9.0,53,0.00,,SKC,0.00,VWS V14.01,2013-06-15 15:48:00,
2013-06-15 09:49:00,64.4,46.9,30.00,SE,144,6.0,8.0,53,0.00,,SKC,0.00,VWS V14.01,2013-06-15 15:49:00,
2013-06-15 09:50:00,64.5,47.0,30.00,SE,134,4.0,7.0,53,0.00,,SKC,0.00,VWS V14.01,2013-06-15 15:50:00,
2013-06-15 09:51:00,64.5,46.5,30.01,ESE,106,7.0,10.0,52,0.00,,SKC,0.00,VWS V14.01,2013-06-15 15:51:00,
2013-06-15 09:52:00,64.6,46.1,30.01,East,80,8.0,8.0,51,0.00,,SKC,0.00,VWS V14.01,2013-06-15 15:52:00,
2013-06-15 09:53:00,64.6,46.1,30.00,East,90,6.0,8.0,51,0.00,,SKC,0.00,VWS V14.01,2013-06-15 15:53:00,
2013-06-15 09:54:00,64.6,46.1,30.00,East,86,3.0,6.0,51,0.00,,SKC,0.00,VWS V14.01,2013-06-15 15:54:00,
2013-06-15 09:55:00,64.6,46.6,30.01,East,88,5.0,5.0,52,0.00,,SKC,0.00,VWS V14.01,2013-06-15 15:55:00,
2013-06-15 09:56:00,64.7,46.7,30.00,East,99,6.0,9.0,52,0.00,,SKC,0.00,VWS V14.01,2013-06-15 15:56:00,
2013-06-15 09:57:00,64.7,46.7,30.01,East,100,3.0,7.0,52,0.00,,SKC,0.00,VWS V14.01,2013-06-15 15:57:00,
2013-06-15 09:58:00,64.8,46.8,30.01,ESE,112,12.0,12.0,52,0.00,,SKC,0.00,VWS V14.01,2013-06-15 15:58:00,
2013-06-15 09:59:00,64.8,46.8,30.00,East,86,11.0,12.0,52,0.00,,SKC,0.00,VWS V14.01,2013-06-15 15:59:00,
2013-06-15 10:00:00,64.8,46.3,30.00,East,96,5.0,11.0,51,0.00,,SKC,0.00,VWS V14.01,2013-06-15 16:00:00,
2013-06-15 10:01:00,64.9,46.4,30.00,ESE,107,8.0,12.0,51,0.00,,SKC,0.00,VWS V14.01,2013-06-15 16:01:00,
2013-06-15 10:02:00,64.9,46.9,30.00,ESE,115,11.0,11.0,52,0.00,,SKC,0.00,VWS V14.01,2013-06-15 16:02:00,
2013-06-15 10:03:00,64.9,46.9,30.00,ESE,110,6.0,11.0,52,0.00,,SKC,0.00,VWS V14.01,2013-06-15 16:03:00,
2013-06-15 10:04:00,65.0,46.5,30.00,SE,138,6.0,12.0,51,0.00,,SKC,0.00,VWS V14.01,2013-06-15 16:04:00,
2013-06-15 10:05:00,65.0,47.0,30.01,East,96,5.0,8.0,52,0.00,,SKC,0.00,VWS V14.01,2013-06-15 16:05:00,
2013-06-15 10:06:00,65.0,47.0,30.00,ESE,114,4.0,7.0,52,0.00,,SKC,0.00,VWS V14.01,2013-06-15 16:06:00,
2013-06-15 10:07:00,65.0,46.5,30.00,ESE,107,4.0,11.0,51,0.00,,SKC,0.00,VWS V14.01,2013-06-15 16:07:00,
2013-06-15 10:08:00,65.0,47.0,30.00,ESE,117,9.0,10.0,52,0.00,,SKC,0.00,VWS V14.01,2013-06-15 16:08:00,
2013-06-15 10:09:00,65.1,46.5,30.00,East,93,6.0,9.0,51,0.00,,SKC,0.00,VWS V14.01,2013-06-15 16:09:00,
2013-06-15 10:10:00,65.1,47.1,30.00,East,89,4.0,6.0,52,0.00,,SKC,0.00,VWS V14.01,2013-06-15 16:10:00,
2013-06-15 10:11:00,65.1,46.0,30.00,SE,143,3.0,5.0,50,0.00,,SKC,0.00,VWS V14.01,2013-06-15 16:11:00,
2013-06-15 10:12:00,65.1,47.1,30.00,ESE,122,10.0,10.0,52,0.00,,SKC,0.00,VWS V14.01,2013-06-15 16:12:00,
2013-06-15 10:13:00,65.0,47.0,30.00,East,100,6.0,14.0,52,0.00,,SKC,0.00,VWS V14.01,2013-06-15 16:13:00,
2013-06-15 10:14:00,65.1,47.1,30.00,East,94,7.0,9.0,52,0.00,,SKC,0.00,VWS V14.01,2013-06-15 16:14:00,
2013-06-15 10:15:00,65.2,47.2,30.00,ESE,103,5.0,7.0,52,0.00,,SKC,0.00,VWS V14.01,2013-06-15 16:15:00,
2013-06-15 10:16:00,65.3,47.2,30.00,East,99,8.0,12.0,52,0.00,,SKC,0.00,VWS V14.01,2013-06-15 16:16:00,
2013-06-15 10:17:00,65.3,46.7,30.00,ESE,102,11.0,11.0,51,0.00,,SKC,0.00,VWS V14.01,2013-06-15 16:17:00,
2013-06-15 10:18:00,65.4,46.8,30.00,East,88,6.0,11.0,51,0.00,,SKC,0.00,VWS V14.01,2013-06-15 16:18:00,
2013-06-15 10:19:00,65.4,46.8,30.00,East,92,2.0,6.0,51,0.00,,SKC,0.00,VWS V14.01,2013-06-15 16:19:00,
2013-06-15 10:20:00,65.5,47.4,29.99,SE,125,5.0,9.0,52,0.00,,SKC,0.00,VWS V14.01,2013-06-15 16:20:00,
2013-06-15 10:21:00,65.6,47.5,30.00,ESE,110,4.0,6.0,52,0.00,,SKC,0.00,VWS V14.01,2013-06-15 16:21:00,
2013-06-15 10:22:00,65.7,47.6,30.00,SE,133,7.0,7.0,52,0.00,,SKC,0.00,VWS V14.01,2013-06-15 16:22:00,
2013-06-15 10:23:00,65.8,47.2,30.00,East,93,4.0,11.0,51,0.00,,SKC,0.00,VWS V14.01,2013-06-15 16:23:00,
2013-06-15 10:24:00,65.8,47.2,30.00,ESE,119,5.0,9.0,51,0.00,,SKC,0.00,VWS V14.01,2013-06-15 16:24:00,
2013-06-15 10:25:00,65.9,47.3,30.00,North,360,7.0,9.0,51,0.00,,SKC,0.00,VWS V14.01,2013-06-15 16:25:00,
2013-06-15 10:26:00,65.9,46.8,30.00,ESE,104,10.0,10.0,50,0.00,,SKC,0.00,VWS V14.01,2013-06-15 16:26:00,
2013-06-15 10:27:00,66.0,46.8,30.00,ESE,115,4.0,10.0,50,0.00,,SKC,0.00,VWS V14.01,2013-06-15 16:27:00,
2013-06-15 10:28:00,66.0,47.4,30.00,North,360,6.0,12.0,51,0.00,,SKC,0.00,VWS V14.01,2013-06-15 16:28:00,
2013-06-15 10:29:00,66.1,47.5,30.00,SE,132,7.0,11.0,51,0.00,,SKC,0.00,VWS V14.01,2013-06-15 16:29:00,
2013-06-15 10:30:00,66.2,47.0,30.00,East,90,4.0,10.0,50,0.00,,SKC,0.00,VWS V14.01,2013-06-15 16:30:00,
2013-06-15 10:31:00,66.2,47.6,30.00,East,88,5.0,6.0,51,0.00,,SKC,0.00,VWS V14.01,2013-06-15 16:31:00,
2013-06-15 10:32:00,66.3,47.1,30.00,ESE,109,6.0,11.0,50,0.00,,SKC,0.00,VWS V14.01,2013-06-15 16:32:00,
2013-06-15 10:33:00,66.4,47.2,30.00,ESE,112,8.0,9.0,50,0.00,,SKC,0.00,VWS V14.01,2013-06-15 16:33:00,
2013-06-15 10:34:00,66.5,47.8,30.00,ESE,108,5.0,8.0,51,0.00,,SKC,0.00,VWS V14.01,2013-06-15 16:34:00,
2013-06-15 10:35:00,66.6,47.4,30.00,NE,52,1.0,7.0,50,0.00,,SKC,0.00,VWS V14.01,2013-06-15 16:35:00,
2013-06-15 10:36:00,66.7,48.0,30.00,SE,137,4.0,4.0,51,0.00,,SKC,0.00,VWS V14.01,2013-06-15 16:36:00,
2013-06-15 10:37:00,66.8,48.1,30.00,SE,133,6.0,11.0,51,0.00,,SKC,0.00,VWS V14.01,2013-06-15 16:37:00,
2013-06-15 10:38:00,66.9,47.7,30.00,ESE,115,3.0,6.0,50,0.00,,SKC,0.00,VWS V14.01,2013-06-15 16:38:00,
2013-06-15 10:39:00,67.0,47.2,30.00,SSE,150,10.0,11.0,49,0.00,,SKC,0.00,VWS V14.01,2013-06-15 16:39:00,
2013-06-15 10:40:00,67.1,48.4,30.00,SE,130,12.0,12.0,51,0.00,,SKC,0.00,VWS V14.01,2013-06-15 16:40:00,
2013-06-15 10:41:00,67.2,47.4,30.00,East,92,10.0,12.0,49,0.00,,SKC,0.00,VWS V14.01,2013-06-15 16:41:00,
2013-06-15 10:42:00,67.3,47.5,30.00,ESE,105,4.0,10.0,49,0.00,,SKC,0.00,VWS V14.01,2013-06-15 16:42:00,
2013-06-15 10:43:00,67.4,47.6,30.00,ESE,121,5.0,10.0,49,0.00,,SKC,0.00,VWS V14.01,2013-06-15 16:43:00,
2013-06-15 10:44:00,67.5,47.7,30.00,ESE,109,7.0,10.0,49,0.00,,SKC,0.00,VWS V14.01,2013-06-15 16:44:00,
2013-06-15 10:45:00,67.6,46.7,30.00,ESE,117,9.0,9.0,47,0.00,,SKC,0.00,VWS V14.01,2013-06-15 16:45:00,
2013-06-15 10:46:00,67.7,47.3,30.00,SE,136,7.0,10.0,48,0.00,,SKC,0.00,VWS V14.01,2013-06-15 16:46:00,
2013-06-15 10:47:00,67.8,47.4,30.00,East,82,6.0,8.0,48,0.00,,SKC,0.00,VWS V14.01,2013-06-15 16:47:00,
2013-06-15 10:48:00,67.9,47.5,30.00,ENE,66,3.0,6.0,48,0.00,,SKC,0.00,VWS V14.01,2013-06-15 16:48:00,
2013-06-15 10:49:00,68.0,47.0,29.99,ESE,117,6.0,12.0,47,0.00,,SKC,0.00,VWS V14.01,2013-06-15 16:49:00,
2013-06-15 10:50:00,68.0,48.2,29.99,ESE,121,6.0,6.0,49,0.00,,SKC,0.00,VWS V14.01,2013-06-15 16:50:00,
2013-06-15 10:51:00,68.1,47.7,29.99,ENE,76,1.0,6.0,48,0.00,,SKC,0.00,VWS V14.01,2013-06-15 16:51:00,
2013-06-15 10:52:00,68.3,47.9,29.99,East,94,9.0,9.0,48,0.00,,SKC,0.00,VWS V14.01,2013-06-15 16:52:00,
2013-06-15 10:53:00,68.3,46.7,29.99,East,90,10.0,10.0,46,0.00,,SKC,0.00,VWS V14.01,2013-06-15 16:53:00,
2013-06-15 10:54:00,68.4,47.4,29.99,East,88,5.0,10.0,47,0.00,,SKC,0.00,VWS V14.01,2013-06-15 16:54:00,
2013-06-15 10:55:00,68.4,47.4,29.99,ENE,61,4.0,10.0,47,0.00,,SKC,0.00,VWS V14.01,2013-06-15 16:55:00,
2013-06-15 10:56:00,68.5,47.5,29.99,East,80,5.0,6.0,47,0.00,,SKC,0.00,VWS V14.01,2013-06-15 16:56:00,
2013-06-15 10:57:00,68.5,47.5,29.99,SE,138,5.0,9.0,47,0.00,,SKC,0.00,VWS V14.01,2013-06-15 16:57:00,
2013-06-15 10:58:00,68.6,48.2,29.99,ESE,115,6.0,10.0,48,0.00,,SKC,0.00,VWS V14.01,2013-06-15 16:58:00,
2013-06-15 10:59:00,68.6,47.6,29.99,ESE,108,7.0,7.0,47,0.00,,SKC,0.00,VWS V14.01,2013-06-15 16:59:00,
2013-06-15 11:00:00,68.7,47.7,29.99,ESE,112,6.0,11.0,47,0.00,,SKC,0.00,VWS V14.01,2013-06-15 17:00:00,
2013-06-15 11:01:00,68.8,47.2,29.99,NE,56,1.0,13.0,46,0.00,,SKC,0.00,VWS V14.01,2013-06-15 17:01:00,
2013-06-15 11:02:00,68.8,47.2,29.99,ESE,115,9.0,9.0,46,0.00,,SKC,0.00,VWS V14.01,2013-06-15 17:02:00,
2013-06-15 11:03:00,68.8,47.8,29.99,ESE,116,11.0,11.0,47,0.00,,SKC,0.00,VWS V14.01,2013-06-15 17:03:00,
2013-06-15 11:04:00,68.9,47.3,29.99,East,80,7.0,11.0,46,0.00,,SKC,0.00,VWS V14.01,2013-06-15 17:04:00,
2013-06-15 11:05:00,68.9,47.3,29.99,ENE,76,9.0,10.0,46,0.00,,SKC,0.00,VWS V14.01,2013-06-15 17:05:00,
2013-06-15 11:06:00,68.9,47.3,29.99,ENE,74,6.0,16.0,46,0.00,,SKC,0.00,VWS V14.01,2013-06-15 17:06:00,
2013-06-15 11:07:00,68.9,47.9,29.99,East,84,4.0,9.0,47,0.00,,SKC,0.00,VWS V14.01,2013-06-15 17:07:00,
2013-06-15 11:08:00,68.9,47.3,29.99,East,94,9.0,10.0,46,0.00,,SKC,0.00,VWS V14.01,2013-06-15 17:08:00,
2013-06-15 11:09:00,68.9,47.3,29.99,NE,50,3.0,9.0,46,0.00,,SKC,0.00,VWS V14.01,2013-06-15 17:09:00,
2013-06-15 11:10:00,68.9,47.9,29.99,East,101,7.0,8.0,47,0.00,,SKC,0.00,VWS V14.01,2013-06-15 17:10:00,
2013-06-15 11:11:00,69.0,48.0,29.99,SE,131,4.0,11.0,47,0.00,,SKC,0.00,VWS V14.01,2013-06-15 17:11:00,
2013-06-15 11:12:00,69.0,48.5,29.99,East,89,10.0,12.0,48,0.00,,SKC,0.00,VWS V14.01,2013-06-15 17:12:00,
2013-06-15 11:13:00,69.1,47.5,29.99,East,100,9.0,14.0,46,0.00,,SKC,0.00,VWS V14.01,2013-06-15 17:13:00,
2013-06-15 11:14:00,69.1,48.0,29.99,East,96,10.0,11.0,47,0.00,,SKC,0.00,VWS V14.01,2013-06-15 17:14:00,
2013-06-15 11:15:00,69.1,47.5,29.99,ESE,103,7.0,12.0,46,0.00,,SKC,0.00,VWS V14.01,2013-06-15 17:15:00,
2013-06-15 11:16:00,69.1,48.0,29.99,East,95,7.0,9.0,47,0.00,,SKC,0.00,VWS V14.01,2013-06-15 17:16:00,
2013-06-15 11:17:00,69.0,47.4,29.99,ESE,119,5.0,12.0,46,0.00,,SKC,0.00,VWS V14.01,2013-06-15 17:17:00,
2013-06-15 11:18:00,69.0,48.0,29.99,East,86,7.0,7.0,47,0.00,,SKC,0.00,VWS V14.01,2013-06-15 17:18:00,
2013-06-15 11:19:00,69.0,47.4,29.99,ESE,117,6.0,8.0,46,0.00,,SKC,0.00,VWS V14.01,2013-06-15 17:19:00,
2013-06-15 11:20:00,69.0,47.4,29.99,SE,129,9.0,12.0,46,0.00,,SKC,0.00,VWS V14.01,2013-06-15 17:20:00,
2013-06-15 11:21:00,69.0,48.0,29.99,SE,140,10.0,16.0,47,0.00,,SKC,0.00,VWS V14.01,2013-06-15 17:21:00,
2013-06-15 11:22:00,69.0,48.5,29.99,East,101,12.0,12.0,48,0.00,,SKC,0.00,VWS V14.01,2013-06-15 17:22:00,
2013-06-15 11:23:00,69.1,48.0,29.99,SE,142,6.0,12.0,47,0.00,,SKC,0.00,VWS V14.01,2013-06-15 17:23:00,
2013-06-15 11:24:00,69.2,47.6,29.99,SE,146,11.0,11.0,46,0.00,,SKC,0.00,VWS V14.01,2013-06-15 17:24:00,
2013-06-15 11:25:00,69.2,48.1,30.00,East,85,9.0,11.0,47,0.00,,SKC,0.00,VWS V14.01,2013-06-15 17:25:00,
2013-06-15 11:26:00,69.3,47.7,29.99,ESE,108,5.0,9.0,46,0.00,,SKC,0.00,VWS V14.01,2013-06-15 17:26:00,
2013-06-15 11:27:00,69.3,48.2,29.99,ESE,115,6.0,9.0,47,0.00,,SKC,0.00,VWS V14.01,2013-06-15 17:27:00,
2013-06-15 11:28:00,69.4,47.7,29.99,SE,134,10.0,10.0,46,0.00,,SKC,0.00,VWS V14.01,2013-06-15 17:28:00,
2013-06-15 11:29:00,69.4,47.7,29.99,North,360,4.0,10.0,46,0.00,,SKC,0.00,VWS V14.01,2013-06-15 17:29:00,
2013-06-15 11:30:00,69.5,47.8,29.99,East,86,10.0,13.0,46,0.00,,SKC,0.00,VWS V14.01,2013-06-15 17:30:00,
2013-06-15 11:31:00,69.5,47.8,29.99,ENE,67,10.0,13.0,46,0.00,,SKC,0.00,VWS V14.01,2013-06-15 17:31:00,
2013-06-15 11:32:00,69.5,47.8,29.99,ENE,59,7.0,12.0,46,0.00,,SKC,0.00,VWS V14.01,2013-06-15 17:32:00,
2013-06-15 11:33:00,69.6,47.9,29.99,East,81,6.0,11.0,46,0.00,,SKC,0.00,VWS V14.01,2013-06-15 17:33:00,
2013-06-15 11:34:00,69.6,47.9,29.99,ESE,106,11.0,17.0,46,0.00,,SKC,0.00,VWS V14.01,2013-06-15 17:34:00,
2013-06-15 11:35:00,69.6,47.9,29.99,East,100,12.0,13.0,46,0.00,,SKC,0.00,VWS V14.01,2013-06-15 17:35:00,
2013-06-15 11:36:00,69.5,47.8,29.99,ESE,103,9.0,16.0,46,0.00,,SKC,0.00,VWS V14.01,2013-06-15 17:36:00,
2013-06-15 11:37:00,69.5,47.8,29.99,NE,56,0.0,9.0,46,0.00,,SKC,0.00,VWS V14.01,2013-06-15 17:37:00,
2013-06-15 11:38:00,69.5,47.2,29.99,East,88,5.0,8.0,45,0.00,,SKC,0.00,VWS V14.01,2013-06-15 17:38:00,
2013-06-15 11:39:00,69.5,47.8,29.99,ENE,71,7.0,11.0,46,0.00,,SKC,0.00,VWS V14.01,2013-06-15 17:39:00,
2013-06-15 11:40:00,69.6,47.9,29.99,East,82,4.0,7.0,46,0.00,,SKC,0.00,VWS V14.01,2013-06-15 17:40:00,
2013-06-15 11:41:00,69.7,48.0,29.99,ENE,68,4.0,10.0,46,0.00,,SKC,0.00,VWS V14.01,2013-06-15 17:41:00,
2013-06-15 11:42:00,69.8,48.1,29.99,East,94,9.0,12.0,46,0.00,,SKC,0.00,VWS V14.01,2013-06-15 17:42:00,
2013-06-15 11:43:00,69.8,48.7,29.99,ESE,108,5.0,10.0,47,0.00,,SKC,0.00,VWS V14.01,2013-06-15 17:43:00,
2013-06-15 11:44:00,69.9,47.6,29.99,East,93,6.0,7.0,45,0.00,,SKC,0.00,VWS V14.01,2013-06-15 17:44:00,
2013-06-15 11:45:00,69.9,48.2,29.99,East,86,7.0,10.0,46,0.00,,SKC,0.00,VWS V14.01,2013-06-15 17:45:00,
2013-06-15 11:46:00,70.0,48.3,29.99,East,96,10.0,12.0,46,0.00,,SKC,0.00,VWS V14.01,2013-06-15 17:46:00,
2013-06-15 11:47:00,70.0,48.3,29.99,East,90,5.0,10.0,46,0.00,,SKC,0.00,VWS V14.01,2013-06-15 17:47:00,
2013-06-15 11:48:00,70.1,48.4,29.98,NE,55,2.0,7.0,46,0.00,,SKC,0.00,VWS V14.01,2013-06-15 17:48:00,
2013-06-15 11:49:00,70.1,48.4,29.98,ENE,67,10.0,13.0,46,0.00,,SKC,0.00,VWS V14.01,2013-06-15 17:49:00,
2013-06-15 11:50:00,70.2,48.5,29.98,NE,35,4.0,10.0,46,0.00,,SKC,0.00,VWS V14.01,2013-06-15 17:50:00,
2013-06-15 11:51:00,70.3,48.0,29.98,NNE,21,4.0,7.0,45,0.00,,SKC,0.00,VWS V14.01,2013-06-15 17:51:00,
2013-06-15 11:52:00,70.5,48.8,29.98,NNE,30,4.0,5.0,46,0.00,,SKC,0.00,VWS V14.01,2013-06-15 17:52:00,
2013-06-15 11:53:00,70.6,47.7,29.98,East,95,5.0,5.0,44,0.00,,SKC,0.00,VWS V14.01,2013-06-15 17:53:00,
2013-06-15 11:54:00,70.8,48.4,29.98,East,90,5.0,11.0,45,0.00,,SKC,0.00,VWS V14.01,2013-06-15 17:54:00,
2013-06-15 11:55:00,70.9,48.5,29.98,ESE,111,9.0,11.0,45,0.00,,SKC,0.00,VWS V14.01,2013-06-15 17:55:00,
2013-06-15 11:56:00,71.0,48.6,29.98,ENE,65,11.0,12.0,45,0.00,,SKC,0.00,VWS V14.01,2013-06-15 17:56:00,
2013-06-15 11:57:00,71.2,48.8,29.98,NE,44,1.0,12.0,45,0.00,,SKC,0.00,VWS V14.01,2013-06-15 17:57:00,
2013-06-15 11:58:00,71.3,48.3,29.98,NE,44,3.0,11.0,44,0.00,,SKC,0.00,VWS V14.01,2013-06-15 17:58:00,
2013-06-15 11:59:00,71.4,48.4,29.99,East,91,7.0,11.0,44,0.00,,SKC,0.00,VWS V14.01,2013-06-15 17:59:00,
2013-06-15 12:00:00,71.5,49.1,29.99,East,88,9.0,11.0,45,0.00,,SKC,0.00,VWS V14.01,2013-06-15 18:00:00,
2013-06-15 12:01:00,71.5,47.8,29.99,ENE,66,6.0,13.0,43,0.00,,SKC,0.00,VWS V14.01,2013-06-15 18:01:00,
2013-06-15 12:02:00,71.6,48.6,29.99,ENE,65,4.0,6.0,44,0.00,,SKC,0.00,VWS V14.01,2013-06-15 18:02:00,
2013-06-15 12:03:00,71.6,48.6,29.99,ESE,103,4.0,7.0,44,0.00,,SKC,0.00,VWS V14.01,2013-06-15 18:03:00,
2013-06-15 12:04:00,71.6,47.3,29.99,SE,132,8.0,8.0,42,0.00,,SKC,0.00,VWS V14.01,2013-06-15 18:04:00,
2013-06-15 12:05:00,71.5,47.2,29.98,SE,136,7.0,13.0,42,0.00,,SKC,0.00,VWS V14.01,2013-06-15 18:05:00,
2013-06-15 12:06:00,71.4,48.4,29.99,East,100,11.0,14.0,44,0.00,,SKC,0.00,VWS V14.01,2013-06-15 18:06:00,
2013-06-15 12:07:00,71.3,48.3,29.98,NE,51,2.0,11.0,44,0.00,,SKC,0.00,VWS V14.01,2013-06-15 18:07:00,
2013-06-15 12:08:00,71.3,47.7,29.98,ENE,59,3.0,13.0,43,0.00,,SKC,0.00,VWS V14.01,2013-06-15 18:08:00,
2013-06-15 12:09:00,71.3,48.3,29.99,East,82,6.0,6.0,44,0.00,,SKC,0.00,VWS V14.01,2013-06-15 18:09:00,
2013-06-15 12:10:00,71.4,48.4,29.99,East,92,12.0,12.0,44,0.00,,SKC,0.00,VWS V14.01,2013-06-15 18:10:00,
2013-06-15 12:11:00,71.4,48.4,29.99,East,88,7.0,13.0,44,0.00,,SKC,0.00,VWS V14.01,2013-06-15 18:11:00,
2013-06-15 12:12:00,71.4,48.4,29.99,ENE,74,9.0,14.0,44,0.00,,SKC,0.00,VWS V14.01,2013-06-15 18:12:00,
2013-06-15 12:13:00,71.5,48.5,29.99,East,82,11.0,11.0,44,0.00,,SKC,0.00,VWS V14.01,2013-06-15 18:13:00,
2013-06-15 12:14:00,71.5,47.8,29.99,ENE,63,3.0,11.0,43,0.00,,SKC,0.00,VWS V14.01,2013-06-15 18:14:00,
2013-06-15 12:15:00,71.7,49.2,29.99,SE,134,5.0,6.0,45,0.00,,SKC,0.00,VWS V14.01,2013-06-15 18:15:00,
2013-06-15 12:16:00,71.8,48.1,29.99,NE,53,3.0,12.0,43,0.00,,SKC,0.00,VWS V14.01,2013-06-15 18:16:00,
2013-06-15 12:17:00,71.9,48.8,29.99,ENE,76,4.0,12.0,44,0.00,,SKC,0.00,VWS V14.01,2013-06-15 18:17:00,
2013-06-15 12:18:00,72.0,48.9,29.99,ENE,62,6.0,6.0,44,0.00,,SKC,0.00,VWS V14.01,2013-06-15 18:18:00,
2013-06-15 12:19:00,72.1,49.0,29.99,NE,41,0.0,10.0,44,0.00,,SKC,0.00,VWS V14.01,2013-06-15 18:19:00,
2013-06-15 12:20:00,72.2,48.5,29.99,ENE,57,3.0,13.0,43,0.00,,SKC,0.00,VWS V14.01,2013-06-15 18:20:00,
2013-06-15 12:21:00,72.3,48.6,29.99,East,84,5.0,11.0,43,0.00,,SKC,0.00,VWS V14.01,2013-06-15 18:21:00,
2013-06-15 12:22:00,72.4,49.3,29.99,ESE,110,9.0,13.0,44,0.00,,SKC,0.00,VWS V14.01,2013-06-15 18:22:00,
2013-06-15 12:23:00,72.4,48.0,29.99,East,86,9.0,14.0,42,0.00,,SKC,0.00,VWS V14.01,2013-06-15 18:23:00,
2013-06-15 12:24:00,72.4,48.7,29.99,ENE,77,5.0,9.0,43,0.00,,SKC,0.00,VWS V14.01,2013-06-15 18:24:00,
2013-06-15 12:25:00,72.4,48.0,29.98,East,85,5.0,7.0,42,0.00,,SKC,0.00,VWS V14.01,2013-06-15 18:25:00,
2013-06-15 12:26:00,72.5,49.4,29.99,SE,132,10.0,10.0,44,0.00,,SKC,0.00,VWS V14.01,2013-06-15 18:26:00,
2013-06-15 12:27:00,72.5,48.1,29.99,ESE,113,6.0,12.0,42,0.00,,SKC,0.00,VWS V14.01,2013-06-15 18:27:00,
2013-06-15 12:28:00,72.5,48.8,29.99,ESE,105,10.0,14.0,43,0.00,,SKC,0.00,VWS V14.01,2013-06-15 18:28:00,
2013-06-15 12:29:00,72.5,48.8,29.99,East,99,12.0,12.0,43,0.00,,SKC,0.00,VWS V14.01,2013-06-15 18:29:00,
2013-06-15 12:30:00,72.5,48.8,29.99,East,87,13.0,13.0,43,0.00,,SKC,0.00,VWS V14.01,2013-06-15 18:30:00,
2013-06-15 12:31:00,72.5,48.1,29.99,East,95,9.0,13.0,42,0.00,,SKC,0.00,VWS V14.01,2013-06-15 18:31:00,
2013-06-15 12:32:00,72.5,48.8,29.99,ENE,62,8.0,14.0,43,0.00,,SKC,0.00,VWS V14.01,2013-06-15 18:32:00,
2013-06-15 12:33:00,72.6,48.8,29.99,East,88,6.0,10.0,43,0.00,,SKC,0.00,VWS V14.01,2013-06-15 18:33:00,
2013-06-15 12:34:00,72.6,48.8,29.99,ENE,70,10.0,13.0,43,0.00,,SKC,0.00,VWS V14.01,2013-06-15 18:34:00,
2013-06-15 12:35:00,72.6,48.8,29.99,East,94,13.0,14.0,43,0.00,,SKC,0.00,VWS V14.01,2013-06-15 18:35:00,
2013-06-15 12:36:00,72.6,48.2,29.99,ENE,57,12.0,13.0,42,0.00,,SKC,0.00,VWS V14.01,2013-06-15 18:36:00,
2013-06-15 12:37:00,72.6,48.2,29.99,ESE,115,4.0,12.0,42,0.00,,SKC,0.00,VWS V14.01,2013-06-15 18:37:00,
2013-06-15 12:38:00,72.6,48.8,29.99,SE,139,9.0,11.0,43,0.00,,SKC,0.00,VWS V14.01,2013-06-15 18:38:00,
2013-06-15 12:39:00,72.7,48.9,29.99,SE,130,13.0,14.0,43,0.00,,SKC,0.00,VWS V14.01,2013-06-15 18:39:00,
2013-06-15 12:40:00,72.5,47.5,29.99,ESE,105,1.0,13.0,41,0.00,,SKC,0.00,VWS V14.01,2013-06-15 18:40:00,
2013-06-15 12:41:00,72.4,48.7,29.99,East,99,8.0,13.0,43,0.00,,SKC,0.00,VWS V14.01,2013-06-15 18:41:00,
2013-06-15 12:42:00,72.4,49.3,29.99,SE,131,4.0,12.0,44,0.00,,SKC,0.00,VWS V14.01,2013-06-15 18:42:00,
2013-06-15 12:43:00,72.4,48.7,29.98,NNE,26,6.0,9.0,43,0.00,,SKC,0.00,VWS V14.01,2013-06-15 18:43:00,
2013-06-15 12:44:00,72.4,49.3,29.98,East,82,6.0,9.0,44,0.00,,SKC,0.00,VWS V14.01,2013-06-15 18:44:00,
2013-06-15 12:45:00,72.5,48.8,29.98,ENE,60,4.0,10.0,43,0.00,,SKC,0.00,VWS V14.01,2013-06-15 18:45:00,
2013-06-15 12:46:00,72.5,48.8,29.98,ESE,107,11.0,14.0,43,0.00,,SKC,0.00,VWS V14.01,2013-06-15 18:46:00,
2013-06-15 12:47:00,72.6,48.8,29.98,ESE,123,6.0,11.0,43,0.00,,SKC,0.00,VWS V14.01,2013-06-15 18:47:00,
2013-06-15 12:48:00,72.7,48.9,29.98,ESE,121,4.0,9.0,43,0.00,,SKC,0.00,VWS V14.01,2013-06-15 18:48:00,
2013-06-15 12:49:00,72.8,49.6,29.98,East,101,4.0,12.0,44,0.00,,SKC,0.00,VWS V14.01,2013-06-15 18:49:00,
2013-06-15 12:50:00,72.8,47.8,29.98,SE,124,11.0,14.0,41,0.00,,SKC,0.00,VWS V14.01,2013-06-15 18:50:00,
2013-06-15 12:51:00,72.7,48.3,29.98,East,82,7.0,11.0,42,0.00,,SKC,0.00,VWS V14.01,2013-06-15 18:51:00,
2013-06-15 12:52:00,72.7,48.9,29.98,East,88,9.0,10.0,43,0.00,,SKC,0.00,VWS V14.01,2013-06-15 18:52:00,
2013-06-15 12:53:00,72.7,48.9,29.98,ENE,63,3.0,9.0,43,0.00,,SKC,0.00,VWS V14.01,2013-06-15 18:53:00,
2013-06-15 12:54:00,72.9,49.7,29.98,ESE,115,6.0,11.0,44,0.00,,SKC,0.00,VWS V14.01,2013-06-15 18:54:00,
2013-06-15 12:55:00,73.0,49.2,29.98,SE,132,9.0,12.0,43,0.00,,SKC,0.00,VWS V14.01,2013-06-15 18:55:00,
2013-06-15 12:56:00,73.3,49.5,29.98,SE,140,4.0,11.0,43,0.00,,SKC,0.00,VWS V14.01,2013-06-15 18:56:00,
2013-06-15 12:57:00,73.4,49.6,29.98,SE,136,4.0,5.0,43,0.00,,SKC,0.00,VWS V14.01,2013-06-15 18:57:00,
2013-06-15 12:58:00,73.6,49.1,29.98,East,95,5.0,5.0,42,0.00,,SKC,0.00,VWS V14.01,2013-06-15 18:58:00,
2013-06-15 12:59:00,73.8,49.3,29.99,ENE,71,7.0,14.0,42,0.00,,SKC,0.00,VWS V14.01,2013-06-15 18:59:00,
2013-06-15 13:00:00,73.9,48.7,29.98,East,93,10.0,15.0,41,0.00,,SKC,0.00,VWS V14.01,2013-06-15 19:00:00,
2013-06-15 13:01:00,74.0,48.8,29.98,ENE,61,6.0,13.0,41,0.00,,SKC,0.00,VWS V14.01,2013-06-15 19:01:00,
2013-06-15 13:02:00,74.0,49.5,29.98,NE,37,3.0,8.0,42,0.00,,SKC,0.00,VWS V14.01,2013-06-15 19:02:00,
2013-06-15 13:03:00,74.0,48.2,29.98,ENE,67,2.0,9.0,40,0.00,,SKC,0.00,VWS V14.01,2013-06-15 19:03:00,
2013-06-15 13:04:00,74.0,49.5,29.99,East,79,3.0,5.0,42,0.00,,SKC,0.00,VWS V14.01,2013-06-15 19:04:00,
2013-06-15 13:05:00,74.0,48.8,29.98,ESE,111,10.0,12.0,41,0.00,,SKC,0.00,VWS V14.01,2013-06-15 19:05:00,
2013-06-15 13:06:00,74.0,49.5,29.99,East,91,5.0,13.0,42,0.00,,SKC,0.00,VWS V14.01,2013-06-15 19:06:00,
2013-06-15 13:07:00,74.1,49.6,29.99,SE,130,4.0,7.0,42,0.00,,SKC,0.00,VWS V14.01,2013-06-15 19:07:00,
2013-06-15 13:08:00,74.2,50.3,29.99,SE,132,10.0,11.0,43,0.00,,SKC,0.00,VWS V14.01,2013-06-15 19:08:00,
2013-06-15 13:09:00,74.3,50.4,29.98,East,100,6.0,10.0,43,0.00,,SKC,0.00,VWS V14.01,2013-06-15 19:09:00,
2013-06-15 13:10:00,74.4,50.5,29.98,SE,128,4.0,8.0,43,0.00,,SKC,0.00,VWS V14.01,2013-06-15 19:10:00,
2013-06-15 13:11:00,74.5,49.9,29.99,East,92,19.0,19.0,42,0.00,,SKC,0.00,VWS V14.01,2013-06-15 19:11:00,
2013-06-15 13:12:00,74.7,49.5,29.99,ENE,57,3.0,19.0,41,0.00,,SKC,0.00,VWS V14.01,2013-06-15 19:12:00,
2013-06-15 13:13:00,74.8,49.5,29.98,East,100,6.0,7.0,41,0.00,,SKC,0.00,VWS V14.01,2013-06-15 19:13:00,
2013-06-15 13:14:00,74.9,49.0,29.98,ESE,113,5.0,12.0,40,0.00,,SKC,0.00,VWS V14.01,2013-06-15 19:14:00,
2013-06-15 13:15:00,75.0,49.1,29.98,ENE,76,4.0,13.0,40,0.00,,SKC,0.00,VWS V14.01,2013-06-15 19:15:00,
2013-06-15 13:16:00,75.1,49.8,29.98,ESE,103,7.0,11.0,41,0.00,,SKC,0.00,VWS V14.01,2013-06-15 19:16:00,
2013-06-15 13:17:00,75.1,49.2,29.97,ESE,111,4.0,9.0,40,0.00,,SKC,0.00,VWS V14.01,2013-06-15 19:17:00,
2013-06-15 13:18:00,75.2,49.2,29.98,SSE,148,7.0,9.0,40,0.00,,SKC,0.00,VWS V14.01,2013-06-15 19:18:00,
2013-06-15 13:19:00,75.3,50.0,29.98,ESE,113,6.0,13.0,41,0.00,,SKC,0.00,VWS V14.01,2013-06-15 19:19:00,
2013-06-15 13:20:00,75.3,50.0,29.98,ESE,103,11.0,11.0,41,0.00,,SKC,0.00,VWS V14.01,2013-06-15 19:20:00,
2013-06-15 13:21:00,75.4,50.1,29.98,ESE,109,5.0,11.0,41,0.00,,SKC,0.00,VWS V14.01,2013-06-15 19:21:00,
2013-06-15 13:22:00,75.4,49.4,29.98,East,90,4.0,17.0,40,0.00,,SKC,0.00,VWS V14.01,2013-06-15 19:22:00,
2013-06-15 13:23:00,75.5,49.5,29.98,East,87,10.0,10.0,40,0.00,,SKC,0.00,VWS V14.01,2013-06-15 19:23:00,
2013-06-15 13:24:00,75.6,49.6,29.98,East,92,12.0,12.0,40,0.00,,SKC,0.00,VWS V14.01,2013-06-15 19:24:00,
2013-06-15 13:25:00,75.6,48.9,29.98,East,94,5.0,12.0,39,0.00,,SKC,0.00,VWS V14.01,2013-06-15 19:25:00,
2013-06-15 13:26:00,75.6,49.6,29.98,East,98,11.0,11.0,40,0.00,,SKC,0.00,VWS V14.01,2013-06-15 19:26:00,
2013-06-15 13:27:00,75.6,49.6,29.98,East,98,13.0,13.0,40,0.00,,SKC,0.00,VWS V14.01,2013-06-15 19:27:00,
2013-06-15 13:28:00,75.6,49.6,29.98,SE,126,6.0,13.0,40,0.00,,SKC,0.00,VWS V14.01,2013-06-15 19:28:00,
2013-06-15 13:29:00,75.6,49.6,29.98,ESE,123,11.0,15.0,40,0.00,,SKC,0.00,VWS V14.01,2013-06-15 19:29:00,
2013-06-15 13:30:00,75.6,49.6,29.98,NE,49,3.0,16.0,40,0.00,,SKC,0.00,VWS V14.01,2013-06-15 19:30:00,
2013-06-15 13:31:00,75.6,48.9,29.98,East,100,4.0,10.0,39,0.00,,SKC,0.00,VWS V14.01,2013-06-15 19:31:00,
2013-06-15 13:32:00,75.5,48.8,29.98,SE,125,10.0,15.0,39,0.00,,SKC,0.00,VWS V14.01,2013-06-15 19:32:00,
2013-06-15 13:33:00,75.3,48.7,29.99,East,90,10.0,16.0,39,0.00,,SKC,0.00,VWS V14.01,2013-06-15 19:33:00,
2013-06-15 13:34:00,75.2,49.2,29.98,East,85,9.0,13.0,40,0.00,,SKC,0.00,VWS V14.01,2013-06-15 19:34:00,
2013-06-15 13:35:00,75.1,48.5,29.98,ENE,78,2.0,9.0,39,0.00,,SKC,0.00,VWS V14.01,2013-06-15 19:35:00,
2013-06-15 13:36:00,75.1,48.5,29.97,ENE,71,11.0,12.0,39,0.00,,SKC,0.00,VWS V14.01,2013-06-15 19:36:00,
2013-06-15 13:37:00,75.0,48.4,29.98,ENE,76,15.0,16.0,39,0.00,,SKC,0.00,VWS V14.01,2013-06-15 19:37:00,
2013-06-15 13:38:00,75.0,48.4,29.98,ESE,115,13.0,18.0,39,0.00,,SKC,0.00,VWS V14.01,2013-06-15 19:38:00,
2013-06-15 13:39:00,74.9,49.0,29.98,East,82,6.0,13.0,40,0.00,,SKC,0.00,VWS V14.01,2013-06-15 19:39:00,
2013-06-15 13:40:00,74.8,48.9,29.98,NE,45,2.0,13.0,40,0.00,,SKC,0.00,VWS V14.01,2013-06-15 19:40:00,
2013-06-15 13:41:00,74.8,48.9,29.98,East,90,9.0,13.0,40,0.00,,SKC,0.00,VWS V14.01,2013-06-15 19:41:00,
2013-06-15 13:42:00,74.8,48.9,29.98,ESE,103,4.0,11.0,40,0.00,,SKC,0.00,VWS V14.01,2013-06-15 19:42:00,
2013-06-15 13:43:00,74.8,49.5,29.98,ESE,107,4.0,7.0,41,0.00,,SKC,0.00,VWS V14.01,2013-06-15 19:43:00,
2013-06-15 13:44:00,74.9,49.0,29.98,East,98,5.0,9.0,40,0.00,,SKC,0.00,VWS V14.01,2013-06-15 19:44:00,
2013-06-15 13:45:00,75.0,50.4,29.98,ESE,107,7.0,8.0,42,0.00,,SKC,0.00,VWS V14.01,2013-06-15 19:45:00,
2013-06-15 13:46:00,75.1,49.8,29.98,East,94,7.0,11.0,41,0.00,,SKC,0.00,VWS V14.01,2013-06-15 19:46:00,
2013-06-15 13:47:00,75.2,49.2,29.98,ESE,107,10.0,11.0,40,0.00,,SKC,0.00,VWS V14.01,2013-06-15 19:47:00,
2013-06-15 13:48:00,75.3,49.3,29.98,East,96,9.0,15.0,40,0.00,,SKC,0.00,VWS V14.01,2013-06-15 19:48:00,
2013-06-15 13:49:00,75.4,49.4,29.98,ESE,111,6.0,10.0,40,0.00,,SKC,0.00,VWS V14.01,2013-06-15 19:49:00,
2013-06-15 13:50:00,75.4,48.8,29.98,ESE,105,12.0,13.0,39,0.00,,SKC,0.00,VWS V14.01,2013-06-15 19:50:00,
2013-06-15 13:51:00,75.4,48.8,29.98,ESE,109,11.0,14.0,39,0.00,,SKC,0.00,VWS V14.01,2013-06-15 19:51:00,
2013-06-15 13:52:00,75.4,49.4,29.98,East,85,9.0,11.0,40,0.00,,SKC,0.00,VWS V14.01,2013-06-15 19:52:00,
2013-06-15 13:53:00,75.4,49.4,29.98,East,90,4.0,9.0,40,0.00,,SKC,0.00,VWS V14.01,2013-06-15 19:53:00,
2013-06-15 13:54:00,75.4,49.4,29.98,ENE,74,6.0,11.0,40,0.00,,SKC,0.00,VWS V14.01,2013-06-15 19:54:00,
2013-06-15 13:55:00,75.3,48.7,29.98,ESE,121,9.0,19.0,39,0.00,,SKC,0.00,VWS V14.01,2013-06-15 19:55:00,
2013-06-15 13:56:00,75.3,48.7,29.98,East,95,9.0,13.0,39,0.00,,SKC,0.00,VWS V14.01,2013-06-15 19:56:00,
2013-06-15 13:57:00,75.2,48.6,29.98,East,99,11.0,14.0,39,0.00,,SKC,0.00,VWS V14.01,2013-06-15 19:57:00,
2013-06-15 13:58:00,75.1,48.5,29.98,ENE,76,9.0,12.0,39,0.00,,SKC,0.00,VWS V14.01,2013-06-15 19:58:00,
2013-06-15 13:59:00,75.1,48.5,29.98,SE,124,10.0,13.0,39,0.00,,SKC,0.00,VWS V14.01,2013-06-15 19:59:00,
2013-06-15 14:00:00,75.0,48.4,29.98,ESE,110,12.0,12.0,39,0.00,,SKC,0.00,VWS V14.01,2013-06-15 20:00:00,
2013-06-15 14:01:00,74.9,48.3,29.98,SE,141,4.0,14.0,39,0.00,,SKC,0.00,VWS V14.01,2013-06-15 20:01:00,
2013-06-15 14:02:00,74.8,48.2,29.98,East,101,6.0,13.0,39,0.00,,SKC,0.00,VWS V14.01,2013-06-15 20:02:00,
2013-06-15 14:03:00,74.7,48.8,29.98,ENE,69,7.0,12.0,40,0.00,,SKC,0.00,VWS V14.01,2013-06-15 20:03:00,
2013-06-15 14:04:00,74.6,48.0,29.97,East,101,7.0,7.0,39,0.00,,SKC,0.00,VWS V14.01,2013-06-15 20:04:00,
2013-06-15 14:05:00,74.6,48.7,29.97,SE,128,8.0,12.0,40,0.00,,SKC,0.00,VWS V14.01,2013-06-15 20:05:00,
2013-06-15 14:06:00,74.5,48.6,29.97,ESE,117,6.0,10.0,40,0.00,,SKC,0.00,VWS V14.01,2013-06-15 20:06:00,
2013-06-15 14:07:00,74.5,49.3,29.97,ESE,115,7.0,13.0,41,0.00,,SKC,0.00,VWS V14.01,2013-06-15 20:07:00,
2013-06-15 14:08:00,74.5,49.3,29.97,SE,128,9.0,10.0,41,0.00,,SKC,0.00,VWS V14.01,2013-06-15 20:08:00,
2013-06-15 14:09:00,74.5,47.9,29.97,East,101,8.0,11.0,39,0.00,,SKC,0.00,VWS V14.01,2013-06-15 20:09:00,
2013-06-15 14:10:00,74.5,48.6,29.97,ESE,123,3.0,11.0,40,0.00,,SKC,0.00,VWS V14.01,2013-06-15 20:10:00,
2013-06-15 14:11:00,74.6,48.7,29.97,SE,128,5.0,12.0,40,0.00,,SKC,0.00,VWS V14.01,2013-06-15 20:11:00,
2013-06-15 14:12:00,74.7,48.8,29.97,SE,125,8.0,10.0,40,0.00,,SKC,0.00,VWS V14.01,2013-06-15 20:12:00,
2013-06-15 14:13:00,74.7,47.4,29.97,SE,136,13.0,13.0,38,0.00,,SKC,0.00,VWS V14.01,2013-06-15 20:13:00,
2013-06-15 14:14:00,74.7,48.8,29.97,East,96,13.0,15.0,40,0.00,,SKC,0.00,VWS V14.01,2013-06-15 20:14:00,
2013-06-15 14:15:00,74.8,48.2,29.97,East,98,14.0,14.0,39,0.00,,SKC,0.00,VWS V14.01,2013-06-15 20:15:00,
2013-06-15 14:16:00,74.8,47.5,29.97,East,90,11.0,14.0,38,0.00,,SKC,0.00,VWS V14.01,2013-06-15 20:16:00,
2013-06-15 14:17:00,74.9,48.3,29.97,SE,124,9.0,12.0,39,0.00,,SKC,0.00,VWS V14.01,2013-06-15 20:17:00,
2013-06-15 14:18:00,75.0,48.4,29.97,ESE,113,12.0,12.0,39,0.00,,SKC,0.00,VWS V14.01,2013-06-15 20:18:00,
2013-06-15 14:19:00,75.2,49.2,29.97,ENE,78,9.0,12.0,40,0.00,,SKC,0.00,VWS V14.01,2013-06-15 20:19:00,
2013-06-15 14:20:00,75.3,48.7,29.97,ESE,122,11.0,12.0,39,0.00,,SKC,0.00,VWS V14.01,2013-06-15 20:20:00,
2013-06-15 14:21:00,75.4,48.8,29.97,ESE,120,9.0,14.0,39,0.00,,SKC,0.00,VWS V14.01,2013-06-15 20:21:00,
2013-06-15 14:22:00,75.5,48.8,29.97,SE,130,9.0,15.0,39,0.00,,SKC,0.00,VWS V14.01,2013-06-15 20:22:00,
2013-06-15 14:23:00,75.7,48.3,29.97,East,80,11.0,12.0,38,0.00,,SKC,0.00,VWS V14.01,2013-06-15 20:23:00,
2013-06-15 14:24:00,75.7,48.3,29.97,East,81,7.0,15.0,38,0.00,,SKC,0.00,VWS V14.01,2013-06-15 20:24:00,
2013-06-15 14:25:00,75.8,48.4,29.97,East,101,12.0,12.0,38,0.00,,SKC,0.00,VWS V14.01,2013-06-15 20:25:00,
2013-06-15 14:26:00,75.9,48.5,29.97,East,93,11.0,16.0,38,0.00,,SKC,0.00,VWS V14.01,2013-06-15 20:26:00,
2013-06-15 14:27:00,75.9,48.5,29.97,ESE,103,12.0,12.0,38,0.00,,SKC,0.00,VWS V14.01,2013-06-15 20:27:00,
2013-06-15 14:28:00,75.9,48.5,29.97,ESE,111,5.0,12.0,38,0.00,,SKC,0.00,VWS V14.01,2013-06-15 20:28:00,
2013-06-15 14:29:00,75.9,48.5,29.97,ESE,117,4.0,10.0,38,0.00,,SKC,0.00,VWS V14.01,2013-06-15 20:29:00,
2013-06-15 14:30:00,75.9,49.2,29.98,ESE,120,5.0,8.0,39,0.00,,SKC,0.00,VWS V14.01,2013-06-15 20:30:00,
2013-06-15 14:31:00,75.9,48.5,29.98,East,94,5.0,8.0,38,0.00,,SKC,0.00,VWS V14.01,2013-06-15 20:31:00,
2013-06-15 14:32:00,76.0,48.6,29.97,East,99,7.0,10.0,38,0.00,,SKC,0.00,VWS V14.01,2013-06-15 20:32:00,
2013-06-15 14:33:00,76.0,48.6,29.97,ESE,107,14.0,14.0,38,0.00,,SKC,0.00,VWS V14.01,2013-06-15 20:33:00,
2013-06-15 14:34:00,76.0,48.6,29.98,ESE,113,13.0,14.0,38,0.00,,SKC,0.00,VWS V14.01,2013-06-15 20:34:00,
2013-06-15 14:35:00,75.7,46.9,29.97,East,99,11.0,13.0,36,0.00,,SKC,0.00,VWS V14.01,2013-06-15 20:35:00,
2013-06-15 14:36:00,75.4,48.0,29.97,SSE,159,6.0,11.0,38,0.00,,SKC,0.00,VWS V14.01,2013-06-15 20:36:00,
2013-06-15 14:37:00,75.3,48.0,29.97,North,360,6.0,9.0,38,0.00,,SKC,0.00,VWS V14.01,2013-06-15 20:37:00,
2013-06-15 14:38:00,75.0,47.0,29.97,East,92,11.0,13.0,37,0.00,,SKC,0.00,VWS V14.01,2013-06-15 20:38:00,
2013-06-15 14:39:00,74.8,46.8,29.97,East,88,15.0,17.0,37,0.00,,SKC,0.00,VWS V14.01,2013-06-15 20:39:00,
2013-06-15 14:40:00,74.6,46.6,29.98,ENE,73,9.0,15.0,37,0.00,,SKC,0.00,VWS V14.01,2013-06-15 20:40:00,
2013-06-15 14:41:00,74.4,47.2,29.98,ENE,76,6.0,14.0,38,0.00,,SKC,0.00,VWS V14.01,2013-06-15 20:41:00,
2013-06-15 14:42:00,74.3,47.8,29.98,East,94,7.0,11.0,39,0.00,,SKC,0.00,VWS V14.01,2013-06-15 20:42:00,
2013-06-15 14:43:00,74.2,48.3,29.98,SE,143,12.0,12.0,40,0.00,,SKC,0.00,VWS V14.01,2013-06-15 20:43:00,
2013-06-15 14:44:00,74.1,48.3,29.98,ESE,123,12.0,14.0,40,0.00,,SKC,0.00,VWS V14.01,2013-06-15 20:44:00,
2013-06-15 14:45:00,74.1,48.3,29.98,East,98,6.0,19.0,40,0.00,,SKC,0.00,VWS V14.01,2013-06-15 20:45:00,
2013-06-15 14:46:00,74.1,48.3,29.98,ENE,78,8.0,15.0,40,0.00,,SKC,0.00,VWS V14.01,2013-06-15 20:46:00,
2013-06-15 14:47:00,74.1,47.6,29.98,SE,139,7.0,15.0,39,0.00,,SKC,0.00,VWS V14.01,2013-06-15 20:47:00,
2013-06-15 14:48:00,74.1,47.6,29.98,SE,129,9.0,11.0,39,0.00,,SKC,0.00,VWS V14.01,2013-06-15 20:48:00,
2013-06-15 14:49:00,74.0,48.2,29.98,SE,126,6.0,13.0,40,0.00,,SKC,0.00,VWS V14.01,2013-06-15 20:49:00,
2013-06-15 14:50:00,73.8,47.3,29.98,SE,126,10.0,13.0,39,0.00,,SKC,0.00,VWS V14.01,2013-06-15 20:50:00,
2013-06-15 14:51:00,73.5,47.7,29.98,SSE,147,9.0,13.0,40,0.00,,SKC,0.00,VWS V14.01,2013-06-15 20:51:00,
2013-06-15 14:52:00,73.3,46.9,29.98,SE,131,4.0,14.0,39,0.00,,SKC,0.00,VWS V14.01,2013-06-15 20:52:00,
2013-06-15 14:53:00,73.0,46.6,29.98,North,360,4.0,10.0,39,0.00,,SKC,0.00,VWS V14.01,2013-06-15 20:53:00,
2013-06-15 14:54:00,72.8,47.8,29.98,SE,127,9.0,11.0,41,0.00,,SKC,0.00,VWS V14.01,2013-06-15 20:54:00,
2013-06-15 14:55:00,72.7,48.3,29.98,ESE,111,2.0,9.0,42,0.00,,SKC,0.00,VWS V14.01,2013-06-15 20:55:00,
2013-06-15 14:56:00,72.7,48.3,29.98,ESE,109,5.0,5.0,42,0.00,,SKC,0.00,VWS V14.01,2013-06-15 20:56:00,
2013-06-15 14:57:00,72.7,47.7,29.98,East,80,3.0,6.0,41,0.00,,SKC,0.00,VWS V14.01,2013-06-15 20:57:00,
2013-06-15 14:58:00,72.7,47.7,29.99,NE,54,11.0,11.0,41,0.00,,SKC,0.00,VWS V14.01,2013-06-15 20:58:00,
2013-06-15 14:59:00,72.7,47.0,29.99,ENE,61,4.0,11.0,40,0.00,,SKC,0.00,VWS V14.01,2013-06-15 20:59:00,
2013-06-15 15:00:00,72.7,47.0,29.99,ENE,61,3.0,9.0,40,0.00,,SKC,0.00,VWS V14.01,2013-06-15 21:00:00,
2013-06-15 15:01:00,72.6,46.9,29.98,East,96,7.0,10.0,40,0.00,,SKC,0.00,VWS V14.01,2013-06-15 21:01:00,
2013-06-15 15:02:00,72.5,47.5,29.98,ESE,109,4.0,10.0,41,0.00,,SKC,0.00,VWS V14.01,2013-06-15 21:02:00,
2013-06-15 15:03:00,72.4,47.4,29.98,ESE,110,5.0,6.0,41,0.00,,SKC,0.00,VWS V14.01,2013-06-15 21:03:00,
2013-06-15 15:04:00,72.3,47.3,29.98,East,100,5.0,9.0,41,0.00,,SKC,0.00,VWS V14.01,2013-06-15 21:04:00,
2013-06-15 15:05:00,72.3,47.3,29.98,ESE,107,12.0,12.0,41,0.00,,SKC,0.00,VWS V14.01,2013-06-15 21:05:00,
2013-06-15 15:06:00,72.1,47.1,29.99,East,97,9.0,12.0,41,0.00,,SKC,0.00,VWS V14.01,2013-06-15 21:06:00,
2013-06-15 15:07:00,71.9,47.0,29.99,East,84,11.0,11.0,41,0.00,,SKC,0.00,VWS V14.01,2013-06-15 21:07:00,
2013-06-15 15:08:00,71.8,46.9,29.99,East,98,14.0,15.0,41,0.00,,SKC,0.00,VWS V14.01,2013-06-15 21:08:00,
2013-06-15 15:09:00,71.5,46.6,29.99,East,93,10.0,15.0,41,0.00,,SKC,0.00,VWS V14.01,2013-06-15 21:09:00,
2013-06-15 15:10:00,71.3,46.4,29.99,NE,54,6.0,17.0,41,0.00,,SKC,0.00,VWS V14.01,2013-06-15 21:10:00,
2013-06-15 15:11:00,71.1,46.9,29.99,ENE,69,7.0,11.0,42,0.00,,SKC,0.00,VWS V14.01,2013-06-15 21:11:00,
2013-06-15 15:12:00,71.0,46.8,29.99,East,82,7.0,10.0,42,0.00,,SKC,0.00,VWS V14.01,2013-06-15 21:12:00,
2013-06-15 15:13:00,70.8,46.6,29.99,NE,56,3.0,10.0,42,0.00,,SKC,0.00,VWS V14.01,2013-06-15 21:13:00,
2013-06-15 15:14:00,70.7,47.1,29.99,ENE,75,4.0,5.0,43,0.00,,SKC,0.00,VWS V14.01,2013-06-15 21:14:00,
2013-06-15 15:15:00,70.6,47.0,29.99,ENE,57,3.0,8.0,43,0.00,,SKC,0.00,VWS V14.01,2013-06-15 21:15:00,
2013-06-15 15:16:00,70.5,47.0,29.99,East,83,3.0,7.0,43,0.00,,SKC,0.00,VWS V14.01,2013-06-15 21:16:00,
2013-06-15 15:17:00,70.4,46.9,30.00,ESE,105,9.0,9.0,43,0.00,,SKC,0.00,VWS V14.01,2013-06-15 21:17:00,
2013-06-15 15:18:00,70.3,46.8,30.00,ESE,111,4.0,9.0,43,0.00,,SKC,0.00,VWS V14.01,2013-06-15 21:18:00,
2013-06-15 15:19:00,70.2,46.7,30.00,ENE,57,2.0,5.0,43,0.00,,SKC,0.00,VWS V14.01,2013-06-15 21:19:00,
2013-06-15 15:20:00,70.1,46.6,30.00,North,360,3.0,4.0,43,0.00,,SKC,0.00,VWS V14.01,2013-06-15 21:20:00,
2013-06-15 15:21:00,70.2,47.3,30.00,ESE,113,3.0,4.0,44,0.00,,SKC,0.00,VWS V14.01,2013-06-15 21:21:00,
2013-06-15 15:22:00,70.2,47.9,30.00,ESE,115,3.0,5.0,45,0.00,,SKC,0.00,VWS V14.01,2013-06-15 21:22:00,
2013-06-15 15:23:00,70.3,48.0,30.00,ESE,114,3.0,12.0,45,0.00,,SKC,0.00,VWS V14.01,2013-06-15 21:23:00,
2013-06-15 15:24:00,70.4,47.5,29.99,East,92,14.0,14.0,44,0.00,,SKC,0.00,VWS V14.01,2013-06-15 21:24:00,
2013-06-15 15:25:00,70.5,47.0,29.99,East,86,15.0,17.0,43,0.00,,SKC,0.00,VWS V14.01,2013-06-15 21:25:00,
2013-06-15 15:26:00,70.6,47.0,30.00,NE,35,1.0,15.0,43,0.00,,SKC,0.00,VWS V14.01,2013-06-15 21:26:00,
2013-06-15 15:27:00,70.6,46.4,29.99,NE,52,3.0,4.0,42,0.00,,SKC,0.00,VWS V14.01,2013-06-15 21:27:00,
2013-06-15 15:28:00,70.6,47.0,29.99,East,88,7.0,7.0,43,0.00,,SKC,0.00,VWS V14.01,2013-06-15 21:28:00,
2013-06-15 15:29:00,70.6,47.0,29.99,East,79,4.0,7.0,43,0.00,,SKC,0.00,VWS V14.01,2013-06-15 21:29:00,
2013-06-15 15:30:00,70.6,47.0,30.00,East,86,15.0,16.0,43,0.00,,SKC,0.00,VWS V14.01,2013-06-15 21:30:00,
2013-06-15 15:31:00,70.6,46.4,30.00,East,94,6.0,17.0,42,0.00,,SKC,0.00,VWS V14.01,2013-06-15 21:31:00,
2013-06-15 15:32:00,70.5,46.3,29.99,East,92,5.0,7.0,42,0.00,,SKC,0.00,VWS V14.01,2013-06-15 21:32:00,
2013-06-15 15:33:00,70.4,46.2,29.99,East,83,19.0,19.0,42,0.00,,SKC,0.00,VWS V14.01,2013-06-15 21:33:00,
2013-06-15 15:34:00,70.3,46.8,29.99,East,94,10.0,22.0,43,0.00,,SKC,0.00,VWS V14.01,2013-06-15 21:34:00,
2013-06-15 15:35:00,70.3,46.8,29.98,ENE,75,10.0,14.0,43,0.00,,SKC,0.00,VWS V14.01,2013-06-15 21:35:00,
2013-06-15 15:36:00,70.3,46.8,29.98,ENE,74,3.0,10.0,43,0.00,,SKC,0.00,VWS V14.01,2013-06-15 21:36:00,
2013-06-15 15:37:00,70.4,47.5,29.98,East,94,7.0,7.0,44,0.00,,SKC,0.00,VWS V14.01,2013-06-15 21:37:00,
2013-06-15 15:38:00,70.5,47.0,29.99,ESE,106,4.0,7.0,43,0.00,,SKC,0.00,VWS V14.01,2013-06-15 21:38:00,
2013-06-15 15:39:00,70.5,46.3,29.99,ESE,121,11.0,11.0,42,0.00,,SKC,0.00,VWS V14.01,2013-06-15 21:39:00,
2013-06-15 15:40:00,70.5,46.3,29.99,East,96,4.0,11.0,42,0.00,,SKC,0.00,VWS V14.01,2013-06-15 21:40:00,
2013-06-15 15:41:00,70.6,48.2,29.99,ESE,119,5.0,5.0,45,0.00,,SKC,0.00,VWS V14.01,2013-06-15 21:41:00,
2013-06-15 15:42:00,70.8,47.8,29.99,ESE,114,5.0,10.0,44,0.00,,SKC,0.00,VWS V14.01,2013-06-15 21:42:00,
2013-06-15 15:43:00,71.1,48.1,29.99,East,82,6.0,11.0,44,0.00,,SKC,0.00,VWS V14.01,2013-06-15 21:43:00,
2013-06-15 15:44:00,71.3,47.7,29.99,NE,46,0.0,9.0,43,0.00,,SKC,0.00,VWS V14.01,2013-06-15 21:44:00,
2013-06-15 15:45:00,71.6,47.3,29.98,NE,44,0.0,3.0,42,0.00,,SKC,0.00,VWS V14.01,2013-06-15 21:45:00,
2013-06-15 15:46:00,71.8,46.9,29.99,ENE,61,3.0,5.0,41,0.00,,SKC,0.00,VWS V14.01,2013-06-15 21:46:00,
2013-06-15 15:47:00,72.0,47.0,29.98,East,86,6.0,12.0,41,0.00,,SKC,0.00,VWS V14.01,2013-06-15 21:47:00,
2013-06-15 15:48:00,72.1,47.8,29.98,ESE,123,5.0,9.0,42,0.00,,SKC,0.00,VWS V14.01,2013-06-15 21:48:00,
2013-06-15 15:49:00,72.2,47.9,29.98,SE,130,6.0,7.0,42,0.00,,SKC,0.00,VWS V14.01,2013-06-15 21:49:00,
2013-06-15 15:50:00,72.2,47.9,29.98,ESE,123,9.0,14.0,42,0.00,,SKC,0.00,VWS V14.01,2013-06-15 21:50:00,
2013-06-15 15:51:00,72.2,47.2,29.98,SE,139,3.0,10.0,41,0.00,,SKC,0.00,VWS V14.01,2013-06-15 21:51:00,
2013-06-15 15:52:00,72.1,47.1,29.98,SSE,163,10.0,10.0,41,0.00,,SKC,0.00,VWS V14.01,2013-06-15 21:52:00,
2013-06-15 15:53:00,71.9,47.0,29.98,ESE,115,4.0,11.0,41,0.00,,SKC,0.00,VWS V14.01,2013-06-15 21:53:00,
2013-06-15 15:54:00,71.8,46.9,29.99,East,88,4.0,12.0,41,0.00,,SKC,0.00,VWS V14.01,2013-06-15 21:54:00,
2013-06-15 15:55:00,71.6,46.7,29.99,East,80,7.0,12.0,41,0.00,,SKC,0.00,VWS V14.01,2013-06-15 21:55:00,
2013-06-15 15:56:00,71.5,46.6,29.99,ENE,74,1.0,7.0,41,0.00,,SKC,0.00,VWS V14.01,2013-06-15 21:56:00,
2013-06-15 15:57:00,71.5,47.2,29.99,SE,136,3.0,5.0,42,0.00,,SKC,0.00,VWS V14.01,2013-06-15 21:57:00,
2013-06-15 15:58:00,71.4,46.5,29.98,South,176,4.0,7.0,41,0.00,,SKC,0.00,VWS V14.01,2013-06-15 21:58:00,
2013-06-15 15:59:00,71.3,47.0,29.99,South,175,4.0,6.0,42,0.00,,SKC,0.00,VWS V14.01,2013-06-15 21:59:00,
2013-06-15 16:00:00,71.3,47.0,29.99,South,188,2.0,5.0,42,0.00,,SKC,0.00,VWS V14.01,2013-06-15 22:00:00,
2013-06-15 16:01:00,71.3,46.4,29.98,North,360,1.0,3.0,41,0.00,,SKC,0.00,VWS V14.01,2013-06-15 22:01:00,
2013-06-15 16:02:00,71.0,46.1,29.98,NE,42,2.0,4.0,41,0.00,,SKC,0.00,VWS V14.01,2013-06-15 22:02:00,
2013-06-15 16:03:00,70.8,46.6,29.98,NE,38,0.0,3.0,42,0.00,,SKC,0.00,VWS V14.01,2013-06-15 22:03:00,
2013-06-15 16:04:00,70.7,47.1,29.98,East,96,4.0,4.0,43,0.00,,SKC,0.00,VWS V14.01,2013-06-15 22:04:00,
2013-06-15 16:05:00,70.6,47.0,29.98,East,95,1.0,4.0,43,0.00,,SKC,0.00,VWS V14.01,2013-06-15 22:05:00,
2013-06-15 16:06:00,70.5,47.0,29.99,East,95,1.0,3.0,43,0.00,,SKC,0.00,VWS V14.01,2013-06-15 22:06:00,
2013-06-15 16:07:00,70.4,46.9,29.99,East,96,1.0,2.0,43,0.00,,SKC,0.00,VWS V14.01,2013-06-15 22:07:00,
2013-06-15 16:08:00,70.4,46.2,29.99,East,101,0.0,1.0,42,0.00,,SKC,0.00,VWS V14.01,2013-06-15 22:08:00,
2013-06-15 16:09:00,70.4,47.5,29.98,East,92,0.0,0.0,44,0.00,,SKC,0.00,VWS V14.01,2013-06-15 22:09:00,
2013-06-15 16:10:00,70.5,47.0,29.98,East,96,1.0,1.0,43,0.00,,SKC,0.00,VWS V14.01,2013-06-15 22:10:00,
2013-06-15 16:11:00,70.5,48.2,29.98,ESE,113,5.0,6.0,45,0.00,,SKC,0.00,VWS V14.01,2013-06-15 22:11:00,
2013-06-15 16:12:00,70.6,47.7,29.98,East,101,5.0,12.0,44,0.00,,SKC,0.00,VWS V14.01,2013-06-15 22:12:00,
2013-06-15 16:13:00,70.8,47.8,29.98,East,101,4.0,7.0,44,0.00,,SKC,0.00,VWS V14.01,2013-06-15 22:13:00,
2013-06-15 16:14:00,70.9,47.3,29.98,East,95,9.0,11.0,43,0.00,,SKC,0.00,VWS V14.01,2013-06-15 22:14:00,
2013-06-15 16:15:00,71.0,47.4,29.98,ESE,107,3.0,9.0,43,0.00,,SKC,0.00,VWS V14.01,2013-06-15 22:15:00,
2013-06-15 16:16:00,71.0,47.4,29.98,ESE,106,5.0,5.0,43,0.00,,SKC,0.00,VWS V14.01,2013-06-15 22:16:00,
2013-06-15 16:17:00,71.1,47.5,29.98,ESE,102,4.0,7.0,43,0.00,,SKC,0.00,VWS V14.01,2013-06-15 22:17:00,
2013-06-15 16:18:00,71.1,47.5,29.98,East,101,7.0,9.0,43,0.00,,SKC,0.00,VWS V14.01,2013-06-15 22:18:00,
2013-06-15 16:19:00,71.1,47.5,29.98,ESE,106,4.0,9.0,43,0.00,,SKC,0.00,VWS V14.01,2013-06-15 22:19:00,
2013-06-15 16:20:00,71.1,47.5,29.99,ESE,113,4.0,7.0,43,0.00,,SKC,0.00,VWS V14.01,2013-06-15 22:20:00,
2013-06-15 16:21:00,71.1,47.5,29.99,East,98,5.0,7.0,43,0.00,,SKC,0.00,VWS V14.01,2013-06-15 22:21:00,
2013-06-15 16:22:00,71.0,46.8,29.98,East,92,6.0,11.0,42,0.00,,SKC,0.00,VWS V14.01,2013-06-15 22:22:00,
2013-06-15 16:23:00,71.0,47.4,29.98,ESE,117,6.0,7.0,43,0.00,,SKC,0.00,VWS V14.01,2013-06-15 22:23:00,
2013-06-15 16:24:00,71.0,47.4,29.98,ESE,106,2.0,6.0,43,0.00,,SKC,0.00,VWS V14.01,2013-06-15 22:24:00,
2013-06-15 16:25:00,71.0,47.4,29.98,SE,125,4.0,5.0,43,0.00,,SKC,0.00,VWS V14.01,2013-06-15 22:25:00,
2013-06-15 16:26:00,71.1,48.1,29.98,SSE,148,4.0,5.0,44,0.00,,SKC,0.00,VWS V14.01,2013-06-15 22:26:00,
2013-06-15 16:27:00,71.1,48.1,29.98,East,84,2.0,4.0,44,0.00,,SKC,0.00,VWS V14.01,2013-06-15 22:27:00,
2013-06-15 16:28:00,71.2,48.2,29.98,East,80,0.0,2.0,44,0.00,,SKC,0.00,VWS V14.01,2013-06-15 22:28:00,
2013-06-15 16:29:00,71.3,47.7,29.98,East,84,5.0,5.0,43,0.00,,SKC,0.00,VWS V14.01,2013-06-15 22:29:00,
2013-06-15 16:30:00,71.3,47.7,29.98,East,84,11.0,11.0,43,0.00,,SKC,0.00,VWS V14.01,2013-06-15 22:30:00,
2013-06-15 16:31:00,71.4,47.1,29.98,ENE,77,6.0,13.0,42,0.00,,SKC,0.00,VWS V14.01,2013-06-15 22:31:00,
2013-06-15 16:32:00,71.5,47.8,29.97,NE,50,3.0,7.0,43,0.00,,SKC,0.00,VWS V14.01,2013-06-15 22:32:00,
2013-06-15 16:33:00,71.6,47.9,29.97,ENE,62,2.0,7.0,43,0.00,,SKC,0.00,VWS V14.01,2013-06-15 22:33:00,
2013-06-15 16:34:00,71.8,48.7,29.97,NE,55,3.0,3.0,44,0.00,,SKC,0.00,VWS V14.01,2013-06-15 22:34:00,
2013-06-15 16:35:00,71.9,48.2,29.98,East,98,4.0,5.0,43,0.00,,SKC,0.00,VWS V14.01,2013-06-15 22:35:00,
2013-06-15 16:36:00,72.1,47.8,29.98,ESE,119,4.0,9.0,42,0.00,,SKC,0.00,VWS V14.01,2013-06-15 22:36:00,
2013-06-15 16:37:00,72.2,47.9,29.98,East,100,3.0,5.0,42,0.00,,SKC,0.00,VWS V14.01,2013-06-15 22:37:00,
2013-06-15 16:38:00,72.2,47.2,29.98,ESE,122,6.0,6.0,41,0.00,,SKC,0.00,VWS V14.01,2013-06-15 22:38:00,
2013-06-15 16:39:00,72.3,47.3,29.98,SE,131,6.0,8.0,41,0.00,,SKC,0.00,VWS V14.01,2013-06-15 22:39:00,
2013-06-15 16:40:00,72.4,48.7,29.98,SE,132,10.0,12.0,43,0.00,,SKC,0.00,VWS V14.01,2013-06-15 22:40:00,
2013-06-15 16:41:00,72.5,48.8,29.98,SE,124,7.0,11.0,43,0.00,,SKC,0.00,VWS V14.01,2013-06-15 22:41:00,
2013-06-15 16:42:00,72.7,48.3,29.98,NE,37,3.0,7.0,42,0.00,,SKC,0.00,VWS V14.01,2013-06-15 22:42:00,
2013-06-15 16:43:00,72.8,48.4,29.98,NE,44,0.0,5.0,42,0.00,,SKC,0.00,VWS V14.01,2013-06-15 22:43:00,
2013-06-15 16:44:00,73.0,48.6,29.97,East,85,4.0,4.0,42,0.00,,SKC,0.00,VWS V14.01,2013-06-15 22:44:00,
2013-06-15 16:45:00,73.3,48.8,29.97,East,89,3.0,4.0,42,0.00,,SKC,0.00,VWS V14.01,2013-06-15 22:45:00,
2013-06-15 16:46:00,73.7,49.2,29.97,ESE,106,3.0,6.0,42,0.00,,SKC,0.00,VWS V14.01,2013-06-15 22:46:00,
2013-06-15 16:47:00,73.9,48.7,29.97,SE,131,3.0,6.0,41,0.00,,SKC,0.00,VWS V14.01,2013-06-15 22:47:00,
2013-06-15 16:48:00,74.0,48.2,29.97,SE,132,5.0,5.0,40,0.00,,SKC,0.00,VWS V14.01,2013-06-15 22:48:00,
2013-06-15 16:49:00,74.1,48.3,29.97,East,98,9.0,10.0,40,0.00,,SKC,0.00,VWS V14.01,2013-06-15 22:49:00,
2013-06-15 16:50:00,74.0,48.2,29.97,ESE,118,6.0,10.0,40,0.00,,SKC,0.00,VWS V14.01,2013-06-15 22:50:00,
2013-06-15 16:51:00,74.0,47.5,29.97,ESE,104,5.0,9.0,39,0.00,,SKC,0.00,VWS V14.01,2013-06-15 22:51:00,
2013-06-15 16:52:00,73.9,47.4,29.97,ESE,103,4.0,6.0,39,0.00,,SKC,0.00,VWS V14.01,2013-06-15 22:52:00,
2013-06-15 16:53:00,73.8,48.0,29.97,East,97,6.0,6.0,40,0.00,,SKC,0.00,VWS V14.01,2013-06-15 22:53:00,
2013-06-15 16:54:00,73.8,48.0,29.97,East,101,7.0,9.0,40,0.00,,SKC,0.00,VWS V14.01,2013-06-15 22:54:00,
2013-06-15 16:55:00,73.8,48.7,29.97,SE,128,5.0,7.0,41,0.00,,SKC,0.00,VWS V14.01,2013-06-15 22:55:00,
2013-06-15 16:56:00,73.8,48.7,29.97,SE,134,1.0,5.0,41,0.00,,SKC,0.00,VWS V14.01,2013-06-15 22:56:00,
2013-06-15 16:57:00,73.8,48.0,29.97,ESE,119,5.0,6.0,40,0.00,,SKC,0.00,VWS V14.01,2013-06-15 22:57:00,
2013-06-15 16:58:00,73.7,47.9,29.97,East,101,6.0,6.0,40,0.00,,SKC,0.00,VWS V14.01,2013-06-15 22:58:00,
2013-06-15 16:59:00,73.7,47.9,29.97,East,93,4.0,10.0,40,0.00,,SKC,0.00,VWS V14.01,2013-06-15 22:59:00,
2013-06-15 17:00:00,73.6,47.8,29.97,ESE,103,6.0,7.0,40,0.00,,SKC,0.00,VWS V14.01,2013-06-15 23:00:00,
2013-06-15 17:01:00,73.5,47.7,29.97,ESE,119,9.0,11.0,40,0.00,,SKC,0.00,VWS V14.01,2013-06-15 23:01:00,
2013-06-15 17:02:00,73.5,47.7,29.97,East,94,10.0,13.0,40,0.00,,SKC,0.00,VWS V14.01,2013-06-15 23:02:00,
2013-06-15 17:03:00,73.5,47.7,29.97,ESE,123,3.0,11.0,40,0.00,,SKC,0.00,VWS V14.01,2013-06-15 23:03:00,
2013-06-15 17:04:00,73.5,47.7,29.97,SE,132,10.0,10.0,40,0.00,,SKC,0.00,VWS V14.01,2013-06-15 23:04:00,
2013-06-15 17:05:00,73.5,47.0,29.97,East,96,4.0,10.0,39,0.00,,SKC,0.00,VWS V14.01,2013-06-15 23:05:00,
2013-06-15 17:06:00,73.5,47.7,29.97,ESE,115,7.0,10.0,40,0.00,,SKC,0.00,VWS V14.01,2013-06-15 23:06:00,
2013-06-15 17:07:00,73.5,47.7,29.97,SE,128,3.0,7.0,40,0.00,,SKC,0.00,VWS V14.01,2013-06-15 23:07:00,
2013-06-15 17:08:00,73.6,47.1,29.97,SE,136,11.0,11.0,39,0.00,,SKC,0.00,VWS V14.01,2013-06-15 23:08:00,
2013-06-15 17:09:00,73.7,47.2,29.97,ESE,113,5.0,12.0,39,0.00,,SKC,0.00,VWS V14.01,2013-06-15 23:09:00,
2013-06-15 17:10:00,73.5,47.0,29.97,SE,136,9.0,11.0,39,0.00,,SKC,0.00,VWS V14.01,2013-06-15 23:10:00,
2013-06-15 17:11:00,73.3,46.9,29.97,East,100,13.0,15.0,39,0.00,,SKC,0.00,VWS V14.01,2013-06-15 23:11:00,
2013-06-15 17:12:00,73.3,47.5,29.97,East,101,4.0,13.0,40,0.00,,SKC,0.00,VWS V14.01,2013-06-15 23:12:00,
2013-06-15 17:13:00,73.3,46.9,29.97,ESE,109,11.0,11.0,39,0.00,,SKC,0.00,VWS V14.01,2013-06-15 23:13:00,
2013-06-15 17:14:00,73.3,47.5,29.97,East,90,9.0,12.0,40,0.00,,SKC,0.00,VWS V14.01,2013-06-15 23:14:00,
2013-06-15 17:15:00,73.3,47.5,29.97,SE,126,6.0,9.0,40,0.00,,SKC,0.00,VWS V14.01,2013-06-15 23:15:00,
2013-06-15 17:16:00,73.4,47.6,29.97,ESE,104,5.0,9.0,40,0.00,,SKC,0.00,VWS V14.01,2013-06-15 23:16:00,
2013-06-15 17:17:00,73.5,47.7,29.97,ESE,103,3.0,5.0,40,0.00,,SKC,0.00,VWS V14.01,2013-06-15 23:17:00,
2013-06-15 17:18:00,73.7,47.9,29.97,SE,129,5.0,9.0,40,0.00,,SKC,0.00,VWS V14.01,2013-06-15 23:18:00,
2013-06-15 17:19:00,73.8,47.3,29.97,SE,128,6.0,7.0,39,0.00,,SKC,0.00,VWS V14.01,2013-06-15 23:19:00,
2013-06-15 17:20:00,73.9,47.4,29.97,SE,133,5.0,7.0,39,0.00,,SKC,0.00,VWS V14.01,2013-06-15 23:20:00,
2013-06-15 17:21:00,73.9,47.4,29.97,ESE,119,3.0,7.0,39,0.00,,SKC,0.00,VWS V14.01,2013-06-15 23:21:00,
2013-06-15 17:22:00,73.9,46.7,29.97,ESE,117,5.0,5.0,38,0.00,,SKC,0.00,VWS V14.01,2013-06-15 23:22:00,
2013-06-15 17:23:00,73.8,48.0,29.97,ESE,114,3.0,7.0,40,0.00,,SKC,0.00,VWS V14.01,2013-06-15 23:23:00,
2013-06-15 17:24:00,73.8,48.0,29.97,ESE,122,4.0,6.0,40,0.00,,SKC,0.00,VWS V14.01,2013-06-15 23:24:00,
2013-06-15 17:25:00,73.6,47.1,29.97,SE,128,7.0,8.0,39,0.00,,SKC,0.00,VWS V14.01,2013-06-15 23:25:00,
2013-06-15 17:26:00,73.4,47.0,29.98,ESE,115,7.0,7.0,39,0.00,,SKC,0.00,VWS V14.01,2013-06-15 23:26:00,
2013-06-15 17:27:00,73.3,46.9,29.97,ESE,119,3.0,7.0,39,0.00,,SKC,0.00,VWS V14.01,2013-06-15 23:27:00,
2013-06-15 17:28:00,73.2,47.5,29.97,ESE,107,4.0,6.0,40,0.00,,SKC,0.00,VWS V14.01,2013-06-15 23:28:00,
2013-06-15 17:29:00,73.1,47.4,29.97,SE,135,2.0,7.0,40,0.00,,SKC,0.00,VWS V14.01,2013-06-15 23:29:00,
2013-06-15 17:30:00,73.1,46.7,29.97,SE,128,2.0,5.0,39,0.00,,SKC,0.00,VWS V14.01,2013-06-15 23:30:00,
2013-06-15 17:31:00,73.0,46.6,29.97,East,93,4.0,7.0,39,0.00,,SKC,0.00,VWS V14.01,2013-06-15 23:31:00,
2013-06-15 17:32:00,73.0,46.6,29.97,East,100,3.0,5.0,39,0.00,,SKC,0.00,VWS V14.01,2013-06-15 23:32:00,
2013-06-15 17:33:00,73.0,47.3,29.97,ESE,102,4.0,7.0,40,0.00,,SKC,0.00,VWS V14.01,2013-06-15 23:33:00,
2013-06-15 17:34:00,73.0,46.6,29.97,ESE,102,3.0,5.0,39,0.00,,SKC,0.00,VWS V14.01,2013-06-15 23:34:00,
2013-06-15 17:35:00,73.1,47.4,29.97,East,96,4.0,5.0,40,0.00,,SKC,0.00,VWS V14.01,2013-06-15 23:35:00,
2013-06-15 17:36:00,73.2,47.5,29.98,East,79,6.0,6.0,40,0.00,,SKC,0.00,VWS V14.01,2013-06-15 23:36:00,
2013-06-15 17:37:00,73.3,46.9,29.97,East,94,5.0,6.0,39,0.00,,SKC,0.00,VWS V14.01,2013-06-15 23:37:00,
2013-06-15 17:38:00,73.5,47.0,29.98,ENE,67,1.0,5.0,39,0.00,,SKC,0.00,VWS V14.01,2013-06-15 23:38:00,
2013-06-15 17:39:00,73.6,47.8,29.98,East,81,2.0,6.0,40,0.00,,SKC,0.00,VWS V14.01,2013-06-15 23:39:00,
2013-06-15 17:40:00,73.7,45.8,29.97,East,82,0.0,2.0,37,0.00,,SKC,0.00,VWS V14.01,2013-06-15 23:40:00,
2013-06-15 17:41:00,73.8,46.6,29.97,East,81,1.0,1.0,38,0.00,,SKC,0.00,VWS V14.01,2013-06-15 23:41:00,
2013-06-15 17:42:00,73.9,46.7,29.97,East,88,4.0,4.0,38,0.00,,SKC,0.00,VWS V14.01,2013-06-15 23:42:00,
2013-06-15 17:43:00,74.0,46.8,29.97,East,86,2.0,4.0,38,0.00,,SKC,0.00,VWS V14.01,2013-06-15 23:43:00,
2013-06-15 17:44:00,74.0,47.5,29.97,East,89,3.0,5.0,39,0.00,,SKC,0.00,VWS V14.01,2013-06-15 23:44:00,
2013-06-15 17:45:00,74.0,47.5,29.97,East,84,3.0,3.0,39,0.00,,SKC,0.00,VWS V14.01,2013-06-15 23:45:00,
2013-06-15 17:46:00,74.1,47.6,29.97,East,87,4.0,4.0,39,0.00,,SKC,0.00,VWS V14.01,2013-06-15 23:46:00,
2013-06-15 17:47:00,74.0,46.8,29.97,ESE,122,3.0,7.0,38,0.00,,SKC,0.00,VWS V14.01,2013-06-15 23:47:00,
2013-06-15 17:48:00,73.8,46.6,29.97,SE,134,6.0,7.0,38,0.00,,SKC,0.00,VWS V14.01,2013-06-15 23:48:00,
2013-06-15 17:49:00,73.6,47.8,29.97,North,360,4.0,7.0,40,0.00,,SKC,0.00,VWS V14.01,2013-06-15 23:49:00,
2013-06-15 17:50:00,73.5,47.7,29.97,ESE,113,3.0,5.0,40,0.00,,SKC,0.00,VWS V14.01,2013-06-15 23:50:00,
2013-06-15 17:51:00,73.5,47.7,29.97,ESE,116,3.0,3.0,40,0.00,,SKC,0.00,VWS V14.01,2013-06-15 23:51:00,
2013-06-15 17:52:00,73.5,47.0,29.97,SE,129,4.0,4.0,39,0.00,,SKC,0.00,VWS V14.01,2013-06-15 23:52:00,
2013-06-15 17:53:00,73.5,47.0,29.98,SSE,154,6.0,7.0,39,0.00,,SKC,0.00,VWS V14.01,2013-06-15 23:53:00,
2013-06-15 17:54:00,73.4,48.3,29.98,SSE,152,4.0,7.0,41,0.00,,SKC,0.00,VWS V14.01,2013-06-15 23:54:00,
2013-06-15 17:55:00,73.4,47.6,29.98,SE,136,7.0,7.0,40,0.00,,SKC,0.00,VWS V14.01,2013-06-15 23:55:00,
2013-06-15 17:56:00,73.4,47.0,29.98,SE,132,13.0,13.0,39,0.00,,SKC,0.00,VWS V14.01,2013-06-15 23:56:00,
2013-06-15 17:57:00,73.2,46.1,29.98,SSE,151,7.0,13.0,38,0.00,,SKC,0.00,VWS V14.01,2013-06-15 23:57:00,
2013-06-15 17:58:00,72.9,45.8,29.98,ESE,106,10.0,11.0,38,0.00,,SKC,0.00,VWS V14.01,2013-06-15 23:58:00,
2013-06-15 17:59:00,72.6,46.2,29.98,ESE,107,3.0,11.0,39,0.00,,SKC,0.00,VWS V14.01,2013-06-15 23:59:00,
2013-06-15 18:00:00,72.5,46.2,29.98,SE,124,9.0,10.0,39,0.00,,SKC,0.00,VWS V14.01,2013-06-16 00:00:00,
2013-06-15 18:01:00,72.3,46.0,29.98,SE,128,7.0,12.0,39,0.00,,SKC,0.00,VWS V14.01,2013-06-16 00:01:00,
2013-06-15 18:02:00,72.1,45.8,29.98,ESE,111,6.0,10.0,39,0.00,,SKC,0.00,VWS V14.01,2013-06-16 00:02:00,
2013-06-15 18:03:00,71.9,46.3,29.98,ESE,119,5.0,6.0,40,0.00,,SKC,0.00,VWS V14.01,2013-06-16 00:03:00,
2013-06-15 18:04:00,71.8,46.2,29.98,ESE,114,5.0,5.0,40,0.00,,SKC,0.00,VWS V14.01,2013-06-16 00:04:00,
2013-06-15 18:05:00,71.7,46.1,29.98,East,88,7.0,8.0,40,0.00,,SKC,0.00,VWS V14.01,2013-06-16 00:05:00,
2013-06-15 18:06:00,71.7,46.8,29.98,East,98,5.0,7.0,41,0.00,,SKC,0.00,VWS V14.01,2013-06-16 00:06:00,
2013-06-15 18:07:00,71.6,46.7,29.99,East,94,1.0,5.0,41,0.00,,SKC,0.00,VWS V14.01,2013-06-16 00:07:00,
2013-06-15 18:08:00,71.6,46.0,29.99,East,92,5.0,5.0,40,0.00,,SKC,0.00,VWS V14.01,2013-06-16 00:08:00,
2013-06-15 18:09:00,71.5,46.6,29.99,East,92,5.0,6.0,41,0.00,,SKC,0.00,VWS V14.01,2013-06-16 00:09:00,
2013-06-15 18:10:00,71.3,45.8,29.99,East,90,3.0,7.0,40,0.00,,SKC,0.00,VWS V14.01,2013-06-16 00:10:00,
2013-06-15 18:11:00,71.3,45.8,29.99,ESE,102,4.0,5.0,40,0.00,,SKC,0.00,VWS V14.01,2013-06-16 00:11:00,
2013-06-15 18:12:00,71.2,45.7,29.99,East,94,5.0,8.0,40,0.00,,SKC,0.00,VWS V14.01,2013-06-16 00:12:00,
2013-06-15 18:13:00,71.1,46.2,29.99,East,96,6.0,9.0,41,0.00,,SKC,0.00,VWS V14.01,2013-06-16 00:13:00,
2013-06-15 18:14:00,70.9,46.0,29.98,ESE,104,6.0,8.0,41,0.00,,SKC,0.00,VWS V14.01,2013-06-16 00:14:00,
2013-06-15 18:15:00,70.8,46.0,29.98,ESE,107,3.0,6.0,41,0.00,,SKC,0.00,VWS V14.01,2013-06-16 00:15:00,
2013-06-15 18:16:00,70.6,45.8,29.98,East,100,4.0,7.0,41,0.00,,SKC,0.00,VWS V14.01,2013-06-16 00:16:00,
2013-06-15 18:17:00,70.5,45.7,29.99,East,101,2.0,5.0,41,0.00,,SKC,0.00,VWS V14.01,2013-06-16 00:17:00,
2013-06-15 18:18:00,70.4,46.2,29.99,ESE,107,4.0,5.0,42,0.00,,SKC,0.00,VWS V14.01,2013-06-16 00:18:00,
2013-06-15 18:19:00,70.3,45.5,29.99,ESE,107,1.0,4.0,41,0.00,,SKC,0.00,VWS V14.01,2013-06-16 00:19:00,
2013-06-15 18:20:00,70.2,46.1,29.99,ESE,108,2.0,3.0,42,0.00,,SKC,0.00,VWS V14.01,2013-06-16 00:20:00,
2013-06-15 18:21:00,70.2,46.1,29.99,ESE,102,3.0,4.0,42,0.00,,SKC,0.00,VWS V14.01,2013-06-16 00:21:00,
2013-06-15 18:22:00,70.2,46.1,29.99,ESE,109,3.0,3.0,42,0.00,,SKC,0.00,VWS V14.01,2013-06-16 00:22:00,
2013-06-15 18:23:00,70.2,46.7,29.99,ESE,106,3.0,4.0,43,0.00,,SKC,0.00,VWS V14.01,2013-06-16 00:23:00,
2013-06-15 18:24:00,70.2,46.1,29.99,ESE,107,0.0,3.0,42,0.00,,SKC,0.00,VWS V14.01,2013-06-16 00:24:00,
2013-06-15 18:25:00,70.2,46.1,29.99,ESE,103,1.0,3.0,42,0.00,,SKC,0.00,VWS V14.01,2013-06-16 00:25:00,
2013-06-15 18:26:00,70.1,46.6,29.99,ESE,107,2.0,3.0,43,0.00,,SKC,0.00,VWS V14.01,2013-06-16 00:26:00,
2013-06-15 18:27:00,70.1,47.2,29.99,ESE,107,2.0,3.0,44,0.00,,SKC,0.00,VWS V14.01,2013-06-16 00:27:00,
2013-06-15 18:28:00,70.1,46.6,29.99,ESE,109,3.0,3.0,43,0.00,,SKC,0.00,VWS V14.01,2013-06-16 00:28:00,
2013-06-15 18:29:00,70.2,46.7,29.99,ESE,106,2.0,3.0,43,0.00,,SKC,0.00,VWS V14.01,2013-06-16 00:29:00,
2013-06-15 18:30:00,70.2,46.7,29.99,ESE,105,4.0,4.0,43,0.00,,SKC,0.00,VWS V14.01,2013-06-16 00:30:00,
2013-06-15 18:31:00,70.2,46.7,29.99,ESE,109,2.0,4.0,43,0.00,,SKC,0.00,VWS V14.01,2013-06-16 00:31:00,
2013-06-15 18:32:00,70.2,46.7,29.99,ESE,109,3.0,4.0,43,0.00,,SKC,0.00,VWS V14.01,2013-06-16 00:32:00,
2013-06-15 18:33:00,70.2,46.7,29.99,East,101,2.0,3.0,43,0.00,,SKC,0.00,VWS V14.01,2013-06-16 00:33:00,
2013-06-15 18:34:00,70.3,46.8,29.99,ESE,106,1.0,2.0,43,0.00,,SKC,0.00,VWS V14.01,2013-06-16 00:34:00,
2013-06-15 18:35:00,70.3,46.8,29.99,ESE,107,2.0,5.0,43,0.00,,SKC,0.00,VWS V14.01,2013-06-16 00:35:00,
2013-06-15 18:36:00,70.3,46.2,30.00,ESE,108,4.0,4.0,42,0.00,,SKC,0.00,VWS V14.01,2013-06-16 00:36:00,
2013-06-15 18:37:00,70.3,46.8,30.00,ESE,108,2.0,4.0,43,0.00,,SKC,0.00,VWS V14.01,2013-06-16 00:37:00,
2013-06-15 18:38:00,70.3,46.8,30.00,ESE,111,2.0,3.0,43,0.00,,SKC,0.00,VWS V14.01,2013-06-16 00:38:00,
2013-06-15 18:39:00,70.4,46.9,30.00,ESE,111,0.0,2.0,43,0.00,,SKC,0.00,VWS V14.01,2013-06-16 00:39:00,
2013-06-15 18:40:00,70.4,46.2,30.00,ESE,109,1.0,1.0,42,0.00,,SKC,0.00,VWS V14.01,2013-06-16 00:40:00,
2013-06-15 18:41:00,70.4,46.2,30.00,ESE,109,2.0,3.0,42,0.00,,SKC,0.00,VWS V14.01,2013-06-16 00:41:00,
2013-06-15 18:42:00,70.4,46.2,30.00,ESE,111,4.0,4.0,42,0.00,,SKC,0.00,VWS V14.01,2013-06-16 00:42:00,
2013-06-15 18:43:00,70.3,46.2,30.00,ESE,107,2.0,4.0,42,0.00,,SKC,0.00,VWS V14.01,2013-06-16 00:43:00,
2013-06-15 18:44:00,70.3,46.2,30.00,ESE,111,1.0,3.0,42,0.00,,SKC,0.00,VWS V14.01,2013-06-16 00:44:00,
2013-06-15 18:45:00,70.3,46.2,30.00,ENE,60,2.0,2.0,42,0.00,,SKC,0.00,VWS V14.01,2013-06-16 00:45:00,
2013-06-15 18:46:00,70.3,46.2,30.00,ENE,60,1.0,3.0,42,0.00,,SKC,0.00,VWS V14.01,2013-06-16 00:46:00,
2013-06-15 18:47:00,70.4,46.2,30.00,NE,53,2.0,2.0,42,0.00,,SKC,0.00,VWS V14.01,2013-06-16 00:47:00,
2013-06-15 18:48:00,70.4,45.6,29.99,ENE,74,3.0,4.0,41,0.00,,SKC,0.00,VWS V14.01,2013-06-16 00:48:00,
2013-06-15 18:49:00,70.4,46.2,29.99,ENE,67,4.0,7.0,42,0.00,,SKC,0.00,VWS V14.01,2013-06-16 00:49:00,
2013-06-15 18:50:00,70.4,46.2,30.00,ENE,66,3.0,6.0,42,0.00,,SKC,0.00,VWS V14.01,2013-06-16 00:50:00,
2013-06-15 18:51:00,70.4,45.6,29.99,ENE,75,3.0,4.0,41,0.00,,SKC,0.00,VWS V14.01,2013-06-16 00:51:00,
2013-06-15 18:52:00,70.4,45.6,30.00,East,88,4.0,7.0,41,0.00,,SKC,0.00,VWS V14.01,2013-06-16 00:52:00,
2013-06-15 18:53:00,70.4,45.6,30.00,East,86,3.0,5.0,41,0.00,,SKC,0.00,VWS V14.01,2013-06-16 00:53:00,
2013-06-15 18:54:00,70.4,46.2,30.00,East,87,4.0,4.0,42,0.00,,SKC,0.00,VWS V14.01,2013-06-16 00:54:00,
2013-06-15 18:55:00,70.4,45.6,30.00,East,96,4.0,5.0,41,0.00,,SKC,0.00,VWS V14.01,2013-06-16 00:55:00,
2013-06-15 18:56:00,70.3,45.5,30.00,ENE,73,2.0,6.0,41,0.00,,SKC,0.00,VWS V14.01,2013-06-16 00:56:00,
2013-06-15 18:57:00,70.3,45.5,29.99,NE,54,1.0,6.0,41,0.00,,SKC,0.00,VWS V14.01,2013-06-16 00:57:00,
2013-06-15 18:58:00,70.3,45.5,30.00,ENE,75,6.0,6.0,41,0.00,,SKC,0.00,VWS V14.01,2013-06-16 00:58:00,
2013-06-15 18:59:00,70.2,45.4,30.00,ENE,78,4.0,6.0,41,0.00,,SKC,0.00,VWS V14.01,2013-06-16 00:59:00,
2013-06-15 19:00:00,70.2,45.4,30.00,East,80,1.0,4.0,41,0.00,,SKC,0.00,VWS V14.01,2013-06-16 01:00:00,
2013-06-15 19:01:00,70.1,45.3,30.00,ENE,76,1.0,2.0,41,0.00,,SKC,0.00,VWS V14.01,2013-06-16 01:01:00,
2013-06-15 19:02:00,70.1,45.3,30.00,ENE,74,2.0,3.0,41,0.00,,SKC,0.00,VWS V14.01,2013-06-16 01:02:00,
2013-06-15 19:03:00,70.0,45.2,30.00,ENE,76,3.0,3.0,41,0.00,,SKC,0.00,VWS V14.01,2013-06-16 01:03:00,
2013-06-15 19:04:00,70.0,45.2,30.00,ESE,109,3.0,5.0,41,0.00,,SKC,0.00,VWS V14.01,2013-06-16 01:04:00,
2013-06-15 19:05:00,70.0,45.9,30.00,SE,127,4.0,5.0,42,0.00,,SKC,0.00,VWS V14.01,2013-06-16 01:05:00,
2013-06-15 19:06:00,69.9,44.5,30.00,SE,129,1.0,5.0,40,0.00,,SKC,0.00,VWS V14.01,2013-06-16 01:06:00,
2013-06-15 19:07:00,69.9,45.2,30.00,SE,127,4.0,4.0,41,0.00,,SKC,0.00,VWS V14.01,2013-06-16 01:07:00,
2013-06-15 19:08:00,69.7,44.3,30.00,SE,127,2.0,4.0,40,0.00,,SKC,0.00,VWS V14.01,2013-06-16 01:08:00,
2013-06-15 19:09:00,69.7,45.0,30.00,SE,128,2.0,2.0,41,0.00,,SKC,0.00,VWS V14.01,2013-06-16 01:09:00,
2013-06-15 19:10:00,69.6,44.9,30.00,SE,129,3.0,4.0,41,0.00,,SKC,0.00,VWS V14.01,2013-06-16 01:10:00,
2013-06-15 19:11:00,69.5,45.4,30.00,SE,127,2.0,3.0,42,0.00,,SKC,0.00,VWS V14.01,2013-06-16 01:11:00,
2013-06-15 19:12:00,69.5,45.4,30.00,SE,132,2.0,3.0,42,0.00,,SKC,0.00,VWS V14.01,2013-06-16 01:12:00,
2013-06-15 19:13:00,69.5,45.4,30.00,ESE,119,3.0,4.0,42,0.00,,SKC,0.00,VWS V14.01,2013-06-16 01:13:00,
2013-06-15 19:14:00,69.4,45.3,30.00,ESE,123,3.0,4.0,42,0.00,,SKC,0.00,VWS V14.01,2013-06-16 01:14:00,
2013-06-15 19:15:00,69.4,44.7,30.00,North,360,2.0,4.0,41,0.00,,SKC,0.00,VWS V14.01,2013-06-16 01:15:00,
2013-06-15 19:16:00,69.4,44.7,30.00,ESE,121,1.0,2.0,41,0.00,,SKC,0.00,VWS V14.01,2013-06-16 01:16:00,
2013-06-15 19:17:00,69.3,45.2,30.00,SE,126,2.0,2.0,42,0.00,,SKC,0.00,VWS V14.01,2013-06-16 01:17:00,
2013-06-15 19:18:00,69.3,45.9,30.00,SE,124,2.0,3.0,43,0.00,,SKC,0.00,VWS V14.01,2013-06-16 01:18:00,
2013-06-15 19:19:00,69.2,45.2,30.00,ESE,119,0.0,2.0,42,0.00,,SKC,0.00,VWS V14.01,2013-06-16 01:19:00,
2013-06-15 19:20:00,69.2,45.2,30.00,ESE,120,1.0,3.0,42,0.00,,SKC,0.00,VWS V14.01,2013-06-16 01:20:00,
2013-06-15 19:21:00,69.2,45.2,30.00,ESE,121,2.0,2.0,42,0.00,,SKC,0.00,VWS V14.01,2013-06-16 01:21:00,
2013-06-15 19:22:00,69.1,45.1,30.00,ESE,121,0.0,2.0,42,0.00,,SKC,0.00,VWS V14.01,2013-06-16 01:22:00,
2013-06-15 19:23:00,69.1,45.1,30.00,ESE,123,2.0,3.0,42,0.00,,SKC,0.00,VWS V14.01,2013-06-16 01:23:00,
2013-06-15 19:24:00,69.0,45.6,30.00,ESE,122,0.0,2.0,43,0.00,,SKC,0.00,VWS V14.01,2013-06-16 01:24:00,
2013-06-15 19:25:00,69.0,45.6,30.00,ESE,122,0.0,1.0,43,0.00,,SKC,0.00,VWS V14.01,2013-06-16 01:25:00,
2013-06-15 19:26:00,69.0,45.0,30.00,ESE,121,0.0,2.0,42,0.00,,SKC,0.00,VWS V14.01,2013-06-16 01:26:00,
2013-06-15 19:27:00,68.9,44.9,30.00,ESE,117,4.0,4.0,42,0.00,,SKC,0.00,VWS V14.01,2013-06-16 01:27:00,
2013-06-15 19:28:00,68.8,44.8,30.00,ESE,121,2.0,4.0,42,0.00,,SKC,0.00,VWS V14.01,2013-06-16 01:28:00,
2013-06-15 19:29:00,68.8,45.4,30.00,ESE,122,3.0,4.0,43,0.00,,SKC,0.00,VWS V14.01,2013-06-16 01:29:00,
2013-06-15 19:30:00,68.7,45.3,30.00,ESE,119,3.0,4.0,43,0.00,,SKC,0.00,VWS V14.01,2013-06-16 01:30:00,
2013-06-15 19:31:00,68.6,45.2,30.00,ESE,119,1.0,3.0,43,0.00,,SKC,0.00,VWS V14.01,2013-06-16 01:31:00,
2013-06-15 19:32:00,68.6,45.2,30.00,SE,124,2.0,2.0,43,0.00,,SKC,0.00,VWS V14.01,2013-06-16 01:32:00,
2013-06-15 19:33:00,68.6,44.6,30.00,SE,126,2.0,2.0,42,0.00,,SKC,0.00,VWS V14.01,2013-06-16 01:33:00,
2013-06-15 19:34:00,68.5,44.5,30.00,ESE,119,1.0,3.0,42,0.00,,SKC,0.00,VWS V14.01,2013-06-16 01:34:00,
2013-06-15 19:35:00,68.5,44.5,30.00,ESE,123,1.0,2.0,42,0.00,,SKC,0.00,VWS V14.01,2013-06-16 01:35:00,
2013-06-15 19:36:00,68.4,44.4,30.00,ESE,122,1.0,1.0,42,0.00,,SKC,0.00,VWS V14.01,2013-06-16 01:36:00,
2013-06-15 19:37:00,68.4,44.4,29.99,SE,124,0.0,1.0,42,0.00,,SKC,0.00,VWS V14.01,2013-06-16 01:37:00,
2013-06-15 19:38:00,68.3,45.0,29.99,ESE,122,0.0,1.0,43,0.00,,SKC,0.00,VWS V14.01,2013-06-16 01:38:00,
2013-06-15 19:39:00,68.3,45.0,29.99,ESE,123,0.0,0.0,43,0.00,,SKC,0.00,VWS V14.01,2013-06-16 01:39:00,
2013-06-15 19:40:00,68.3,44.3,29.99,ESE,120,0.0,0.0,42,0.00,,SKC,0.00,VWS V14.01,2013-06-16 01:40:00,
2013-06-15 19:41:00,68.2,44.9,30.00,ESE,121,0.0,0.0,43,0.00,,SKC,0.00,VWS V14.01,2013-06-16 01:41:00,
2013-06-15 19:42:00,68.1,44.2,30.00,ESE,114,0.0,0.0,42,0.00,,SKC,0.00,VWS V14.01,2013-06-16 01:42:00,
2013-06-15 19:43:00,68.0,44.7,30.00,ESE,123,0.0,1.0,43,0.00,,SKC,0.00,VWS V14.01,2013-06-16 01:43:00,
2013-06-15 19:44:00,67.9,44.6,30.00,ESE,120,0.0,1.0,43,0.00,,SKC,0.00,VWS V14.01,2013-06-16 01:44:00,
2013-06-15 19:45:00,67.8,43.9,30.00,ESE,121,0.0,0.0,42,0.00,,SKC,0.00,VWS V14.01,2013-06-16 01:45:00,
2013-06-15 19:46:00,67.7,44.4,30.00,ESE,121,0.0,0.0,43,0.00,,SKC,0.00,VWS V14.01,2013-06-16 01:46:00,
2013-06-15 19:47:00,67.6,44.3,30.00,ESE,117,0.0,0.0,43,0.00,,SKC,0.00,VWS V14.01,2013-06-16 01:47:00,
2013-06-15 19:48:00,67.5,44.2,30.00,ESE,120,0.0,1.0,43,0.00,,SKC,0.00,VWS V14.01,2013-06-16 01:48:00,
2013-06-15 19:49:00,67.5,44.2,30.00,ESE,119,0.0,1.0,43,0.00,,SKC,0.00,VWS V14.01,2013-06-16 01:49:00,
2013-06-15 19:50:00,67.4,44.2,30.00,ESE,121,0.0,0.0,43,0.00,,SKC,0.00,VWS V14.01,2013-06-16 01:50:00,
2013-06-15 19:51:00,67.4,44.2,30.00,ESE,120,0.0,0.0,43,0.00,,SKC,0.00,VWS V14.01,2013-06-16 01:51:00,
2013-06-15 19:52:00,67.3,44.7,30.00,ESE,117,2.0,2.0,44,0.00,,SKC,0.00,VWS V14.01,2013-06-16 01:52:00,
2013-06-15 19:53:00,67.2,44.6,30.00,ESE,116,2.0,2.0,44,0.00,,SKC,0.00,VWS V14.01,2013-06-16 01:53:00,
2013-06-15 19:54:00,67.1,45.1,30.00,ESE,122,2.0,2.0,45,0.00,,SKC,0.00,VWS V14.01,2013-06-16 01:54:00,
2013-06-15 19:55:00,67.0,45.0,30.00,ESE,119,2.0,3.0,45,0.00,,SKC,0.00,VWS V14.01,2013-06-16 01:55:00,
2013-06-15 19:56:00,66.8,44.8,30.00,ESE,123,1.0,2.0,45,0.00,,SKC,0.00,VWS V14.01,2013-06-16 01:56:00,
2013-06-15 19:59:00,66.6,45.2,30.00,ESE,119,0.0,1.0,46,0.00,,SKC,0.00,VWS V14.01,2013-06-16 01:59:00,
2013-06-15 20:06:00,66.1,45.3,30.00,ESE,112,1.0,3.0,47,0.00,,SKC,0.00,VWS V14.01,2013-06-16 02:06:00,
2013-06-15 20:07:00,65.9,45.7,30.00,SE,124,0.0,2.0,48,0.00,,SKC,0.00,VWS V14.01,2013-06-16 02:07:00,
2013-06-15 20:08:00,65.8,45.6,30.01,ESE,123,3.0,3.0,48,0.00,,SKC,0.00,VWS V14.01,2013-06-16 02:08:00,
2013-06-15 20:18:00,65.4,44.7,30.01,North,360,0.0,0.0,47,0.00,,SKC,0.00,VWS V14.01,2013-06-16 02:18:00,
2013-06-15 20:23:00,65.3,45.1,30.00,NW,304,0.0,1.0,48,0.00,,SKC,0.00,VWS V14.01,2013-06-16 02:23:00,
2013-06-15 20:28:00,64.9,45.8,30.01,NW,305,0.0,0.0,50,0.00,,SKC,0.00,VWS V14.01,2013-06-16 02:28:00,
2013-06-15 20:34:00,64.4,45.4,30.01,WNW,302,0.0,0.0,50,0.00,,SKC,0.00,VWS V14.01,2013-06-16 02:34:00,
2013-06-15 20:39:00,64.0,45.0,30.01,NW,304,0.0,0.0,50,0.00,,SKC,0.00,VWS V14.01,2013-06-16 02:39:00,
2013-06-15 20:45:00,63.5,45.1,30.00,WNW,301,0.0,0.0,51,0.00,,SKC,0.00,VWS V14.01,2013-06-16 02:45:00,
2013-06-15 20:50:00,63.1,45.2,30.01,NW,304,0.0,0.0,52,0.00,,SKC,0.00,VWS V14.01,2013-06-16 02:50:00,
2013-06-15 20:55:00,62.8,44.9,30.01,WNW,300,0.0,0.0,52,0.00,,SKC,0.00,VWS V14.01,2013-06-16 02:55:00,
2013-06-15 21:00:00,62.6,45.2,30.01,NW,306,0.0,0.0,53,0.00,,SKC,0.00,VWS V14.01,2013-06-16 03:00:00,
2013-06-15 21:06:00,62.2,44.9,30.02,WNW,303,0.0,0.0,53,0.00,,SKC,0.00,VWS V14.01,2013-06-16 03:06:00,
2013-06-15 21:12:00,61.9,45.1,30.03,NW,304,0.0,0.0,54,0.00,,SKC,0.00,VWS V14.01,2013-06-16 03:12:00,
2013-06-15 21:17:00,61.5,44.7,30.03,WNW,303,0.0,0.0,54,0.00,,SKC,0.00,VWS V14.01,2013-06-16 03:17:00,
2013-06-15 21:23:00,61.1,44.8,30.03,NW,304,0.0,1.0,55,0.00,,SKC,0.00,VWS V14.01,2013-06-16 03:23:00,
2013-06-15 21:29:00,60.8,44.5,30.04,WNW,298,0.0,0.0,55,0.00,,SKC,0.00,VWS V14.01,2013-06-16 03:29:00,
2013-06-15 21:34:00,60.8,44.5,30.04,NW,306,0.0,0.0,55,0.00,,SKC,0.00,VWS V14.01,2013-06-16 03:34:00,
2013-06-15 21:39:00,60.7,44.9,30.04,WNW,302,0.0,0.0,56,0.00,,SKC,0.00,VWS V14.01,2013-06-16 03:39:00,
2013-06-15 21:45:00,60.5,44.3,30.05,NW,305,0.0,0.0,55,0.00,,SKC,0.00,VWS V14.01,2013-06-16 03:45:00,
2013-06-15 21:50:00,60.5,44.7,30.05,NW,306,0.0,0.0,56,0.00,,SKC,0.00,VWS V14.01,2013-06-16 03:50:00,
2013-06-15 21:55:00,60.6,44.8,30.06,North,360,0.0,0.0,56,0.00,,SKC,0.00,VWS V14.01,2013-06-16 03:55:00,
2013-06-15 22:00:00,60.5,44.7,30.06,NE,54,1.0,2.0,56,0.00,,SKC,0.00,VWS V14.01,2013-06-16 04:00:00,
2013-06-15 22:01:00,60.5,44.7,30.06,ENE,76,4.0,5.0,56,0.00,,SKC,0.00,VWS V14.01,2013-06-16 04:01:00,
2013-06-15 22:02:00,60.5,44.7,30.06,East,88,5.0,6.0,56,0.00,,SKC,0.00,VWS V14.01,2013-06-16 04:02:00,
2013-06-15 22:03:00,60.5,44.7,30.07,East,86,5.0,6.0,56,0.00,,SKC,0.00,VWS V14.01,2013-06-16 04:03:00,
2013-06-15 22:05:00,60.4,44.7,30.06,East,82,3.0,4.0,56,0.00,,SKC,0.00,VWS V14.01,2013-06-16 04:05:00,
2013-06-15 22:06:00,60.4,44.7,30.06,ENE,76,3.0,3.0,56,0.00,,SKC,0.00,VWS V14.01,2013-06-16 04:06:00,
2013-06-15 22:11:00,60.3,45.0,30.07,NW,323,3.0,5.0,57,0.00,,SKC,0.00,VWS V14.01,2013-06-16 04:11:00,
2013-06-15 22:17:00,60.2,44.5,30.06,NW,325,4.0,5.0,56,0.00,,SKC,0.00,VWS V14.01,2013-06-16 04:17:00,
2013-06-15 22:22:00,60.1,44.4,30.06,NW,325,2.0,3.0,56,0.00,,SKC,0.00,VWS V14.01,2013-06-16 04:22:00,
2013-06-15 22:27:00,60.5,44.7,30.06,North,360,3.0,5.0,56,0.00,,SKC,0.00,VWS V14.01,2013-06-16 04:27:00,
2013-06-15 22:33:00,60.6,44.8,30.06,North,360,0.0,0.0,56,0.00,,SKC,0.00,VWS V14.01,2013-06-16 04:33:00,
2013-06-15 22:38:00,60.5,44.7,30.07,North,355,0.0,1.0,56,0.00,,SKC,0.00,VWS V14.01,2013-06-16 04:38:00,
2013-06-15 22:43:00,60.3,44.6,30.08,North,360,0.0,1.0,56,0.00,,SKC,0.00,VWS V14.01,2013-06-16 04:43:00,
2013-06-15 22:48:00,59.8,44.5,30.08,North,355,3.0,3.0,57,0.00,,SKC,0.00,VWS V14.01,2013-06-16 04:48:00,
2013-06-15 22:54:00,59.4,44.2,30.08,NW,324,4.0,6.0,57,0.00,,SKC,0.00,VWS V14.01,2013-06-16 04:54:00,
2013-06-15 22:59:00,59.0,44.3,30.07,NW,323,4.0,4.0,58,0.00,,SKC,0.00,VWS V14.01,2013-06-16 04:59:00,
2013-06-15 23:04:00,59.0,44.7,30.07,NW,315,4.0,5.0,59,0.00,,SKC,0.00,VWS V14.01,2013-06-16 05:04:00,
2013-06-15 23:09:00,59.0,45.6,30.07,NW,308,0.0,2.0,61,0.00,,SKC,0.00,VWS V14.01,2013-06-16 05:09:00,
2013-06-15 23:15:00,59.2,45.3,30.07,NW,315,2.0,4.0,60,0.00,,SKC,0.00,VWS V14.01,2013-06-16 05:15:00,
2013-06-15 23:20:00,59.0,46.0,30.07,North,360,0.0,1.0,62,0.00,,SKC,0.00,VWS V14.01,2013-06-16 05:20:00,
2013-06-15 23:25:00,59.0,46.4,30.06,North,360,0.0,0.0,63,0.00,,SKC,0.00,VWS V14.01,2013-06-16 05:25:00,
2013-06-15 23:31:00,59.3,47.1,30.06,NW,317,1.0,1.0,64,0.00,,SKC,0.00,VWS V14.01,2013-06-16 05:31:00,
2013-06-15 23:36:00,59.7,47.9,30.07,North,360,0.0,1.0,65,0.00,,SKC,0.00,VWS V14.01,2013-06-16 05:36:00,
2013-06-15 23:41:00,59.8,46.8,30.07,NW,311,0.0,0.0,62,0.00,,SKC,0.00,VWS V14.01,2013-06-16 05:41:00,
2013-06-15 23:47:00,59.4,46.8,30.06,NW,315,0.0,0.0,63,0.00,,SKC,0.00,VWS V14.01,2013-06-16 05:47:00,
2013-06-15 23:52:00,59.0,46.0,30.07,NW,313,0.0,1.0,62,0.00,,SKC,0.00,VWS V14.01,2013-06-16 05:52:00,
2013-06-15 23:57:00,58.3,46.2,30.06,NW,315,2.0,3.0,64,0.00,,SKC,0.00,VWS V14.01,2013-06-16 05:57:00,